Wetterdaten: Freitag, 01.09.2017
Datum Zeit Temp. A. Pool Temp. Feuchte A. Luftdruck Regen Wind Richtung Richtung Sonnenschein ET UV Solar Taupunkt Windchill Windben Empfang
01.09.2017 00:00 16,6 C 23,9 C 89 % 1016,5 hPa 0,0 l/m 6,8 km/h (2 Bft) SW 225 0 min 0,000 mm 0,0 UV-I 0 W/m 14,8 C 16,4 C 11,3 km/h (2 Bft) 100,00 %
01.09.2017 00:02 16,6 C 23,9 C 89 % 1016,5 hPa 0,0 l/m 8,0 km/h (2 Bft) W-SW 238 0 min 0,000 mm 0,0 UV-I 0 W/m 14,8 C 15,8 C 14,5 km/h (3 Bft) 97,50 %
01.09.2017 00:04 16,6 C 23,9 C 90 % 1016,5 hPa 0,0 l/m 9,1 km/h (2 Bft) W-SW 237 0 min 0,000 mm 0,0 UV-I 0 W/m 15,0 C 15,3 C 14,5 km/h (3 Bft) 97,87 %
01.09.2017 00:06 16,6 C 23,9 C 90 % 1016,4 hPa 0,0 l/m 9,5 km/h (2 Bft) SW 236 0 min 0,000 mm 0,0 UV-I 0 W/m 15,0 C 15,1 C 12,9 km/h (3 Bft) 97,87 %
01.09.2017 00:08 16,6 C 23,9 C 90 % 1016,4 hPa 0,0 l/m 8,8 km/h (2 Bft) SW 233 0 min 0,000 mm 0,0 UV-I 0 W/m 15,0 C 15,4 C 12,9 km/h (3 Bft) 100,00 %
01.09.2017 00:10 16,6 C 23,9 C 90 % 1016,3 hPa 0,0 l/m 9,4 km/h (2 Bft) W-SW 240 0 min 0,000 mm 0,0 UV-I 0 W/m 15,0 C 15,1 C 14,5 km/h (3 Bft) 100,00 %
01.09.2017 00:12 16,6 C 23,9 C 90 % 1016,3 hPa 0,0 l/m 8,7 km/h (2 Bft) S-SW 200 0 min 0,000 mm 0,0 UV-I 0 W/m 15,0 C 15,5 C 12,9 km/h (3 Bft) 100,00 %
01.09.2017 00:14 16,6 C 23,9 C 90 % 1016,3 hPa 0,0 l/m 11,0 km/h (2 Bft) S-SW 204 0 min 0,000 mm 0,0 UV-I 0 W/m 15,0 C 14,5 C 16,1 km/h (3 Bft) 100,00 %
01.09.2017 00:16 16,6 C 23,9 C 90 % 1016,4 hPa 0,0 l/m 10,7 km/h (2 Bft) SW 219 0 min 0,000 mm 0,0 UV-I 0 W/m 15,0 C 14,6 C 17,7 km/h (3 Bft) 100,00 %
01.09.2017 00:18 16,6 C 23,9 C 90 % 1016,3 hPa 0,0 l/m 9,8 km/h (2 Bft) S-SW 207 0 min 0,000 mm 0,0 UV-I 0 W/m 15,0 C 15,0 C 14,5 km/h (3 Bft) 97,37 %
01.09.2017 00:20 16,5 C 23,9 C 90 % 1016,3 hPa 0,0 l/m 13,3 km/h (3 Bft) S-SW 207 0 min 0,000 mm 0,0 UV-I 0 W/m 14,9 C 13,5 C 19,3 km/h (3 Bft) 100,00 %
01.09.2017 00:22 16,5 C 23,9 C 90 % 1016,2 hPa 0,0 l/m 9,2 km/h (2 Bft) W-SW 243 0 min 0,000 mm 0,0 UV-I 0 W/m 14,9 C 15,1 C 19,3 km/h (3 Bft) 95,74 %
01.09.2017 00:24 16,5 C 23,9 C 90 % 1016,2 hPa 0,0 l/m 9,1 km/h (2 Bft) SW 235 0 min 0,000 mm 0,0 UV-I 0 W/m 14,9 C 15,2 C 17,7 km/h (3 Bft) 97,87 %
01.09.2017 00:26 16,5 C 23,9 C 90 % 1016,1 hPa 0,0 l/m 6,6 km/h (2 Bft) SW 233 0 min 0,000 mm 0,0 UV-I 0 W/m 14,9 C 16,4 C 11,3 km/h (2 Bft) 96,00 %
01.09.2017 00:28 16,5 C 23,9 C 90 % 1016,2 hPa 0,0 l/m 7,5 km/h (2 Bft) SW 227 0 min 0,000 mm 0,0 UV-I 0 W/m 14,9 C 15,9 C 12,9 km/h (3 Bft) 97,87 %
01.09.2017 00:30 16,5 C 23,9 C 90 % 1016,2 hPa 0,0 l/m 12,0 km/h (2 Bft) W-SW 245 0 min 0,000 mm 0,0 UV-I 0 W/m 14,9 C 14,0 C 17,7 km/h (3 Bft) 97,87 %
01.09.2017 00:32 16,5 C 23,9 C 90 % 1016,3 hPa 0,0 l/m 9,1 km/h (2 Bft) W-SW 241 0 min 0,000 mm 0,0 UV-I 0 W/m 14,9 C 15,2 C 12,9 km/h (3 Bft) 100,00 %
01.09.2017 00:34 16,4 C 23,9 C 90 % 1016,3 hPa 0,0 l/m 11,3 km/h (2 Bft) W-SW 240 0 min 0,000 mm 0,0 UV-I 0 W/m 14,8 C 14,1 C 17,7 km/h (3 Bft) 100,00 %
01.09.2017 00:36 16,4 C 23,9 C 90 % 1016,3 hPa 0,0 l/m 8,6 km/h (2 Bft) SW 236 0 min 0,000 mm 0,0 UV-I 0 W/m 14,8 C 15,3 C 17,7 km/h (3 Bft) 100,00 %
01.09.2017 00:38 16,4 C 23,9 C 90 % 1016,4 hPa 0,0 l/m 9,2 km/h (2 Bft) S 184 0 min 0,000 mm 0,0 UV-I 0 W/m 14,8 C 15,0 C 12,9 km/h (3 Bft) 100,00 %
01.09.2017 00:40 16,5 C 23,9 C 90 % 1016,4 hPa 0,0 l/m 11,4 km/h (2 Bft) W-SW 248 0 min 0,000 mm 0,0 UV-I 0 W/m 14,9 C 14,2 C 16,1 km/h (3 Bft) 100,00 %
01.09.2017 00:42 16,5 C 23,9 C 91 % 1016,4 hPa 0,0 l/m 10,8 km/h (2 Bft) S-SW 208 0 min 0,000 mm 0,0 UV-I 0 W/m 15,0 C 14,5 C 16,1 km/h (3 Bft) 100,00 %
01.09.2017 00:44 16,5 C 23,9 C 91 % 1016,3 hPa 0,0 l/m 8,4 km/h (2 Bft) SW 219 0 min 0,000 mm 0,0 UV-I 0 W/m 15,0 C 15,5 C 12,9 km/h (3 Bft) 100,00 %
01.09.2017 00:46 16,5 C 23,9 C 91 % 1016,3 hPa 0,0 l/m 10,4 km/h (2 Bft) S-SW 207 0 min 0,000 mm 0,0 UV-I 0 W/m 15,0 C 14,6 C 16,1 km/h (3 Bft) 100,00 %
01.09.2017 00:48 16,5 C 23,9 C 91 % 1016,2 hPa 0,0 l/m 9,1 km/h (2 Bft) W-SW 241 0 min 0,000 mm 0,0 UV-I 0 W/m 15,0 C 15,2 C 16,1 km/h (3 Bft) 100,00 %
01.09.2017 00:50 16,6 C 23,9 C 91 % 1016,2 hPa 0,0 l/m 12,9 km/h (3 Bft) SW 214 0 min 0,000 mm 0,0 UV-I 0 W/m 15,1 C 13,8 C 20,9 km/h (4 Bft) 100,00 %
01.09.2017 00:52 16,5 C 23,9 C 91 % 1016,2 hPa 0,0 l/m 10,9 km/h (2 Bft) SW 225 0 min 0,000 mm 0,0 UV-I 0 W/m 15,0 C 14,4 C 19,3 km/h (3 Bft) 95,74 %
01.09.2017 00:54 16,5 C 23,9 C 92 % 1016,1 hPa 0,0 l/m 8,6 km/h (2 Bft) SW 223 0 min 0,000 mm 0,0 UV-I 0 W/m 15,2 C 15,4 C 14,5 km/h (3 Bft) 100,00 %
01.09.2017 00:56 16,4 C 23,9 C 92 % 1016,1 hPa 0,0 l/m 7,4 km/h (2 Bft) SW 218 0 min 0,000 mm 0,0 UV-I 0 W/m 15,1 C 15,9 C 11,3 km/h (2 Bft) 97,87 %
01.09.2017 00:58 16,4 C 23,9 C 92 % 1016,2 hPa 0,0 l/m 8,2 km/h (2 Bft) SW 234 0 min 0,000 mm 0,0 UV-I 0 W/m 15,1 C 15,5 C 14,5 km/h (3 Bft) 97,87 %
01.09.2017 01:00 16,4 C 23,9 C 92 % 1016,3 hPa 0,0 l/m 9,1 km/h (2 Bft) S-SW 205 0 min 0,025 mm 0,0 UV-I 0 W/m 15,1 C 15,1 C 14,5 km/h (3 Bft) 97,87 %
01.09.2017 01:02 16,4 C 23,9 C 92 % 1016,3 hPa 0,0 l/m 11,8 km/h (2 Bft) W-SW 242 0 min 0,000 mm 0,0 UV-I 0 W/m 15,1 C 14,0 C 19,3 km/h (3 Bft) 95,74 %
01.09.2017 01:04 16,4 C 23,9 C 92 % 1016,3 hPa 0,0 l/m 9,4 km/h (2 Bft) W-SW 239 0 min 0,000 mm 0,0 UV-I 0 W/m 15,1 C 14,9 C 17,7 km/h (3 Bft) 94,00 %
01.09.2017 01:06 16,3 C 23,9 C 92 % 1016,3 hPa 0,0 l/m 8,9 km/h (2 Bft) W-SW 252 0 min 0,000 mm 0,0 UV-I 0 W/m 15,0 C 15,0 C 16,1 km/h (3 Bft) 93,62 %
01.09.2017 01:08 16,3 C 23,9 C 92 % 1016,4 hPa 0,0 l/m 8,0 km/h (2 Bft) SW 234 0 min 0,000 mm 0,0 UV-I 0 W/m 15,0 C 15,5 C 12,9 km/h (3 Bft) 96,00 %
01.09.2017 01:10 16,3 C 23,9 C 92 % 1016,3 hPa 0,0 l/m 8,1 km/h (2 Bft) SW 227 0 min 0,000 mm 0,0 UV-I 0 W/m 15,0 C 15,4 C 11,3 km/h (2 Bft) 89,36 %
01.09.2017 01:12 16,3 C 23,9 C 92 % 1016,3 hPa 0,0 l/m 8,3 km/h (2 Bft) W-SW 247 0 min 0,000 mm 0,0 UV-I 0 W/m 15,0 C 15,3 C 12,9 km/h (3 Bft) 97,87 %
01.09.2017 01:14 16,3 C 23,9 C 93 % 1016,3 hPa 0,0 l/m 9,2 km/h (2 Bft) SW 229 0 min 0,000 mm 0,0 UV-I 0 W/m 15,2 C 14,9 C 16,1 km/h (3 Bft) 97,87 %
01.09.2017 01:16 16,2 C 23,9 C 93 % 1016,3 hPa 0,0 l/m 8,0 km/h (2 Bft) SW 224 0 min 0,000 mm 0,0 UV-I 0 W/m 15,1 C 15,4 C 12,9 km/h (3 Bft) 97,87 %
01.09.2017 01:18 16,2 C 23,9 C 93 % 1016,3 hPa 0,0 l/m 12,0 km/h (2 Bft) W 263 0 min 0,000 mm 0,0 UV-I 0 W/m 15,1 C 13,7 C 17,7 km/h (3 Bft) 95,74 %
01.09.2017 01:20 16,2 C 23,9 C 93 % 1016,3 hPa 0,0 l/m 7,7 km/h (2 Bft) W-SW 242 0 min 0,000 mm 0,0 UV-I 0 W/m 15,1 C 15,5 C 12,9 km/h (3 Bft) 95,74 %
01.09.2017 01:22 16,2 C 23,9 C 93 % 1016,2 hPa 0,0 l/m 7,9 km/h (2 Bft) W-SW 258 0 min 0,000 mm 0,0 UV-I 0 W/m 15,1 C 15,4 C 14,5 km/h (3 Bft) 97,22 %
01.09.2017 01:24 16,1 C 23,9 C 93 % 1016,2 hPa 0,2 l/m 9,5 km/h (2 Bft) W-SW 252 0 min 0,000 mm 0,0 UV-I 0 W/m 15,0 C 14,6 C 16,1 km/h (3 Bft) 96,00 %
01.09.2017 01:26 16,1 C 23,9 C 93 % 1016,2 hPa 0,0 l/m 10,6 km/h (2 Bft) W-SW 253 0 min 0,000 mm 0,0 UV-I 0 W/m 15,0 C 14,1 C 16,1 km/h (3 Bft) 95,74 %
01.09.2017 01:28 16,1 C 23,9 C 93 % 1016,2 hPa 0,0 l/m 12,6 km/h (3 Bft) SW 222 0 min 0,000 mm 0,0 UV-I 0 W/m 15,0 C 13,3 C 22,5 km/h (4 Bft) 97,87 %
01.09.2017 01:30 16,0 C 23,9 C 93 % 1016,1 hPa 0,0 l/m 12,0 km/h (2 Bft) W-SW 240 0 min 0,000 mm 0,0 UV-I 0 W/m 14,9 C 13,4 C 17,7 km/h (3 Bft) 98,00 %
01.09.2017 01:32 16,0 C 23,9 C 93 % 1016,1 hPa 0,0 l/m 12,9 km/h (3 Bft) W-SW 248 0 min 0,000 mm 0,0 UV-I 0 W/m 14,9 C 13,1 C 17,7 km/h (3 Bft) 95,74 %
01.09.2017 01:34 15,9 C 23,9 C 93 % 1016,1 hPa 0,0 l/m 14,2 km/h (3 Bft) W-SW 245 0 min 0,000 mm 0,0 UV-I 0 W/m 14,8 C 12,5 C 20,9 km/h (4 Bft) 100,00 %
01.09.2017 01:36 15,9 C 23,9 C 93 % 1016,1 hPa 0,0 l/m 10,8 km/h (2 Bft) SW 223 0 min 0,000 mm 0,0 UV-I 0 W/m 14,8 C 13,8 C 16,1 km/h (3 Bft) 100,00 %
01.09.2017 01:38 15,9 C 23,9 C 93 % 1016,1 hPa 0,0 l/m 13,4 km/h (3 Bft) SW 233 0 min 0,000 mm 0,0 UV-I 0 W/m 14,8 C 12,8 C 19,3 km/h (3 Bft) 100,00 %
01.09.2017 01:40 15,9 C 23,9 C 94 % 1016,0 hPa 0,0 l/m 8,7 km/h (2 Bft) SW 222 0 min 0,000 mm 0,0 UV-I 0 W/m 14,9 C 14,7 C 14,5 km/h (3 Bft) 97,87 %
01.09.2017 01:42 15,9 C 23,9 C 94 % 1015,9 hPa 0,0 l/m 11,0 km/h (2 Bft) W 261 0 min 0,000 mm 0,0 UV-I 0 W/m 14,9 C 13,7 C 17,7 km/h (3 Bft) 97,37 %
01.09.2017 01:44 15,9 C 23,9 C 94 % 1015,9 hPa 0,0 l/m 11,5 km/h (2 Bft) W-SW 255 0 min 0,000 mm 0,0 UV-I 0 W/m 14,9 C 13,5 C 16,1 km/h (3 Bft) 97,87 %
01.09.2017 01:46 15,8 C 23,9 C 94 % 1015,9 hPa 0,0 l/m 11,4 km/h (2 Bft) W-SW 254 0 min 0,000 mm 0,0 UV-I 0 W/m 14,8 C 13,4 C 17,7 km/h (3 Bft) 97,92 %
01.09.2017 01:48 15,8 C 23,9 C 94 % 1015,9 hPa 0,0 l/m 10,6 km/h (2 Bft) SW 229 0 min 0,000 mm 0,0 UV-I 0 W/m 14,8 C 13,7 C 17,7 km/h (3 Bft) 95,74 %
01.09.2017 01:50 15,8 C 23,9 C 94 % 1015,8 hPa 0,0 l/m 8,0 km/h (2 Bft) SW 234 0 min 0,000 mm 0,0 UV-I 0 W/m 14,8 C 14,9 C 12,9 km/h (3 Bft) 100,00 %
01.09.2017 01:52 15,8 C 23,9 C 94 % 1015,8 hPa 0,0 l/m 10,4 km/h (2 Bft) SW 230 0 min 0,000 mm 0,0 UV-I 0 W/m 14,8 C 13,8 C 16,1 km/h (3 Bft) 100,00 %
01.09.2017 01:54 15,8 C 23,9 C 94 % 1015,8 hPa 0,0 l/m 7,7 km/h (2 Bft) SW 234 0 min 0,000 mm 0,0 UV-I 0 W/m 14,8 C 15,1 C 14,5 km/h (3 Bft) 97,87 %
01.09.2017 01:56 15,8 C 23,9 C 94 % 1015,8 hPa 0,2 l/m 10,5 km/h (2 Bft) SW 235 0 min 0,000 mm 0,0 UV-I 0 W/m 14,8 C 13,8 C 17,7 km/h (3 Bft) 100,00 %
01.09.2017 01:58 15,8 C 23,9 C 94 % 1015,8 hPa 0,0 l/m 12,3 km/h (3 Bft) SW 231 0 min 0,000 mm 0,0 UV-I 0 W/m 14,8 C 13,1 C 20,9 km/h (4 Bft) 100,00 %
01.09.2017 02:00 15,8 C 23,9 C 94 % 1015,7 hPa 0,0 l/m 10,7 km/h (2 Bft) W 275 0 min 0,000 mm 0,0 UV-I 0 W/m 14,8 C 13,7 C 14,5 km/h (3 Bft) 98,00 %
01.09.2017 02:02 15,8 C 23,9 C 94 % 1015,8 hPa 0,0 l/m 10,2 km/h (2 Bft) W-SW 251 0 min 0,000 mm 0,0 UV-I 0 W/m 14,8 C 13,9 C 17,7 km/h (3 Bft) 95,83 %
01.09.2017 02:04 15,8 C 23,9 C 94 % 1015,8 hPa 0,0 l/m 10,7 km/h (2 Bft) SW 234 0 min 0,000 mm 0,0 UV-I 0 W/m 14,8 C 13,7 C 16,1 km/h (3 Bft) 97,87 %
01.09.2017 02:06 15,8 C 23,9 C 94 % 1015,8 hPa 0,0 l/m 9,9 km/h (2 Bft) W-SW 249 0 min 0,000 mm 0,0 UV-I 0 W/m 14,8 C 14,0 C 16,1 km/h (3 Bft) 97,87 %
01.09.2017 02:08 15,7 C 23,9 C 94 % 1015,8 hPa 0,0 l/m 10,0 km/h (2 Bft) W-SW 254 0 min 0,000 mm 0,0 UV-I 0 W/m 14,7 C 13,9 C 14,5 km/h (3 Bft) 97,87 %
01.09.2017 02:10 15,8 C 23,9 C 94 % 1015,8 hPa 0,0 l/m 8,6 km/h (2 Bft) W-SW 252 0 min 0,000 mm 0,0 UV-I 0 W/m 14,8 C 14,6 C 17,7 km/h (3 Bft) 95,74 %
01.09.2017 02:12 15,7 C 23,9 C 94 % 1015,8 hPa 0,0 l/m 7,6 km/h (2 Bft) SW 233 0 min 0,000 mm 0,0 UV-I 0 W/m 14,7 C 15,0 C 12,9 km/h (3 Bft) 96,00 %
01.09.2017 02:14 15,8 C 23,9 C 95 % 1015,8 hPa 0,0 l/m 8,9 km/h (2 Bft) W-SW 254 0 min 0,000 mm 0,0 UV-I 0 W/m 15,0 C 14,5 C 12,9 km/h (3 Bft) 95,74 %
01.09.2017 02:16 15,8 C 23,9 C 95 % 1015,8 hPa 0,2 l/m 8,2 km/h (2 Bft) W-SW 254 0 min 0,000 mm 0,0 UV-I 0 W/m 15,0 C 14,8 C 12,9 km/h (3 Bft) 97,87 %
01.09.2017 02:18 15,7 C 23,3 C 95 % 1015,8 hPa 0,0 l/m 8,6 km/h (2 Bft) SW 227 0 min 0,000 mm 0,0 UV-I 0 W/m 14,9 C 14,5 C 14,5 km/h (3 Bft) 94,29 %
01.09.2017 02:20 15,7 C 23,3 C 95 % 1015,8 hPa 0,0 l/m 8,3 km/h (2 Bft) SW 224 0 min 0,000 mm 0,0 UV-I 0 W/m 14,9 C 14,7 C 14,5 km/h (3 Bft) 98,00 %
01.09.2017 02:22 15,7 C 23,3 C 95 % 1015,7 hPa 0,0 l/m 9,6 km/h (2 Bft) W-SW 248 0 min 0,000 mm 0,0 UV-I 0 W/m 14,9 C 14,1 C 12,9 km/h (3 Bft) 97,87 %
01.09.2017 02:24 15,7 C 23,3 C 95 % 1015,7 hPa 0,0 l/m 6,6 km/h (2 Bft) SW 225 0 min 0,000 mm 0,0 UV-I 0 W/m 14,9 C 15,6 C 9,7 km/h (2 Bft) 96,23 %
01.09.2017 02:26 15,7 C 23,3 C 95 % 1015,7 hPa 0,0 l/m 7,0 km/h (2 Bft) W-SW 245 0 min 0,000 mm 0,0 UV-I 0 W/m 14,9 C 15,4 C 11,3 km/h (2 Bft) 93,62 %
01.09.2017 02:28 15,7 C 23,3 C 95 % 1015,7 hPa 0,0 l/m 7,6 km/h (2 Bft) SW 230 0 min 0,000 mm 0,0 UV-I 0 W/m 14,9 C 15,0 C 11,3 km/h (2 Bft) 97,87 %
01.09.2017 02:30 15,7 C 23,3 C 95 % 1015,7 hPa 0,0 l/m 7,6 km/h (2 Bft) SW 230 0 min 0,000 mm 0,0 UV-I 0 W/m 14,9 C 15,0 C 12,9 km/h (3 Bft) 94,74 %
01.09.2017 02:32 15,7 C 23,3 C 95 % 1015,7 hPa 0,0 l/m 8,5 km/h (2 Bft) SW 229 0 min 0,000 mm 0,0 UV-I 0 W/m 14,9 C 14,6 C 14,5 km/h (3 Bft) 98,00 %
01.09.2017 02:34 15,7 C 23,3 C 95 % 1015,7 hPa 0,0 l/m 7,8 km/h (2 Bft) SW 229 0 min 0,000 mm 0,0 UV-I 0 W/m 14,9 C 14,9 C 14,5 km/h (3 Bft) 97,87 %
01.09.2017 02:36 15,7 C 23,3 C 95 % 1015,7 hPa 0,0 l/m 8,7 km/h (2 Bft) SW 233 0 min 0,000 mm 0,0 UV-I 0 W/m 14,9 C 14,5 C 12,9 km/h (3 Bft) 95,74 %
01.09.2017 02:38 15,7 C 23,3 C 95 % 1015,7 hPa 0,2 l/m 8,0 km/h (2 Bft) S-SW 208 0 min 0,000 mm 0,0 UV-I 0 W/m 14,9 C 14,8 C 12,9 km/h (3 Bft) 97,87 %
01.09.2017 02:40 15,7 C 23,3 C 95 % 1015,6 hPa 0,0 l/m 7,6 km/h (2 Bft) SW 223 0 min 0,000 mm 0,0 UV-I 0 W/m 14,9 C 15,0 C 12,9 km/h (3 Bft) 97,92 %
01.09.2017 02:42 15,7 C 23,3 C 95 % 1015,6 hPa 0,0 l/m 6,3 km/h (2 Bft) W-SW 238 0 min 0,000 mm 0,0 UV-I 0 W/m 14,9 C 15,7 C 9,7 km/h (2 Bft) 97,87 %
01.09.2017 02:44 15,7 C 23,3 C 95 % 1015,6 hPa 0,2 l/m 4,6 km/h (1 Bft) SW 224 0 min 0,000 mm 0,0 UV-I 0 W/m 14,9 C 15,7 C 6,4 km/h (2 Bft) 98,00 %
01.09.2017 02:46 15,7 C 23,3 C 95 % 1015,6 hPa 0,0 l/m 6,8 km/h (2 Bft) SW 221 0 min 0,000 mm 0,0 UV-I 0 W/m 14,9 C 15,5 C 11,3 km/h (2 Bft) 95,74 %
01.09.2017 02:48 15,7 C 23,3 C 95 % 1015,6 hPa 0,0 l/m 6,8 km/h (2 Bft) SW 234 0 min 0,000 mm 0,0 UV-I 0 W/m 14,9 C 15,5 C 11,3 km/h (2 Bft) 97,87 %
01.09.2017 02:50 15,7 C 23,3 C 95 % 1015,6 hPa 0,0 l/m 8,1 km/h (2 Bft) SW 226 0 min 0,000 mm 0,0 UV-I 0 W/m 14,9 C 14,8 C 12,9 km/h (3 Bft) 95,74 %
01.09.2017 02:52 15,7 C 23,3 C 95 % 1015,6 hPa 0,0 l/m 9,4 km/h (2 Bft) W 260 0 min 0,000 mm 0,0 UV-I 0 W/m 14,9 C 14,2 C 14,5 km/h (3 Bft) 97,37 %
01.09.2017 02:54 15,7 C 23,3 C 95 % 1015,5 hPa 0,0 l/m 6,4 km/h (2 Bft) W-SW 244 0 min 0,000 mm 0,0 UV-I 0 W/m 14,9 C 15,7 C 9,7 km/h (2 Bft) 98,00 %
01.09.2017 02:56 15,7 C 23,3 C 95 % 1015,5 hPa 0,2 l/m 6,6 km/h (2 Bft) W-SW 250 0 min 0,000 mm 0,0 UV-I 0 W/m 14,9 C 15,6 C 11,3 km/h (2 Bft) 97,87 %
01.09.2017 02:58 15,7 C 23,3 C 95 % 1015,5 hPa 0,0 l/m 7,2 km/h (2 Bft) SW 233 0 min 0,000 mm 0,0 UV-I 0 W/m 14,9 C 15,3 C 11,3 km/h (2 Bft) 95,74 %
01.09.2017 03:00 15,7 C 23,3 C 95 % 1015,5 hPa 0,0 l/m 4,1 km/h (1 Bft) W-SW 255 0 min 0,000 mm 0,0 UV-I 0 W/m 14,9 C 15,7 C 6,4 km/h (2 Bft) 96,00 %
01.09.2017 03:02 15,7 C 23,3 C 95 % 1015,5 hPa 0,2 l/m 6,9 km/h (2 Bft) W-SW 239 0 min 0,000 mm 0,0 UV-I 0 W/m 14,9 C 15,4 C 9,7 km/h (2 Bft) 95,74 %
01.09.2017 03:04 15,7 C 23,3 C 95 % 1015,5 hPa 0,0 l/m 7,6 km/h (2 Bft) W-SW 245 0 min 0,000 mm 0,0 UV-I 0 W/m 14,9 C 15,0 C 14,5 km/h (3 Bft) 97,87 %
01.09.2017 03:06 15,7 C 23,3 C 95 % 1015,5 hPa 0,0 l/m 9,0 km/h (2 Bft) SW 220 0 min 0,000 mm 0,0 UV-I 0 W/m 14,9 C 14,3 C 16,1 km/h (3 Bft) 97,87 %
01.09.2017 03:08 15,6 C 23,3 C 95 % 1015,5 hPa 0,0 l/m 5,8 km/h (2 Bft) W-SW 254 0 min 0,000 mm 0,0 UV-I 0 W/m 14,8 C 15,6 C 12,9 km/h (3 Bft) 95,83 %
01.09.2017 03:10 15,6 C 23,3 C 95 % 1015,5 hPa 0,0 l/m 7,2 km/h (2 Bft) W-SW 258 0 min 0,000 mm 0,0 UV-I 0 W/m 14,8 C 15,2 C 14,5 km/h (3 Bft) 97,87 %
01.09.2017 03:12 15,6 C 23,3 C 95 % 1015,5 hPa 0,2 l/m 6,1 km/h (2 Bft) W-SW 240 0 min 0,000 mm 0,0 UV-I 0 W/m 14,8 C 15,6 C 9,7 km/h (2 Bft) 97,44 %
01.09.2017 03:14 15,6 C 23,3 C 95 % 1015,5 hPa 0,0 l/m 7,2 km/h (2 Bft) W 265 0 min 0,000 mm 0,0 UV-I 0 W/m 14,8 C 15,2 C 12,9 km/h (3 Bft) 95,74 %
01.09.2017 03:16 15,6 C 23,3 C 95 % 1015,5 hPa 0,0 l/m 6,8 km/h (2 Bft) W-SW 240 0 min 0,000 mm 0,0 UV-I 0 W/m 14,8 C 15,4 C 11,3 km/h (2 Bft) 97,92 %
01.09.2017 03:18 15,6 C 23,3 C 95 % 1015,5 hPa 0,2 l/m 9,9 km/h (2 Bft) SW 229 0 min 0,000 mm 0,0 UV-I 0 W/m 14,8 C 13,8 C 17,7 km/h (3 Bft) 97,92 %
01.09.2017 03:20 15,6 C 23,3 C 95 % 1015,4 hPa 0,0 l/m 6,3 km/h (2 Bft) W-SW 237 0 min 0,000 mm 0,0 UV-I 0 W/m 14,8 C 15,6 C 9,7 km/h (2 Bft) 97,87 %
01.09.2017 03:22 15,6 C 23,3 C 95 % 1015,4 hPa 0,0 l/m 5,4 km/h (1 Bft) W 267 0 min 0,000 mm 0,0 UV-I 0 W/m 14,8 C 15,6 C 8,0 km/h (2 Bft) 97,87 %
01.09.2017 03:24 15,6 C 23,3 C 95 % 1015,3 hPa 0,0 l/m 6,5 km/h (2 Bft) SW 223 0 min 0,000 mm 0,0 UV-I 0 W/m 14,8 C 15,6 C 11,3 km/h (2 Bft) 97,87 %
01.09.2017 03:26 15,6 C 23,3 C 95 % 1015,3 hPa 0,2 l/m 8,2 km/h (2 Bft) SW 231 0 min 0,000 mm 0,0 UV-I 0 W/m 14,8 C 14,6 C 12,9 km/h (3 Bft) 96,00 %
01.09.2017 03:28 15,6 C 23,3 C 95 % 1015,3 hPa 0,0 l/m 6,7 km/h (2 Bft) W-SW 248 0 min 0,000 mm 0,0 UV-I 0 W/m 14,8 C 15,4 C 11,3 km/h (2 Bft) 98,00 %
01.09.2017 03:30 15,6 C 23,3 C 95 % 1015,3 hPa 0,2 l/m 7,6 km/h (2 Bft) W-SW 242 0 min 0,000 mm 0,0 UV-I 0 W/m 14,8 C 14,9 C 11,3 km/h (2 Bft) 100,00 %
01.09.2017 03:32 15,6 C 23,3 C 95 % 1015,3 hPa 0,0 l/m 6,1 km/h (2 Bft) W-SW 244 0 min 0,000 mm 0,0 UV-I 0 W/m 14,8 C 15,6 C 11,3 km/h (2 Bft) 100,00 %
01.09.2017 03:34 15,6 C 23,3 C 95 % 1015,3 hPa 0,0 l/m 6,5 km/h (2 Bft) W-NW 283 0 min 0,000 mm 0,0 UV-I 0 W/m 14,8 C 15,6 C 9,7 km/h (2 Bft) 100,00 %
01.09.2017 03:36 15,6 C 23,3 C 95 % 1015,4 hPa 0,0 l/m 6,0 km/h (2 Bft) W-SW 240 0 min 0,000 mm 0,0 UV-I 0 W/m 14,8 C 15,6 C 9,7 km/h (2 Bft) 97,87 %
01.09.2017 03:38 15,6 C 23,3 C 95 % 1015,4 hPa 0,2 l/m 10,5 km/h (2 Bft) W-SW 248 0 min 0,000 mm 0,0 UV-I 0 W/m 14,8 C 13,6 C 16,1 km/h (3 Bft) 100,00 %
01.09.2017 03:40 15,6 C 23,3 C 95 % 1015,4 hPa 0,0 l/m 7,2 km/h (2 Bft) SW 219 0 min 0,000 mm 0,0 UV-I 0 W/m 14,8 C 15,2 C 14,5 km/h (3 Bft) 100,00 %
01.09.2017 03:42 15,5 C 23,3 C 96 % 1015,5 hPa 0,0 l/m 7,3 km/h (2 Bft) SW 234 0 min 0,000 mm 0,0 UV-I 0 W/m 14,9 C 15,0 C 14,5 km/h (3 Bft) 97,92 %
01.09.2017 03:44 15,5 C 23,3 C 96 % 1015,6 hPa 0,0 l/m 6,9 km/h (2 Bft) W-SW 239 0 min 0,000 mm 0,0 UV-I 0 W/m 14,9 C 15,2 C 9,7 km/h (2 Bft) 100,00 %
01.09.2017 03:46 15,5 C 23,3 C 96 % 1015,6 hPa 0,0 l/m 6,7 km/h (2 Bft) W-SW 242 0 min 0,000 mm 0,0 UV-I 0 W/m 14,9 C 15,3 C 14,5 km/h (3 Bft) 100,00 %
01.09.2017 03:48 15,5 C 23,3 C 96 % 1015,6 hPa 0,2 l/m 9,1 km/h (2 Bft) W-SW 252 0 min 0,000 mm 0,0 UV-I 0 W/m 14,9 C 14,1 C 12,9 km/h (3 Bft) 100,00 %
01.09.2017 03:50 15,5 C 23,3 C 96 % 1015,6 hPa 0,0 l/m 5,9 km/h (2 Bft) W 271 0 min 0,000 mm 0,0 UV-I 0 W/m 14,9 C 15,5 C 9,7 km/h (2 Bft) 98,00 %
01.09.2017 03:52 15,5 C 23,3 C 96 % 1015,6 hPa 0,0 l/m 8,0 km/h (2 Bft) W-SW 245 0 min 0,000 mm 0,0 UV-I 0 W/m 14,9 C 14,6 C 11,3 km/h (2 Bft) 100,00 %
01.09.2017 03:54 15,5 C 23,3 C 96 % 1015,7 hPa 0,0 l/m 7,8 km/h (2 Bft) W 265 0 min 0,000 mm 0,0 UV-I 0 W/m 14,9 C 14,7 C 12,9 km/h (3 Bft) 100,00 %
01.09.2017 03:56 15,5 C 23,3 C 96 % 1015,6 hPa 0,0 l/m 4,6 km/h (1 Bft) SW 234 0 min 0,000 mm 0,0 UV-I 0 W/m 14,9 C 15,5 C 8,0 km/h (2 Bft) 100,00 %
01.09.2017 03:58 15,6 C 23,3 C 96 % 1015,7 hPa 0,0 l/m 6,7 km/h (2 Bft) SW 236 0 min 0,000 mm 0,0 UV-I 0 W/m 15,0 C 15,4 C 9,7 km/h (2 Bft) 100,00 %
01.09.2017 04:00 15,5 C 23,3 C 96 % 1015,7 hPa 0,2 l/m 5,4 km/h (1 Bft) S-SW 196 0 min 0,000 mm 0,0 UV-I 0 W/m 14,9 C 15,5 C 9,7 km/h (2 Bft) 100,00 %
01.09.2017 04:02 15,6 C 23,3 C 96 % 1015,5 hPa 0,0 l/m 8,8 km/h (2 Bft) SW 221 0 min 0,000 mm 0,0 UV-I 0 W/m 15,0 C 14,3 C 16,1 km/h (3 Bft) 100,00 %
01.09.2017 04:04 15,5 C 23,3 C 96 % 1015,5 hPa 0,0 l/m 5,9 km/h (2 Bft) SW 227 0 min 0,000 mm 0,0 UV-I 0 W/m 14,9 C 15,5 C 9,7 km/h (2 Bft) 100,00 %
01.09.2017 04:06 15,5 C 23,3 C 96 % 1015,5 hPa 0,2 l/m 8,5 km/h (2 Bft) W-SW 240 0 min 0,000 mm 0,0 UV-I 0 W/m 14,9 C 14,4 C 11,3 km/h (2 Bft) 100,00 %
01.09.2017 04:08 15,5 C 23,3 C 96 % 1015,4 hPa 0,0 l/m 8,1 km/h (2 Bft) W-SW 250 0 min 0,000 mm 0,0 UV-I 0 W/m 14,9 C 14,6 C 14,5 km/h (3 Bft) 97,87 %
01.09.2017 04:10 15,5 C 23,3 C 96 % 1015,5 hPa 0,0 l/m 6,8 km/h (2 Bft) W-SW 239 0 min 0,000 mm 0,0 UV-I 0 W/m 14,9 C 15,3 C 11,3 km/h (2 Bft) 97,87 %
01.09.2017 04:12 15,5 C 23,3 C 96 % 1015,5 hPa 0,0 l/m 7,2 km/h (2 Bft) W-SW 243 0 min 0,000 mm 0,0 UV-I 0 W/m 14,9 C 15,1 C 16,1 km/h (3 Bft) 97,87 %
01.09.2017 04:14 15,4 C 23,3 C 96 % 1015,5 hPa 0,0 l/m 7,8 km/h (2 Bft) SW 225 0 min 0,000 mm 0,0 UV-I 0 W/m 14,8 C 14,6 C 12,9 km/h (3 Bft) 100,00 %
01.09.2017 04:16 15,5 C 23,3 C 96 % 1015,5 hPa 0,0 l/m 6,5 km/h (2 Bft) SW 227 0 min 0,000 mm 0,0 UV-I 0 W/m 14,9 C 15,5 C 9,7 km/h (2 Bft) 97,87 %
01.09.2017 04:18 15,5 C 23,3 C 96 % 1015,5 hPa 0,0 l/m 6,8 km/h (2 Bft) W 261 0 min 0,000 mm 0,0 UV-I 0 W/m 14,9 C 15,3 C 11,3 km/h (2 Bft) 95,74 %
01.09.2017 04:20 15,5 C 23,3 C 96 % 1015,5 hPa 0,2 l/m 7,2 km/h (2 Bft) SW 229 0 min 0,000 mm 0,0 UV-I 0 W/m 14,9 C 15,1 C 12,9 km/h (3 Bft) 98,00 %
01.09.2017 04:22 15,5 C 23,3 C 96 % 1015,4 hPa 0,0 l/m 7,1 km/h (2 Bft) SW 221 0 min 0,000 mm 0,0 UV-I 0 W/m 14,9 C 15,1 C 11,3 km/h (2 Bft) 100,00 %
01.09.2017 04:24 15,5 C 23,3 C 96 % 1015,4 hPa 0,0 l/m 7,2 km/h (2 Bft) SW 234 0 min 0,000 mm 0,0 UV-I 0 W/m 14,9 C 15,1 C 11,3 km/h (2 Bft) 97,37 %
01.09.2017 04:26 15,5 C 23,3 C 96 % 1015,4 hPa 0,0 l/m 6,5 km/h (2 Bft) SW 217 0 min 0,000 mm 0,0 UV-I 0 W/m 14,9 C 15,5 C 11,3 km/h (2 Bft) 100,00 %
01.09.2017 04:28 15,5 C 23,3 C 96 % 1015,4 hPa 0,0 l/m 6,9 km/h (2 Bft) SW 231 0 min 0,000 mm 0,0 UV-I 0 W/m 14,9 C 15,2 C 12,9 km/h (3 Bft) 100,00 %
01.09.2017 04:30 15,5 C 23,3 C 96 % 1015,4 hPa 0,0 l/m 10,0 km/h (2 Bft) SW 229 0 min 0,000 mm 0,0 UV-I 0 W/m 14,9 C 13,7 C 16,1 km/h (3 Bft) 97,87 %
01.09.2017 04:32 15,5 C 23,3 C 96 % 1015,3 hPa 0,0 l/m 6,1 km/h (2 Bft) SW 231 0 min 0,000 mm 0,0 UV-I 0 W/m 14,9 C 15,5 C 8,0 km/h (2 Bft) 100,00 %
01.09.2017 04:34 15,5 C 23,3 C 96 % 1015,3 hPa 0,0 l/m 6,2 km/h (2 Bft) W-SW 241 0 min 0,000 mm 0,0 UV-I 0 W/m 14,9 C 15,5 C 11,3 km/h (2 Bft) 100,00 %
01.09.2017 04:36 15,5 C 23,3 C 96 % 1015,4 hPa 0,0 l/m 6,6 km/h (2 Bft) SW 233 0 min 0,000 mm 0,0 UV-I 0 W/m 14,9 C 15,4 C 11,3 km/h (2 Bft) 100,00 %
01.09.2017 04:38 15,5 C 23,3 C 96 % 1015,4 hPa 0,2 l/m 5,0 km/h (1 Bft) SW 234 0 min 0,000 mm 0,0 UV-I 0 W/m 14,9 C 15,5 C 6,4 km/h (2 Bft) 100,00 %
01.09.2017 04:40 15,5 C 23,3 C 96 % 1015,3 hPa 0,0 l/m 7,1 km/h (2 Bft) SW 223 0 min 0,000 mm 0,0 UV-I 0 W/m 14,9 C 15,1 C 11,3 km/h (2 Bft) 100,00 %
01.09.2017 04:42 15,5 C 23,3 C 96 % 1015,3 hPa 0,0 l/m 7,9 km/h (2 Bft) SW 228 0 min 0,000 mm 0,0 UV-I 0 W/m 14,9 C 14,7 C 12,9 km/h (3 Bft) 100,00 %
01.09.2017 04:44 15,5 C 23,3 C 96 % 1015,3 hPa 0,0 l/m 9,6 km/h (2 Bft) W-SW 240 0 min 0,000 mm 0,0 UV-I 0 W/m 14,9 C 13,8 C 14,5 km/h (3 Bft) 100,00 %
01.09.2017 04:46 15,4 C 23,3 C 96 % 1015,3 hPa 0,0 l/m 11,6 km/h (2 Bft) W-SW 245 0 min 0,000 mm 0,0 UV-I 0 W/m 14,8 C 12,9 C 17,7 km/h (3 Bft) 100,00 %
01.09.2017 04:48 15,4 C 23,3 C 96 % 1015,3 hPa 0,0 l/m 7,2 km/h (2 Bft) SW 221 0 min 0,000 mm 0,0 UV-I 0 W/m 14,8 C 15,0 C 12,9 km/h (3 Bft) 100,00 %
01.09.2017 04:50 15,4 C 23,3 C 96 % 1015,2 hPa 0,0 l/m 6,7 km/h (2 Bft) W-SW 248 0 min 0,000 mm 0,0 UV-I 0 W/m 14,8 C 15,2 C 11,3 km/h (2 Bft) 100,00 %
01.09.2017 04:52 15,4 C 23,3 C 96 % 1015,2 hPa 0,0 l/m 8,3 km/h (2 Bft) W-SW 252 0 min 0,000 mm 0,0 UV-I 0 W/m 14,8 C 14,4 C 12,9 km/h (3 Bft) 95,74 %
01.09.2017 04:54 15,4 C 23,3 C 96 % 1015,2 hPa 0,2 l/m 7,2 km/h (2 Bft) W 268 0 min 0,000 mm 0,0 UV-I 0 W/m 14,8 C 15,0 C 12,9 km/h (3 Bft) 100,00 %
01.09.2017 04:56 15,4 C 23,3 C 96 % 1015,1 hPa 0,0 l/m 7,4 km/h (2 Bft) SW 228 0 min 0,000 mm 0,0 UV-I 0 W/m 14,8 C 14,8 C 11,3 km/h (2 Bft) 97,87 %
01.09.2017 04:58 15,4 C 23,3 C 96 % 1015,1 hPa 0,0 l/m 4,7 km/h (1 Bft) SW 236 0 min 0,000 mm 0,0 UV-I 0 W/m 14,8 C 15,4 C 8,0 km/h (2 Bft) 95,74 %
01.09.2017 05:00 15,4 C 23,3 C 96 % 1015,1 hPa 0,0 l/m 5,2 km/h (1 Bft) W-SW 248 0 min 0,000 mm 0,0 UV-I 0 W/m 14,8 C 15,4 C 8,0 km/h (2 Bft) 97,87 %
01.09.2017 05:02 15,4 C 23,3 C 96 % 1015,1 hPa 0,0 l/m 5,8 km/h (2 Bft) W-SW 256 0 min 0,000 mm 0,0 UV-I 0 W/m 14,8 C 15,4 C 11,3 km/h (2 Bft) 96,00 %
01.09.2017 05:04 15,4 C 23,3 C 96 % 1015,1 hPa 0,0 l/m 5,2 km/h (1 Bft) S-SW 200 0 min 0,000 mm 0,0 UV-I 0 W/m 14,8 C 15,4 C 8,0 km/h (2 Bft) 96,00 %
01.09.2017 05:06 15,4 C 23,3 C 96 % 1015,0 hPa 0,2 l/m 5,6 km/h (1 Bft) W-SW 238 0 min 0,000 mm 0,0 UV-I 0 W/m 14,8 C 15,4 C 8,0 km/h (2 Bft) 97,87 %
01.09.2017 05:08 15,4 C 23,3 C 96 % 1015,0 hPa 0,0 l/m 4,4 km/h (1 Bft) SW 229 0 min 0,000 mm 0,0 UV-I 0 W/m 14,8 C 15,4 C 8,0 km/h (2 Bft) 91,49 %
01.09.2017 05:10 15,4 C 23,3 C 96 % 1015,0 hPa 0,0 l/m 6,0 km/h (2 Bft) SW 229 0 min 0,000 mm 0,0 UV-I 0 W/m 14,8 C 15,4 C 9,7 km/h (2 Bft) 100,00 %
01.09.2017 05:12 15,4 C 23,3 C 96 % 1015,0 hPa 0,0 l/m 7,4 km/h (2 Bft) SW 233 0 min 0,000 mm 0,0 UV-I 0 W/m 14,8 C 14,8 C 12,9 km/h (3 Bft) 95,74 %
01.09.2017 05:14 15,4 C 23,3 C 96 % 1015,0 hPa 0,0 l/m 5,9 km/h (2 Bft) S-SW 212 0 min 0,000 mm 0,0 UV-I 0 W/m 14,8 C 15,4 C 9,7 km/h (2 Bft) 97,92 %
01.09.2017 05:16 15,4 C 23,3 C 96 % 1015,0 hPa 0,0 l/m 6,6 km/h (2 Bft) S-SW 204 0 min 0,000 mm 0,0 UV-I 0 W/m 14,8 C 15,3 C 9,7 km/h (2 Bft) 97,87 %
01.09.2017 05:18 15,4 C 23,3 C 96 % 1015,0 hPa 0,0 l/m 5,8 km/h (2 Bft) SW 218 0 min 0,000 mm 0,0 UV-I 0 W/m 14,8 C 15,4 C 9,7 km/h (2 Bft) 97,87 %
01.09.2017 05:20 15,4 C 23,3 C 96 % 1014,9 hPa 0,0 l/m 6,9 km/h (2 Bft) SW 236 0 min 0,000 mm 0,0 UV-I 0 W/m 14,8 C 15,1 C 11,3 km/h (2 Bft) 97,87 %
01.09.2017 05:22 15,4 C 23,3 C 96 % 1014,9 hPa 0,0 l/m 6,5 km/h (2 Bft) SW 236 0 min 0,000 mm 0,0 UV-I 0 W/m 14,8 C 15,4 C 9,7 km/h (2 Bft) 97,87 %
01.09.2017 05:24 15,4 C 23,3 C 96 % 1014,9 hPa 0,2 l/m 6,8 km/h (2 Bft) SW 229 0 min 0,000 mm 0,0 UV-I 0 W/m 14,8 C 15,2 C 9,7 km/h (2 Bft) 98,00 %
01.09.2017 05:26 15,4 C 23,3 C 96 % 1014,8 hPa 0,2 l/m 5,8 km/h (2 Bft) SW 223 0 min 0,000 mm 0,0 UV-I 0 W/m 14,8 C 15,4 C 9,7 km/h (2 Bft) 97,87 %
01.09.2017 05:28 15,4 C 23,3 C 96 % 1014,8 hPa 0,0 l/m 5,6 km/h (1 Bft) W 266 0 min 0,000 mm 0,0 UV-I 0 W/m 14,8 C 15,4 C 9,7 km/h (2 Bft) 95,74 %
01.09.2017 05:30 15,4 C 23,3 C 96 % 1014,8 hPa 0,0 l/m 4,1 km/h (1 Bft) W-SW 250 0 min 0,000 mm 0,0 UV-I 0 W/m 14,8 C 15,4 C 6,4 km/h (2 Bft) 100,00 %
01.09.2017 05:32 15,4 C 23,3 C 96 % 1014,8 hPa 0,2 l/m 5,8 km/h (2 Bft) W-SW 247 0 min 0,000 mm 0,0 UV-I 0 W/m 14,8 C 15,4 C 11,3 km/h (2 Bft) 97,87 %
01.09.2017 05:34 15,4 C 23,3 C 96 % 1014,8 hPa 0,0 l/m 5,1 km/h (1 Bft) W-SW 239 0 min 0,000 mm 0,0 UV-I 0 W/m 14,8 C 15,4 C 6,4 km/h (2 Bft) 100,00 %
01.09.2017 05:36 15,4 C 23,3 C 96 % 1014,8 hPa 0,2 l/m 5,7 km/h (1 Bft) W-SW 244 0 min 0,000 mm 0,0 UV-I 0 W/m 14,8 C 15,4 C 9,7 km/h (2 Bft) 97,87 %
01.09.2017 05:38 15,4 C 23,3 C 96 % 1014,8 hPa 0,0 l/m 8,6 km/h (2 Bft) SW 227 0 min 0,000 mm 0,0 UV-I 0 W/m 14,8 C 14,2 C 14,5 km/h (3 Bft) 97,87 %
01.09.2017 05:40 15,4 C 23,3 C 96 % 1014,8 hPa 0,0 l/m 6,4 km/h (2 Bft) SW 223 0 min 0,000 mm 0,0 UV-I 0 W/m 14,8 C 15,4 C 9,7 km/h (2 Bft) 100,00 %
01.09.2017 05:42 15,4 C 23,3 C 96 % 1014,7 hPa 0,2 l/m 9,4 km/h (2 Bft) W-SW 239 0 min 0,000 mm 0,0 UV-I 0 W/m 14,8 C 13,8 C 14,5 km/h (3 Bft) 100,00 %
01.09.2017 05:44 15,4 C 23,3 C 96 % 1014,8 hPa 0,0 l/m 8,5 km/h (2 Bft) SW 235 0 min 0,000 mm 0,0 UV-I 0 W/m 14,8 C 14,3 C 14,5 km/h (3 Bft) 97,87 %
01.09.2017 05:46 15,4 C 23,3 C 96 % 1014,8 hPa 0,2 l/m 8,1 km/h (2 Bft) SW 222 0 min 0,000 mm 0,0 UV-I 0 W/m 14,8 C 14,5 C 14,5 km/h (3 Bft) 100,00 %
01.09.2017 05:48 15,4 C 23,3 C 96 % 1014,7 hPa 0,0 l/m 7,8 km/h (2 Bft) SW 234 0 min 0,000 mm 0,0 UV-I 0 W/m 14,8 C 14,6 C 14,5 km/h (3 Bft) 93,62 %
01.09.2017 05:50 15,4 C 23,3 C 96 % 1014,7 hPa 0,0 l/m 8,2 km/h (2 Bft) SW 236 0 min 0,000 mm 0,0 UV-I 0 W/m 14,8 C 14,4 C 14,5 km/h (3 Bft) 97,73 %
01.09.2017 05:52 15,4 C 23,3 C 96 % 1014,7 hPa 0,2 l/m 9,4 km/h (2 Bft) W-SW 240 0 min 0,000 mm 0,0 UV-I 0 W/m 14,8 C 13,8 C 14,5 km/h (3 Bft) 97,87 %
01.09.2017 05:54 15,3 C 23,3 C 96 % 1014,7 hPa 0,0 l/m 8,5 km/h (2 Bft) SW 221 0 min 0,000 mm 0,0 UV-I 0 W/m 14,7 C 14,2 C 12,9 km/h (3 Bft) 97,87 %
01.09.2017 05:56 15,3 C 23,3 C 96 % 1014,7 hPa 0,2 l/m 8,5 km/h (2 Bft) S-SW 207 0 min 0,000 mm 0,0 UV-I 0 W/m 14,7 C 14,2 C 12,9 km/h (3 Bft) 97,92 %
01.09.2017 05:58 15,3 C 23,3 C 96 % 1014,7 hPa 0,0 l/m 6,9 km/h (2 Bft) SW 219 0 min 0,000 mm 0,0 UV-I 0 W/m 14,7 C 15,0 C 11,3 km/h (2 Bft) 95,74 %
01.09.2017 06:00 15,3 C 23,3 C 96 % 1014,7 hPa 0,0 l/m 7,6 km/h (2 Bft) SW 231 0 min 0,000 mm 0,0 UV-I 0 W/m 14,7 C 14,6 C 12,9 km/h (3 Bft) 94,00 %
01.09.2017 06:02 15,3 C 23,3 C 96 % 1014,7 hPa 0,2 l/m 8,9 km/h (2 Bft) SW 219 0 min 0,000 mm 0,0 UV-I 0 W/m 14,7 C 14,0 C 16,1 km/h (3 Bft) 98,00 %
01.09.2017 06:04 15,3 C 23,3 C 96 % 1014,7 hPa 0,0 l/m 9,5 km/h (2 Bft) SW 217 0 min 0,000 mm 0,0 UV-I 0 W/m 14,7 C 13,7 C 14,5 km/h (3 Bft) 97,37 %
01.09.2017 06:06 15,3 C 23,3 C 96 % 1014,7 hPa 0,2 l/m 9,7 km/h (2 Bft) SW 226 0 min 0,000 mm 0,0 UV-I 0 W/m 14,7 C 13,6 C 17,7 km/h (3 Bft) 98,00 %
01.09.2017 06:08 15,3 C 23,3 C 96 % 1014,7 hPa 0,0 l/m 8,3 km/h (2 Bft) W-SW 257 0 min 0,000 mm 0,0 UV-I 0 W/m 14,7 C 14,3 C 11,3 km/h (2 Bft) 97,87 %
01.09.2017 06:10 15,3 C 23,3 C 96 % 1014,7 hPa 0,0 l/m 8,9 km/h (2 Bft) W-SW 243 0 min 0,000 mm 0,0 UV-I 0 W/m 14,7 C 14,0 C 12,9 km/h (3 Bft) 97,87 %
01.09.2017 06:12 15,3 C 23,3 C 96 % 1014,6 hPa 0,2 l/m 7,8 km/h (2 Bft) SW 231 0 min 0,000 mm 0,0 UV-I 0 W/m 14,7 C 14,5 C 14,5 km/h (3 Bft) 97,14 %
01.09.2017 06:14 15,3 C 23,3 C 96 % 1014,6 hPa 0,0 l/m 7,1 km/h (2 Bft) SW 219 0 min 0,000 mm 0,0 UV-I 0 W/m 14,7 C 14,9 C 12,9 km/h (3 Bft) 98,15 %
01.09.2017 06:16 15,3 C 23,3 C 96 % 1014,6 hPa 0,2 l/m 6,9 km/h (2 Bft) W 264 0 min 0,000 mm 0,0 UV-I 0 W/m 14,7 C 15,0 C 14,5 km/h (3 Bft) 98,00 %
01.09.2017 06:18 15,3 C 23,3 C 96 % 1014,7 hPa 0,2 l/m 6,4 km/h (2 Bft) SW 235 0 min 0,000 mm 0,0 UV-I 0 W/m 14,7 C 15,3 C 12,9 km/h (3 Bft) 98,00 %
01.09.2017 06:20 15,3 C 23,3 C 96 % 1014,7 hPa 0,0 l/m 7,7 km/h (2 Bft) SW 225 0 min 0,000 mm 0,0 UV-I 0 W/m 14,7 C 14,6 C 11,3 km/h (2 Bft) 95,74 %
01.09.2017 06:22 15,3 C 23,3 C 96 % 1014,6 hPa 0,2 l/m 8,6 km/h (2 Bft) S-SW 206 0 min 0,000 mm 0,0 UV-I 0 W/m 14,7 C 14,1 C 12,9 km/h (3 Bft) 95,74 %
01.09.2017 06:24 15,3 C 23,3 C 96 % 1014,6 hPa 0,2 l/m 8,8 km/h (2 Bft) W-SW 237 0 min 0,000 mm 0,0 UV-I 0 W/m 14,7 C 14,0 C 12,9 km/h (3 Bft) 97,87 %
01.09.2017 06:26 15,3 C 23,3 C 96 % 1014,7 hPa 0,0 l/m 7,7 km/h (2 Bft) W-SW 238 0 min 0,000 mm 0,0 UV-I 0 W/m 14,7 C 14,6 C 12,9 km/h (3 Bft) 97,14 %
01.09.2017 06:28 15,3 C 23,3 C 96 % 1014,7 hPa 0,2 l/m 8,1 km/h (2 Bft) W-SW 239 0 min 0,000 mm 0,0 UV-I 0 W/m 14,7 C 14,4 C 12,9 km/h (3 Bft) 98,00 %
01.09.2017 06:30 15,3 C 23,3 C 96 % 1014,7 hPa 0,0 l/m 9,9 km/h (2 Bft) SW 220 0 min 0,000 mm 0,0 UV-I 0 W/m 14,7 C 13,5 C 16,1 km/h (3 Bft) 97,87 %
01.09.2017 06:32 15,3 C 23,3 C 96 % 1014,7 hPa 0,0 l/m 7,5 km/h (2 Bft) SW 214 0 min 0,000 mm 0,0 UV-I 0 W/m 14,7 C 14,7 C 11,3 km/h (2 Bft) 98,00 %
01.09.2017 06:34 15,3 C 23,3 C 96 % 1014,7 hPa 0,2 l/m 7,4 km/h (2 Bft) SW 234 0 min 0,000 mm 0,0 UV-I 0 W/m 14,7 C 14,7 C 12,9 km/h (3 Bft) 97,44 %
01.09.2017 06:36 15,3 C 23,3 C 96 % 1014,7 hPa 0,2 l/m 8,2 km/h (2 Bft) W 262 0 min 0,000 mm 0,0 UV-I 5 W/m 14,7 C 14,3 C 11,3 km/h (2 Bft) 98,00 %
01.09.2017 06:38 15,2 C 23,3 C 96 % 1014,7 hPa 0,0 l/m 7,4 km/h (2 Bft) SW 217 0 min 0,000 mm 0,0 UV-I 5 W/m 14,6 C 14,6 C 11,3 km/h (2 Bft) 97,87 %
01.09.2017 06:40 15,2 C 23,3 C 96 % 1014,7 hPa 0,0 l/m 9,0 km/h (2 Bft) S-SW 204 0 min 0,000 mm 0,0 UV-I 5 W/m 14,6 C 13,8 C 12,9 km/h (3 Bft) 97,87 %
01.09.2017 06:42 15,2 C 23,3 C 96 % 1014,7 hPa 0,0 l/m 8,3 km/h (2 Bft) SW 217 0 min 0,000 mm 0,0 UV-I 5 W/m 14,6 C 14,2 C 16,1 km/h (3 Bft) 98,00 %
01.09.2017 06:44 15,2 C 23,3 C 96 % 1014,7 hPa 0,2 l/m 7,1 km/h (2 Bft) W-SW 258 0 min 0,000 mm 0,0 UV-I 5 W/m 14,6 C 14,8 C 11,3 km/h (2 Bft) 95,74 %
01.09.2017 06:46 15,2 C 23,3 C 96 % 1014,6 hPa 0,0 l/m 6,4 km/h (2 Bft) SW 236 0 min 0,000 mm 0,0 UV-I 5 W/m 14,6 C 15,2 C 12,9 km/h (3 Bft) 97,87 %
01.09.2017 06:48 15,2 C 23,3 C 96 % 1014,6 hPa 0,2 l/m 5,2 km/h (1 Bft) W-SW 242 0 min 0,000 mm 0,0 UV-I 5 W/m 14,6 C 15,2 C 11,3 km/h (2 Bft) 95,74 %
01.09.2017 06:50 15,2 C 23,3 C 96 % 1014,6 hPa 0,2 l/m 5,3 km/h (1 Bft) W-SW 244 0 min 0,000 mm 0,0 UV-I 5 W/m 14,6 C 15,2 C 8,0 km/h (2 Bft) 97,87 %
01.09.2017 06:52 15,2 C 23,3 C 96 % 1014,5 hPa 0,0 l/m 6,0 km/h (2 Bft) W-SW 254 0 min 0,000 mm 0,0 UV-I 5 W/m 14,6 C 15,2 C 11,3 km/h (2 Bft) 98,00 %
01.09.2017 06:54 15,2 C 23,3 C 96 % 1014,5 hPa 0,2 l/m 8,4 km/h (2 Bft) W-SW 248 0 min 0,000 mm 0,0 UV-I 5 W/m 14,6 C 14,1 C 12,9 km/h (3 Bft) 93,62 %
01.09.2017 06:56 15,2 C 23,3 C 96 % 1014,5 hPa 0,2 l/m 7,4 km/h (2 Bft) SW 229 0 min 0,000 mm 0,0 UV-I 7 W/m 14,6 C 14,6 C 12,9 km/h (3 Bft) 97,87 %
01.09.2017 06:58 15,2 C 23,3 C 96 % 1014,5 hPa 0,0 l/m 8,5 km/h (2 Bft) W-SW 237 0 min 0,000 mm 0,0 UV-I 7 W/m 14,6 C 14,1 C 12,9 km/h (3 Bft) 97,87 %
01.09.2017 07:00 15,2 C 23,3 C 96 % 1014,5 hPa 0,2 l/m 9,9 km/h (2 Bft) W-SW 242 0 min 0,000 mm 0,0 UV-I 8 W/m 14,6 C 13,4 C 14,5 km/h (3 Bft) 97,87 %
01.09.2017 07:02 15,2 C 23,3 C 97 % 1014,5 hPa 0,0 l/m 8,4 km/h (2 Bft) W-SW 246 0 min 0,000 mm 0,0 UV-I 8 W/m 14,7 C 14,1 C 12,9 km/h (3 Bft) 95,74 %
01.09.2017 07:04 15,2 C 23,3 C 97 % 1014,4 hPa 0,2 l/m 8,1 km/h (2 Bft) W-SW 253 0 min 0,000 mm 0,0 UV-I 7 W/m 14,7 C 14,3 C 12,9 km/h (3 Bft) 97,87 %
01.09.2017 07:06 15,2 C 23,3 C 97 % 1014,3 hPa 0,0 l/m 7,9 km/h (2 Bft) W-NW 291 0 min 0,000 mm 0,0 UV-I 9 W/m 14,7 C 14,4 C 12,9 km/h (3 Bft) 93,62 %
01.09.2017 07:08 15,2 C 23,3 C 97 % 1014,3 hPa 0,0 l/m 6,3 km/h (2 Bft) W-SW 257 0 min 0,000 mm 0,0 UV-I 10 W/m 14,7 C 15,2 C 11,3 km/h (2 Bft) 97,87 %
01.09.2017 07:10 15,2 C 23,3 C 96 % 1014,3 hPa 0,2 l/m 4,2 km/h (1 Bft) W-SW 256 0 min 0,000 mm 0,0 UV-I 11 W/m 14,6 C 15,2 C 11,3 km/h (2 Bft) 93,62 %
01.09.2017 07:12 15,2 C 23,3 C 96 % 1014,2 hPa 0,0 l/m 6,2 km/h (2 Bft) W-SW 237 0 min 0,000 mm 0,0 UV-I 13 W/m 14,6 C 15,2 C 12,9 km/h (3 Bft) 97,22 %
01.09.2017 07:14 15,2 C 23,3 C 97 % 1014,2 hPa 0,0 l/m 6,4 km/h (2 Bft) W-SW 250 0 min 0,000 mm 0,0 UV-I 16 W/m 14,7 C 15,2 C 11,3 km/h (2 Bft) 96,00 %
01.09.2017 07:16 15,2 C 23,3 C 97 % 1014,2 hPa 0,0 l/m 7,4 km/h (2 Bft) W 266 0 min 0,000 mm 0,0 UV-I 16 W/m 14,7 C 14,6 C 11,3 km/h (2 Bft) 98,00 %
01.09.2017 07:18 15,2 C 23,3 C 97 % 1014,2 hPa 0,2 l/m 5,0 km/h (1 Bft) W-SW 251 0 min 0,000 mm 0,0 UV-I 15 W/m 14,7 C 15,2 C 9,7 km/h (2 Bft) 93,62 %
01.09.2017 07:20 15,2 C 23,3 C 97 % 1014,2 hPa 0,0 l/m 4,5 km/h (1 Bft) W-SW 240 0 min 0,000 mm 0,0 UV-I 14 W/m 14,7 C 15,2 C 9,7 km/h (2 Bft) 97,87 %
01.09.2017 07:22 15,2 C 23,3 C 97 % 1014,2 hPa 0,2 l/m 6,6 km/h (2 Bft) W 263 0 min 0,000 mm 0,0 UV-I 13 W/m 14,7 C 15,1 C 11,3 km/h (2 Bft) 95,74 %
01.09.2017 07:24 15,2 C 23,3 C 97 % 1014,2 hPa 0,0 l/m 6,9 km/h (2 Bft) W-SW 244 0 min 0,000 mm 0,0 UV-I 12 W/m 14,7 C 14,9 C 14,5 km/h (3 Bft) 97,87 %
01.09.2017 07:26 15,2 C 22,8 C 97 % 1014,1 hPa 0,2 l/m 4,9 km/h (1 Bft) W 267 0 min 0,000 mm 0,0 UV-I 12 W/m 14,7 C 15,2 C 9,7 km/h (2 Bft) 97,87 %
01.09.2017 07:28 15,2 C 22,8 C 97 % 1014,2 hPa 0,0 l/m 3,5 km/h (1 Bft) SW 229 0 min 0,000 mm 0,0 UV-I 11 W/m 14,7 C 15,2 C 6,4 km/h (2 Bft) 96,00 %
01.09.2017 07:30 15,2 C 22,8 C 97 % 1014,2 hPa 0,0 l/m 6,8 km/h (2 Bft) SW 232 0 min 0,000 mm 0,0 UV-I 11 W/m 14,7 C 15,0 C 11,3 km/h (2 Bft) 100,00 %
01.09.2017 07:32 15,2 C 22,8 C 97 % 1014,2 hPa 0,0 l/m 6,3 km/h (2 Bft) W-SW 242 0 min 0,000 mm 0,0 UV-I 12 W/m 14,7 C 15,2 C 9,7 km/h (2 Bft) 100,00 %
01.09.2017 07:34 15,2 C 22,8 C 97 % 1014,1 hPa 0,0 l/m 5,2 km/h (1 Bft) W-SW 238 0 min 0,000 mm 0,0 UV-I 13 W/m 14,7 C 15,2 C 9,7 km/h (2 Bft) 93,62 %
01.09.2017 07:36 15,2 C 22,8 C 97 % 1014,1 hPa 0,0 l/m 3,4 km/h (1 Bft) W-SW 239 0 min 0,000 mm 0,0 UV-I 16 W/m 14,7 C 15,2 C 6,4 km/h (2 Bft) 93,62 %
01.09.2017 07:38 15,2 C 22,8 C 97 % 1014,1 hPa 0,2 l/m 5,5 km/h (1 Bft) W-SW 241 0 min 0,000 mm 0,0 UV-I 18 W/m 14,7 C 15,2 C 6,4 km/h (2 Bft) 95,74 %
01.09.2017 07:40 15,2 C 22,8 C 97 % 1014,1 hPa 0,0 l/m 4,9 km/h (1 Bft) W-SW 243 0 min 0,000 mm 0,0 UV-I 18 W/m 14,7 C 15,2 C 8,0 km/h (2 Bft) 97,87 %
01.09.2017 07:42 15,2 C 22,8 C 97 % 1014,0 hPa 0,0 l/m 2,9 km/h (1 Bft) W-SW 252 0 min 0,000 mm 0,0 UV-I 19 W/m 14,7 C 15,2 C 8,0 km/h (2 Bft) 100,00 %
01.09.2017 07:44 15,2 C 22,8 C 97 % 1014,0 hPa 0,0 l/m 2,2 km/h (1 Bft) W-SW 249 0 min 0,000 mm 0,0 UV-I 23 W/m 14,7 C 15,2 C 6,4 km/h (2 Bft) 100,00 %
01.09.2017 07:46 15,2 C 22,8 C 97 % 1014,0 hPa 0,0 l/m 1,9 km/h (1 Bft) W-SW 254 0 min 0,000 mm 0,0 UV-I 25 W/m 14,7 C 15,2 C 6,4 km/h (2 Bft) 97,87 %
01.09.2017 07:48 15,2 C 22,8 C 97 % 1014,0 hPa 0,0 l/m 2,0 km/h (1 Bft) W-SW 254 0 min 0,000 mm 0,0 UV-I 26 W/m 14,7 C 15,2 C 3,2 km/h (1 Bft) 100,00 %
01.09.2017 07:50 15,2 C 22,8 C 97 % 1014,0 hPa 0,0 l/m 3,6 km/h (1 Bft) W-SW 248 0 min 0,000 mm 0,0 UV-I 28 W/m 14,7 C 15,2 C 6,4 km/h (2 Bft) 100,00 %
01.09.2017 07:52 15,2 C 22,8 C 97 % 1014,0 hPa 0,0 l/m 3,5 km/h (1 Bft) W 260 0 min 0,000 mm 0,0 UV-I 29 W/m 14,7 C 15,2 C 6,4 km/h (2 Bft) 97,87 %
01.09.2017 07:54 15,2 C 22,8 C 97 % 1014,0 hPa 0,0 l/m 0,0 km/h (0 Bft) W 260 0 min 0,000 mm 0,0 UV-I 27 W/m 14,7 C 15,2 C 1,6 km/h (1 Bft) 97,87 %
01.09.2017 07:56 15,2 C 22,8 C 97 % 1014,0 hPa 0,0 l/m 0,1 km/h (0 Bft) W 266 0 min 0,000 mm 0,0 UV-I 22 W/m 14,7 C 15,2 C 1,6 km/h (1 Bft) 100,00 %
01.09.2017 07:58 15,2 C 22,8 C 97 % 1014,1 hPa 0,0 l/m 2,5 km/h (1 Bft) W 266 0 min 0,000 mm 0,0 UV-I 22 W/m 14,7 C 15,2 C 4,8 km/h (1 Bft) 100,00 %
01.09.2017 08:00 15,2 C 22,8 C 97 % 1014,1 hPa 0,0 l/m 0,4 km/h (0 Bft) W 265 0 min 0,000 mm 0,0 UV-I 25 W/m 14,7 C 15,2 C 1,6 km/h (1 Bft) 100,00 %
01.09.2017 08:02 15,2 C 22,8 C 97 % 1014,1 hPa 0,2 l/m 1,5 km/h (1 Bft) W 266 0 min 0,000 mm 0,0 UV-I 26 W/m 14,7 C 15,2 C 4,8 km/h (1 Bft) 97,87 %
01.09.2017 08:04 15,2 C 22,8 C 97 % 1014,2 hPa 0,0 l/m 4,4 km/h (1 Bft) W-SW 257 0 min 0,000 mm 0,0 UV-I 23 W/m 14,7 C 15,2 C 6,4 km/h (2 Bft) 97,87 %
01.09.2017 08:06 15,2 C 22,8 C 97 % 1014,3 hPa 0,0 l/m 2,8 km/h (1 Bft) W-SW 257 0 min 0,000 mm 0,0 UV-I 17 W/m 14,7 C 15,2 C 4,8 km/h (1 Bft) 100,00 %
01.09.2017 08:08 15,2 C 22,8 C 97 % 1014,4 hPa 0,0 l/m 0,2 km/h (0 Bft) W-SW 257 0 min 0,000 mm 0,0 UV-I 16 W/m 14,7 C 15,2 C 1,6 km/h (1 Bft) 100,00 %
01.09.2017 08:10 15,2 C 22,8 C 97 % 1014,4 hPa 0,0 l/m 3,0 km/h (1 Bft) NW 309 0 min 0,000 mm 0,0 UV-I 18 W/m 14,7 C 15,2 C 6,4 km/h (2 Bft) 98,00 %
01.09.2017 08:12 15,2 C 22,8 C 97 % 1014,4 hPa 0,0 l/m 3,9 km/h (1 Bft) W 272 0 min 0,000 mm 0,0 UV-I 17 W/m 14,7 C 15,2 C 6,4 km/h (2 Bft) 100,00 %
01.09.2017 08:14 15,2 C 22,8 C 97 % 1014,4 hPa 0,0 l/m 3,1 km/h (1 Bft) O-NO 67 0 min 0,000 mm 0,0 UV-I 16 W/m 14,7 C 15,2 C 6,4 km/h (2 Bft) 98,00 %
01.09.2017 08:16 15,2 C 22,8 C 97 % 1014,5 hPa 0,0 l/m 4,9 km/h (1 Bft) O-NO 69 0 min 0,000 mm 0,0 UV-I 19 W/m 14,7 C 15,2 C 6,4 km/h (2 Bft) 97,87 %
01.09.2017 08:18 15,2 C 22,8 C 97 % 1014,5 hPa 0,0 l/m 2,4 km/h (1 Bft) O-NO 69 0 min 0,000 mm 0,0 UV-I 21 W/m 14,7 C 15,2 C 4,8 km/h (1 Bft) 100,00 %
01.09.2017 08:20 15,2 C 22,8 C 97 % 1014,5 hPa 0,2 l/m 1,1 km/h (1 Bft) O-NO 69 0 min 0,000 mm 0,0 UV-I 25 W/m 14,7 C 15,2 C 3,2 km/h (1 Bft) 97,87 %
01.09.2017 08:22 15,2 C 22,8 C 97 % 1014,5 hPa 0,0 l/m 1,0 km/h (0 Bft) O-NO 69 0 min 0,000 mm 0,0 UV-I 29 W/m 14,7 C 15,2 C 3,2 km/h (1 Bft) 100,00 %
01.09.2017 08:24 15,2 C 22,8 C 97 % 1014,5 hPa 0,0 l/m 1,3 km/h (1 Bft) NW 309 0 min 0,000 mm 0,0 UV-I 30 W/m 14,7 C 15,2 C 3,2 km/h (1 Bft) 97,87 %
01.09.2017 08:26 15,2 C 22,8 C 97 % 1014,5 hPa 0,0 l/m 0,8 km/h (0 Bft) NW 309 0 min 0,000 mm 0,0 UV-I 29 W/m 14,7 C 15,2 C 3,2 km/h (1 Bft) 100,00 %
01.09.2017 08:28 15,2 C 22,8 C 97 % 1014,5 hPa 0,2 l/m 0,4 km/h (0 Bft) NW 309 0 min 0,000 mm 0,0 UV-I 29 W/m 14,7 C 15,2 C 3,2 km/h (1 Bft) 100,00 %
01.09.2017 08:30 15,2 C 22,8 C 97 % 1014,6 hPa 0,0 l/m 1,4 km/h (1 Bft) NW 309 0 min 0,000 mm 0,0 UV-I 29 W/m 14,7 C 15,2 C 3,2 km/h (1 Bft) 100,00 %
01.09.2017 08:32 15,2 C 22,8 C 97 % 1014,6 hPa 0,2 l/m 0,7 km/h (0 Bft) N-NW 330 0 min 0,000 mm 0,0 UV-I 28 W/m 14,7 C 15,2 C 1,6 km/h (1 Bft) 100,00 %
01.09.2017 08:34 15,2 C 22,8 C 97 % 1014,6 hPa 0,2 l/m 1,2 km/h (1 Bft) N 355 0 min 0,000 mm 0,0 UV-I 34 W/m 14,7 C 15,2 C 3,2 km/h (1 Bft) 100,00 %
01.09.2017 08:36 15,2 C 22,8 C 97 % 1014,5 hPa 0,2 l/m 7,5 km/h (2 Bft) N-NW 348 0 min 0,000 mm 0,0 UV-I 50 W/m 14,7 C 14,6 C 14,5 km/h (3 Bft) 100,00 %
01.09.2017 08:38 15,2 C 22,8 C 96 % 1014,5 hPa 0,0 l/m 1,8 km/h (1 Bft) NW 324 0 min 0,000 mm 0,0 UV-I 66 W/m 14,6 C 15,2 C 6,4 km/h (2 Bft) 97,87 %
01.09.2017 08:40 15,2 C 22,8 C 96 % 1014,5 hPa 0,0 l/m 1,3 km/h (1 Bft) NW 323 0 min 0,000 mm 0,0 UV-I 72 W/m 14,6 C 15,2 C 3,2 km/h (1 Bft) 98,00 %
01.09.2017 08:42 15,2 C 22,8 C 97 % 1014,5 hPa 0,0 l/m 0,2 km/h (0 Bft) NW 323 0 min 0,000 mm 0,0 UV-I 71 W/m 14,7 C 15,2 C 3,2 km/h (1 Bft) 100,00 %
01.09.2017 08:44 15,2 C 22,8 C 97 % 1014,5 hPa 0,0 l/m 4,3 km/h (1 Bft) NO 36 0 min 0,000 mm 0,0 UV-I 75 W/m 14,7 C 15,2 C 6,4 km/h (2 Bft) 100,00 %
01.09.2017 08:46 15,2 C 22,8 C 97 % 1014,5 hPa 0,2 l/m 1,0 km/h (0 Bft) NO 36 0 min 0,000 mm 0,0 UV-I 81 W/m 14,7 C 15,2 C 3,2 km/h (1 Bft) 100,00 %
01.09.2017 08:48 15,2 C 22,8 C 97 % 1014,5 hPa 0,0 l/m 0,9 km/h (0 Bft) NO 35 0 min 0,000 mm 0,0 UV-I 82 W/m 14,7 C 15,2 C 6,4 km/h (2 Bft) 100,00 %
01.09.2017 08:50 15,1 C 22,8 C 96 % 1014,5 hPa 0,0 l/m 6,1 km/h (2 Bft) N-NO 31 0 min 0,000 mm 0,0 UV-I 84 W/m 14,5 C 15,1 C 9,7 km/h (2 Bft) 100,00 %
01.09.2017 08:52 15,1 C 22,8 C 96 % 1014,5 hPa 0,0 l/m 5,1 km/h (1 Bft) N-NO 26 0 min 0,000 mm 0,0 UV-I 78 W/m 14,5 C 15,1 C 9,7 km/h (2 Bft) 95,74 %
01.09.2017 08:54 15,0 C 22,8 C 96 % 1014,6 hPa 0,0 l/m 1,6 km/h (1 Bft) N-NO 23 0 min 0,000 mm 0,0 UV-I 70 W/m 14,4 C 15,0 C 4,8 km/h (1 Bft) 100,00 %
01.09.2017 08:56 14,9 C 22,8 C 96 % 1014,6 hPa 0,0 l/m 1,2 km/h (1 Bft) N-NO 23 0 min 0,000 mm 0,0 UV-I 63 W/m 14,3 C 14,9 C 3,2 km/h (1 Bft) 95,74 %
01.09.2017 08:58 14,9 C 22,8 C 96 % 1014,6 hPa 0,0 l/m 0,2 km/h (0 Bft) N-NO 23 0 min 0,000 mm 0,0 UV-I 58 W/m 14,3 C 14,9 C 1,6 km/h (1 Bft) 95,74 %
01.09.2017 09:00 15,0 C 22,8 C 96 % 1014,6 hPa 0,0 l/m 0,0 km/h (0 Bft) N-NO 23 0 min 0,026 mm 0,0 UV-I 54 W/m 14,4 C 15,0 C 1,6 km/h (1 Bft) 97,92 %
01.09.2017 09:02 15,0 C 22,8 C 96 % 1014,5 hPa 0,0 l/m 1,0 km/h (0 Bft) N-NO 23 0 min 0,000 mm 0,0 UV-I 53 W/m 14,4 C 15,0 C 3,2 km/h (1 Bft) 95,74 %
01.09.2017 09:04 15,0 C 22,8 C 96 % 1014,5 hPa 0,0 l/m 0,3 km/h (0 Bft) N-NO 23 0 min 0,000 mm 0,0 UV-I 55 W/m 14,4 C 15,0 C 3,2 km/h (1 Bft) 97,87 %
01.09.2017 09:06 15,0 C 22,8 C 96 % 1014,5 hPa 0,0 l/m 0,6 km/h (0 Bft) N-NO 23 0 min 0,000 mm 0,0 UV-I 58 W/m 14,4 C 15,0 C 1,6 km/h (1 Bft) 98,00 %
01.09.2017 09:08 14,9 C 22,8 C 96 % 1014,5 hPa 0,0 l/m 0,5 km/h (0 Bft) N-NO 23 0 min 0,000 mm 0,0 UV-I 62 W/m 14,3 C 14,9 C 1,6 km/h (1 Bft) 95,74 %
01.09.2017 09:10 14,9 C 22,8 C 96 % 1014,5 hPa 0,0 l/m 0,0 km/h (0 Bft) N-NO 23 0 min 0,000 mm 0,0 UV-I 63 W/m 14,3 C 14,9 C 1,6 km/h (1 Bft) 97,87 %
01.09.2017 09:12 14,9 C 22,8 C 96 % 1014,5 hPa 0,0 l/m 1,3 km/h (1 Bft) N-NO 23 0 min 0,000 mm 0,0 UV-I 65 W/m 14,3 C 14,9 C 3,2 km/h (1 Bft) 95,83 %
01.09.2017 09:14 14,9 C 22,8 C 96 % 1014,5 hPa 0,0 l/m 0,7 km/h (0 Bft) N-NO 23 0 min 0,000 mm 0,0 UV-I 65 W/m 14,3 C 14,9 C 1,6 km/h (1 Bft) 98,00 %
01.09.2017 09:16 14,9 C 22,8 C 96 % 1014,5 hPa 0,0 l/m 0,3 km/h (0 Bft) N-NO 23 0 min 0,000 mm 0,0 UV-I 65 W/m 14,3 C 14,9 C 3,2 km/h (1 Bft) 97,87 %
01.09.2017 09:18 15,0 C 22,8 C 96 % 1014,4 hPa 0,0 l/m 0,9 km/h (0 Bft) N-NO 22 0 min 0,000 mm 0,0 UV-I 67 W/m 14,4 C 15,0 C 3,2 km/h (1 Bft) 93,62 %
01.09.2017 09:20 15,0 C 22,8 C 96 % 1014,4 hPa 0,0 l/m 0,2 km/h (0 Bft) N-NO 22 0 min 0,000 mm 0,0 UV-I 70 W/m 14,4 C 15,0 C 1,6 km/h (1 Bft) 97,37 %
01.09.2017 09:22 15,0 C 22,8 C 96 % 1014,4 hPa 0,0 l/m 0,8 km/h (0 Bft) N-NO 22 0 min 0,000 mm 0,0 UV-I 77 W/m 14,4 C 15,0 C 3,2 km/h (1 Bft) 95,74 %
01.09.2017 09:24 15,0 C 22,8 C 96 % 1014,3 hPa 0,0 l/m 0,9 km/h (0 Bft) N-NO 22 0 min 0,000 mm 0,0 UV-I 85 W/m 14,4 C 15,0 C 3,2 km/h (1 Bft) 97,87 %
01.09.2017 09:26 15,0 C 22,8 C 95 % 1014,4 hPa 0,0 l/m 0,6 km/h (0 Bft) N-NO 22 0 min 0,000 mm 0,0 UV-I 92 W/m 14,2 C 15,0 C 3,2 km/h (1 Bft) 97,87 %
01.09.2017 09:28 15,0 C 22,8 C 96 % 1014,3 hPa 0,0 l/m 1,3 km/h (1 Bft) N-NO 22 0 min 0,000 mm 0,3 UV-I 98 W/m 14,4 C 15,0 C 4,8 km/h (1 Bft) 100,00 %
01.09.2017 09:30 15,0 C 22,8 C 95 % 1014,4 hPa 0,0 l/m 0,8 km/h (0 Bft) N-NO 22 0 min 0,000 mm 0,5 UV-I 100 W/m 14,2 C 15,0 C 3,2 km/h (1 Bft) 100,00 %
01.09.2017 09:32 15,0 C 22,8 C 95 % 1014,3 hPa 0,0 l/m 1,7 km/h (1 Bft) N-NO 22 0 min 0,000 mm 0,5 UV-I 100 W/m 14,2 C 15,0 C 4,8 km/h (1 Bft) 97,92 %
01.09.2017 09:34 15,1 C 22,8 C 95 % 1014,3 hPa 0,0 l/m 0,1 km/h (0 Bft) N-NO 22 0 min 0,000 mm 0,5 UV-I 98 W/m 14,3 C 15,1 C 1,6 km/h (1 Bft) 95,74 %
01.09.2017 09:36 15,0 C 22,8 C 95 % 1014,3 hPa 0,0 l/m 2,1 km/h (1 Bft) N-NW 328 0 min 0,000 mm 0,1 UV-I 92 W/m 14,2 C 15,0 C 4,8 km/h (1 Bft) 100,00 %
01.09.2017 09:38 15,0 C 22,8 C 95 % 1014,2 hPa 0,0 l/m 2,0 km/h (1 Bft) NW 304 0 min 0,000 mm 0,0 UV-I 87 W/m 14,2 C 15,0 C 4,8 km/h (1 Bft) 97,37 %
01.09.2017 09:40 15,0 C 22,8 C 95 % 1014,2 hPa 0,0 l/m 0,3 km/h (0 Bft) NW 305 0 min 0,000 mm 0,0 UV-I 82 W/m 14,2 C 15,0 C 1,6 km/h (1 Bft) 95,74 %
01.09.2017 09:42 15,0 C 22,8 C 95 % 1014,3 hPa 0,0 l/m 1,3 km/h (1 Bft) NW 307 0 min 0,000 mm 0,0 UV-I 75 W/m 14,2 C 15,0 C 4,8 km/h (1 Bft) 97,87 %
01.09.2017 09:44 15,0 C 22,8 C 95 % 1014,3 hPa 0,0 l/m 1,1 km/h (1 Bft) NW 315 0 min 0,000 mm 0,0 UV-I 69 W/m 14,2 C 15,0 C 3,2 km/h (1 Bft) 98,00 %
01.09.2017 09:46 15,0 C 22,8 C 95 % 1014,3 hPa 0,0 l/m 0,0 km/h (0 Bft) NW 315 0 min 0,000 mm 0,0 UV-I 68 W/m 14,2 C 15,0 C 0,0 km/h (0 Bft) 97,87 %
01.09.2017 09:48 15,0 C 22,8 C 95 % 1014,3 hPa 0,0 l/m 1,3 km/h (1 Bft) NW 315 0 min 0,000 mm 0,0 UV-I 66 W/m 14,2 C 15,0 C 3,2 km/h (1 Bft) 97,87 %
01.09.2017 09:50 14,9 C 22,8 C 95 % 1014,4 hPa 0,0 l/m 1,3 km/h (1 Bft) NW 315 0 min 0,000 mm 0,0 UV-I 63 W/m 14,1 C 14,9 C 3,2 km/h (1 Bft) 97,92 %
01.09.2017 09:52 14,9 C 22,8 C 95 % 1014,4 hPa 0,0 l/m 1,2 km/h (1 Bft) NW 316 0 min 0,000 mm 0,0 UV-I 61 W/m 14,1 C 14,9 C 3,2 km/h (1 Bft) 97,87 %
01.09.2017 09:54 14,9 C 22,8 C 95 % 1014,4 hPa 0,0 l/m 0,3 km/h (0 Bft) NW 316 0 min 0,000 mm 0,0 UV-I 62 W/m 14,1 C 14,9 C 1,6 km/h (1 Bft) 95,74 %
01.09.2017 09:56 14,9 C 22,8 C 95 % 1014,3 hPa 0,0 l/m 0,0 km/h (0 Bft) NW 316 0 min 0,000 mm 0,0 UV-I 63 W/m 14,1 C 14,9 C 1,6 km/h (1 Bft) 97,87 %
01.09.2017 09:58 14,9 C 22,8 C 95 % 1014,4 hPa 0,0 l/m 0,0 km/h (0 Bft) NW 316 0 min 0,000 mm 0,0 UV-I 63 W/m 14,1 C 14,9 C 0,0 km/h (0 Bft) 97,87 %
01.09.2017 10:00 14,9 C 22,8 C 95 % 1014,4 hPa 0,0 l/m 0,1 km/h (0 Bft) NW 316 0 min 0,051 mm 0,0 UV-I 64 W/m 14,1 C 14,9 C 1,6 km/h (1 Bft) 97,87 %
01.09.2017 10:02 14,9 C 22,8 C 95 % 1014,3 hPa 0,0 l/m 0,3 km/h (0 Bft) NW 316 0 min 0,000 mm 0,0 UV-I 65 W/m 14,1 C 14,9 C 1,6 km/h (1 Bft) 97,87 %
01.09.2017 10:04 14,9 C 22,8 C 95 % 1014,4 hPa 0,0 l/m 0,1 km/h (0 Bft) NW 316 0 min 0,000 mm 0,0 UV-I 67 W/m 14,1 C 14,9 C 1,6 km/h (1 Bft) 95,74 %
01.09.2017 10:06 14,9 C 22,8 C 95 % 1014,4 hPa 0,0 l/m 0,0 km/h (0 Bft) NW 316 0 min 0,000 mm 0,0 UV-I 67 W/m 14,1 C 14,9 C 0,0 km/h (0 Bft) 98,00 %
01.09.2017 10:08 14,9 C 22,8 C 95 % 1014,3 hPa 0,0 l/m 0,1 km/h (0 Bft) NW 316 0 min 0,000 mm 0,0 UV-I 67 W/m 14,1 C 14,9 C 1,6 km/h (1 Bft) 97,87 %
01.09.2017 10:10 14,9 C 22,8 C 95 % 1014,3 hPa 0,0 l/m 0,5 km/h (0 Bft) NW 316 0 min 0,000 mm 0,0 UV-I 70 W/m 14,1 C 14,9 C 1,6 km/h (1 Bft) 97,87 %
01.09.2017 10:12 14,9 C 22,8 C 95 % 1014,3 hPa 0,0 l/m 0,1 km/h (0 Bft) NW 316 0 min 0,000 mm 0,0 UV-I 75 W/m 14,1 C 14,9 C 1,6 km/h (1 Bft) 94,29 %
01.09.2017 10:14 14,9 C 22,8 C 95 % 1014,3 hPa 0,0 l/m 1,1 km/h (1 Bft) NW 316 0 min 0,000 mm 0,1 UV-I 77 W/m 14,1 C 14,9 C 3,2 km/h (1 Bft) 97,87 %
01.09.2017 10:16 14,9 C 22,8 C 95 % 1014,3 hPa 0,0 l/m 0,6 km/h (0 Bft) NW 317 0 min 0,000 mm 0,5 UV-I 81 W/m 14,1 C 14,9 C 3,2 km/h (1 Bft) 95,74 %
01.09.2017 10:18 14,9 C 22,8 C 95 % 1014,3 hPa 0,0 l/m 0,2 km/h (0 Bft) NW 317 0 min 0,000 mm 0,1 UV-I 77 W/m 14,1 C 14,9 C 1,6 km/h (1 Bft) 95,83 %
01.09.2017 10:20 14,9 C 22,8 C 95 % 1014,3 hPa 0,0 l/m 0,0 km/h (0 Bft) NW 317 0 min 0,000 mm 0,0 UV-I 70 W/m 14,1 C 14,9 C 0,0 km/h (0 Bft) 95,74 %
01.09.2017 10:22 15,0 C 22,8 C 96 % 1014,3 hPa 0,0 l/m 0,0 km/h (0 Bft) NW 317 0 min 0,000 mm 0,0 UV-I 65 W/m 14,4 C 15,0 C 1,6 km/h (1 Bft) 97,87 %
01.09.2017 10:24 15,1 C 22,8 C 96 % 1014,2 hPa 0,0 l/m 0,1 km/h (0 Bft) NW 317 0 min 0,000 mm 0,0 UV-I 63 W/m 14,5 C 15,1 C 1,6 km/h (1 Bft) 96,00 %
01.09.2017 10:26 15,1 C 22,8 C 96 % 1014,3 hPa 0,0 l/m 0,3 km/h (0 Bft) NW 317 0 min 0,000 mm 0,0 UV-I 63 W/m 14,5 C 15,1 C 3,2 km/h (1 Bft) 97,87 %
01.09.2017 10:28 15,1 C 22,8 C 95 % 1014,2 hPa 0,0 l/m 0,7 km/h (0 Bft) NW 316 0 min 0,000 mm 0,0 UV-I 64 W/m 14,3 C 15,1 C 3,2 km/h (1 Bft) 97,92 %
01.09.2017 10:30 15,1 C 22,8 C 96 % 1014,3 hPa 0,0 l/m 0,3 km/h (0 Bft) NW 317 0 min 0,000 mm 0,0 UV-I 72 W/m 14,5 C 15,1 C 1,6 km/h (1 Bft) 97,92 %
01.09.2017 10:33 15,1 C 22,8 C 96 % 1014,2 hPa 0,0 l/m 0,5 km/h (0 Bft) NW 316 0 min 0,000 mm 0,1 UV-I 72 W/m 14,5 C 15,1 C 3,2 km/h (1 Bft) 95,89 %
01.09.2017 10:34 15,1 C 22,8 C 96 % 1014,2 hPa 0,0 l/m 1,6 km/h (1 Bft) NW 317 0 min 0,000 mm 0,0 UV-I 69 W/m 14,5 C 15,1 C 3,2 km/h (1 Bft) 100,00 %
01.09.2017 10:36 15,1 C 22,8 C 95 % 1014,3 hPa 0,0 l/m 1,4 km/h (1 Bft) NW 317 0 min 0,000 mm 0,0 UV-I 70 W/m 14,3 C 15,1 C 3,2 km/h (1 Bft) 95,74 %
01.09.2017 10:38 15,1 C 22,8 C 96 % 1014,3 hPa 0,0 l/m 0,0 km/h (0 Bft) NW 317 0 min 0,000 mm 0,3 UV-I 75 W/m 14,5 C 15,1 C 0,0 km/h (0 Bft) 97,87 %
01.09.2017 10:40 15,1 C 22,8 C 96 % 1014,3 hPa 0,0 l/m 0,0 km/h (0 Bft) NW 316 0 min 0,000 mm 0,5 UV-I 81 W/m 14,5 C 15,1 C 0,0 km/h (0 Bft) 100,00 %
01.09.2017 10:42 15,2 C 22,8 C 96 % 1014,3 hPa 0,0 l/m 0,0 km/h (0 Bft) NW 316 0 min 0,000 mm 0,5 UV-I 83 W/m 14,6 C 15,2 C 0,0 km/h (0 Bft) 98,04 %
01.09.2017 10:44 15,2 C 22,8 C 96 % 1014,3 hPa 0,0 l/m 1,0 km/h (0 Bft) NW 317 0 min 0,000 mm 0,5 UV-I 85 W/m 14,6 C 15,2 C 4,8 km/h (1 Bft) 100,00 %
01.09.2017 10:46 15,1 C 22,8 C 95 % 1014,4 hPa 0,0 l/m 0,0 km/h (0 Bft) NW 317 0 min 0,000 mm 0,6 UV-I 91 W/m 14,3 C 15,1 C 0,0 km/h (0 Bft) 100,00 %
01.09.2017 10:48 15,1 C 22,8 C 96 % 1014,3 hPa 0,0 l/m 0,4 km/h (0 Bft) NW 317 0 min 0,000 mm 0,6 UV-I 97 W/m 14,5 C 15,1 C 1,6 km/h (1 Bft) 98,00 %
01.09.2017 10:50 15,2 C 22,8 C 96 % 1014,3 hPa 0,0 l/m 0,0 km/h (0 Bft) NW 317 0 min 0,000 mm 0,6 UV-I 101 W/m 14,6 C 15,2 C 0,0 km/h (0 Bft) 100,00 %
01.09.2017 10:52 15,2 C 22,8 C 96 % 1014,3 hPa 0,0 l/m 0,0 km/h (0 Bft) NW 317 0 min 0,000 mm 0,6 UV-I 101 W/m 14,6 C 15,2 C 0,0 km/h (0 Bft) 100,00 %
01.09.2017 10:54 15,2 C 22,8 C 96 % 1014,3 hPa 0,0 l/m 0,3 km/h (0 Bft) NW 317 0 min 0,000 mm 0,6 UV-I 101 W/m 14,6 C 15,2 C 1,6 km/h (1 Bft) 100,00 %
01.09.2017 10:56 15,2 C 22,8 C 96 % 1014,3 hPa 0,0 l/m 2,1 km/h (1 Bft) NW 315 0 min 0,000 mm 0,7 UV-I 105 W/m 14,6 C 15,2 C 3,2 km/h (1 Bft) 95,74 %
01.09.2017 10:58 15,2 C 22,8 C 96 % 1014,3 hPa 0,0 l/m 0,7 km/h (0 Bft) NW 315 0 min 0,000 mm 0,7 UV-I 105 W/m 14,6 C 15,2 C 3,2 km/h (1 Bft) 96,00 %
01.09.2017 11:00 15,1 C 22,8 C 96 % 1014,3 hPa 0,2 l/m 1,3 km/h (1 Bft) NW 315 0 min 0,050 mm 0,7 UV-I 106 W/m 14,5 C 15,1 C 3,2 km/h (1 Bft) 97,87 %
01.09.2017 11:02 15,2 C 22,8 C 96 % 1014,3 hPa 0,0 l/m 0,7 km/h (0 Bft) NW 315 0 min 0,000 mm 0,7 UV-I 104 W/m 14,6 C 15,2 C 3,2 km/h (1 Bft) 97,87 %
01.09.2017 11:04 15,2 C 22,8 C 96 % 1014,3 hPa 0,0 l/m 0,1 km/h (0 Bft) NW 315 0 min 0,000 mm 0,6 UV-I 94 W/m 14,6 C 15,2 C 1,6 km/h (1 Bft) 97,37 %
01.09.2017 11:06 15,2 C 22,8 C 96 % 1014,3 hPa 0,0 l/m 0,2 km/h (0 Bft) NW 315 0 min 0,000 mm 0,6 UV-I 88 W/m 14,6 C 15,2 C 1,6 km/h (1 Bft) 97,92 %
01.09.2017 11:08 15,2 C 22,8 C 96 % 1014,4 hPa 0,0 l/m 0,0 km/h (0 Bft) NW 315 0 min 0,000 mm 0,5 UV-I 87 W/m 14,6 C 15,2 C 1,6 km/h (1 Bft) 95,74 %
01.09.2017 11:10 15,2 C 22,8 C 96 % 1014,4 hPa 0,0 l/m 0,0 km/h (0 Bft) NW 315 0 min 0,000 mm 0,5 UV-I 86 W/m 14,6 C 15,2 C 0,0 km/h (0 Bft) 97,87 %
01.09.2017 11:12 15,2 C 22,8 C 96 % 1014,4 hPa 0,0 l/m 0,4 km/h (0 Bft) NW 315 0 min 0,000 mm 0,3 UV-I 80 W/m 14,6 C 15,2 C 3,2 km/h (1 Bft) 96,00 %
01.09.2017 11:14 15,3 C 22,8 C 96 % 1014,4 hPa 0,0 l/m 0,6 km/h (0 Bft) NW 315 0 min 0,000 mm 0,0 UV-I 60 W/m 14,7 C 15,3 C 3,2 km/h (1 Bft) 93,62 %
01.09.2017 11:16 15,3 C 22,8 C 96 % 1014,4 hPa 0,0 l/m 1,9 km/h (1 Bft) NW 313 0 min 0,000 mm 0,0 UV-I 55 W/m 14,7 C 15,3 C 6,4 km/h (2 Bft) 97,87 %
01.09.2017 11:18 15,2 C 22,8 C 96 % 1014,4 hPa 0,0 l/m 0,1 km/h (0 Bft) NW 313 0 min 0,000 mm 0,0 UV-I 55 W/m 14,6 C 15,2 C 1,6 km/h (1 Bft) 97,87 %
01.09.2017 11:20 15,2 C 22,8 C 96 % 1014,3 hPa 0,0 l/m 0,4 km/h (0 Bft) NW 313 0 min 0,000 mm 0,0 UV-I 63 W/m 14,6 C 15,2 C 3,2 km/h (1 Bft) 95,74 %
01.09.2017 11:22 15,1 C 22,8 C 96 % 1014,3 hPa 0,2 l/m 0,9 km/h (0 Bft) NW 313 0 min 0,000 mm 0,2 UV-I 69 W/m 14,5 C 15,1 C 3,2 km/h (1 Bft) 97,87 %
01.09.2017 11:24 15,1 C 22,8 C 96 % 1014,3 hPa 0,0 l/m 1,4 km/h (1 Bft) NW 306 0 min 0,000 mm 0,5 UV-I 72 W/m 14,5 C 15,1 C 4,8 km/h (1 Bft) 98,00 %
01.09.2017 11:26 15,2 C 22,8 C 96 % 1014,2 hPa 0,0 l/m 0,0 km/h (0 Bft) NW 306 0 min 0,000 mm 0,2 UV-I 70 W/m 14,6 C 15,2 C 1,6 km/h (1 Bft) 95,74 %
01.09.2017 11:28 15,2 C 22,8 C 96 % 1014,2 hPa 0,2 l/m 1,7 km/h (1 Bft) NW 312 0 min 0,000 mm 0,4 UV-I 74 W/m 14,6 C 15,2 C 3,2 km/h (1 Bft) 100,00 %
01.09.2017 11:30 15,2 C 22,8 C 96 % 1014,2 hPa 0,0 l/m 1,1 km/h (1 Bft) N 5 0 min 0,000 mm 0,6 UV-I 88 W/m 14,6 C 15,2 C 4,8 km/h (1 Bft) 97,87 %
01.09.2017 11:32 15,1 C 22,8 C 96 % 1014,1 hPa 0,0 l/m 2,1 km/h (1 Bft) W-SW 254 0 min 0,000 mm 0,7 UV-I 103 W/m 14,5 C 15,1 C 6,4 km/h (2 Bft) 97,87 %
01.09.2017 11:34 15,1 C 22,8 C 96 % 1014,1 hPa 0,0 l/m 1,6 km/h (1 Bft) W-NW 283 0 min 0,000 mm 0,8 UV-I 115 W/m 14,5 C 15,1 C 3,2 km/h (1 Bft) 100,00 %
01.09.2017 11:36 15,1 C 22,8 C 96 % 1014,0 hPa 0,0 l/m 2,2 km/h (1 Bft) NW 304 0 min 0,000 mm 0,9 UV-I 129 W/m 14,5 C 15,1 C 6,4 km/h (2 Bft) 97,87 %
01.09.2017 11:38 15,2 C 22,8 C 97 % 1014,0 hPa 0,0 l/m 0,2 km/h (0 Bft) N-NW 336 0 min 0,000 mm 0,7 UV-I 108 W/m 14,7 C 15,2 C 1,6 km/h (1 Bft) 100,00 %
01.09.2017 11:40 15,2 C 22,8 C 97 % 1014,0 hPa 0,0 l/m 1,4 km/h (1 Bft) N-NW 327 0 min 0,000 mm 0,7 UV-I 113 W/m 14,7 C 15,2 C 3,2 km/h (1 Bft) 100,00 %
01.09.2017 11:42 15,1 C 22,8 C 96 % 1014,1 hPa 0,2 l/m 1,6 km/h (1 Bft) NW 326 0 min 0,000 mm 0,8 UV-I 115 W/m 14,5 C 15,1 C 3,2 km/h (1 Bft) 97,87 %
01.09.2017 11:44 15,0 C 22,8 C 96 % 1014,0 hPa 0,0 l/m 2,0 km/h (1 Bft) N-NW 335 0 min 0,000 mm 0,7 UV-I 111 W/m 14,4 C 15,0 C 6,4 km/h (2 Bft) 97,92 %
01.09.2017 11:46 14,9 C 22,8 C 96 % 1014,1 hPa 0,0 l/m 3,1 km/h (1 Bft) NW 322 0 min 0,000 mm 0,8 UV-I 113 W/m 14,3 C 14,9 C 6,4 km/h (2 Bft) 100,00 %
01.09.2017 11:48 14,9 C 22,8 C 96 % 1014,1 hPa 0,0 l/m 1,6 km/h (1 Bft) N 355 0 min 0,000 mm 0,8 UV-I 113 W/m 14,3 C 14,9 C 3,2 km/h (1 Bft) 98,00 %
01.09.2017 11:50 15,0 C 22,8 C 96 % 1014,1 hPa 0,0 l/m 1,8 km/h (1 Bft) N 360 0 min 0,000 mm 0,8 UV-I 112 W/m 14,4 C 15,0 C 6,4 km/h (2 Bft) 95,74 %
01.09.2017 11:52 15,1 C 22,8 C 96 % 1014,1 hPa 0,0 l/m 1,1 km/h (1 Bft) N 355 0 min 0,000 mm 0,8 UV-I 113 W/m 14,5 C 15,1 C 6,4 km/h (2 Bft) 100,00 %
01.09.2017 11:54 15,1 C 22,8 C 96 % 1014,1 hPa 0,0 l/m 2,0 km/h (1 Bft) N-NW 337 0 min 0,000 mm 0,8 UV-I 115 W/m 14,5 C 15,1 C 6,4 km/h (2 Bft) 100,00 %
01.09.2017 11:56 15,1 C 22,8 C 96 % 1014,1 hPa 0,0 l/m 1,4 km/h (1 Bft) NW 311 0 min 0,000 mm 0,8 UV-I 118 W/m 14,5 C 15,1 C 8,0 km/h (2 Bft) 97,87 %
01.09.2017 11:58 15,2 C 22,8 C 97 % 1014,1 hPa 0,0 l/m 1,1 km/h (1 Bft) N-NW 336 0 min 0,000 mm 0,8 UV-I 118 W/m 14,7 C 15,2 C 3,2 km/h (1 Bft) 97,87 %
01.09.2017 12:00 15,1 C 22,8 C 96 % 1014,0 hPa 0,0 l/m 1,4 km/h (1 Bft) N-NW 338 0 min 0,051 mm 0,8 UV-I 112 W/m 14,5 C 15,1 C 3,2 km/h (1 Bft) 100,00 %
01.09.2017 12:02 15,1 C 22,8 C 96 % 1014,0 hPa 0,0 l/m 0,9 km/h (0 Bft) NW 313 0 min 0,000 mm 0,7 UV-I 104 W/m 14,5 C 15,1 C 4,8 km/h (1 Bft) 100,00 %
01.09.2017 12:04 15,0 C 22,8 C 96 % 1014,0 hPa 0,0 l/m 2,5 km/h (1 Bft) NW 317 0 min 0,000 mm 0,7 UV-I 95 W/m 14,4 C 15,0 C 4,8 km/h (1 Bft) 100,00 %
01.09.2017 12:06 15,0 C 22,8 C 96 % 1013,9 hPa 0,0 l/m 0,2 km/h (0 Bft) NW 317 0 min 0,000 mm 0,6 UV-I 88 W/m 14,4 C 15,0 C 1,6 km/h (1 Bft) 100,00 %
01.09.2017 12:08 15,0 C 22,8 C 96 % 1013,9 hPa 0,0 l/m 2,3 km/h (1 Bft) N-NO 17 0 min 0,000 mm 0,5 UV-I 78 W/m 14,4 C 15,0 C 4,8 km/h (1 Bft) 100,00 %
01.09.2017 12:10 14,9 C 22,8 C 96 % 1013,9 hPa 0,2 l/m 1,7 km/h (1 Bft) W 278 0 min 0,000 mm 0,5 UV-I 79 W/m 14,3 C 14,9 C 4,8 km/h (1 Bft) 100,00 %
01.09.2017 12:12 14,9 C 22,8 C 96 % 1013,9 hPa 0,0 l/m 2,0 km/h (1 Bft) N 350 0 min 0,000 mm 0,6 UV-I 84 W/m 14,3 C 14,9 C 6,4 km/h (2 Bft) 100,00 %
01.09.2017 12:14 14,9 C 22,8 C 97 % 1013,9 hPa 0,0 l/m 0,3 km/h (0 Bft) N 350 0 min 0,000 mm 0,7 UV-I 101 W/m 14,4 C 14,9 C 3,2 km/h (1 Bft) 100,00 %
01.09.2017 12:16 15,0 C 22,8 C 96 % 1013,8 hPa 0,0 l/m 2,6 km/h (1 Bft) W 261 0 min 0,000 mm 0,9 UV-I 120 W/m 14,4 C 15,0 C 6,4 km/h (2 Bft) 97,87 %
01.09.2017 12:18 15,1 C 22,8 C 97 % 1013,8 hPa 0,0 l/m 0,9 km/h (0 Bft) W 261 0 min 0,000 mm 0,9 UV-I 116 W/m 14,6 C 15,1 C 3,2 km/h (1 Bft) 100,00 %
01.09.2017 12:20 15,2 C 22,8 C 97 % 1013,7 hPa 0,0 l/m 1,3 km/h (1 Bft) N-NO 33 0 min 0,000 mm 0,8 UV-I 113 W/m 14,7 C 15,2 C 3,2 km/h (1 Bft) 100,00 %
01.09.2017 12:22 15,2 C 22,8 C 97 % 1013,7 hPa 0,0 l/m 1,9 km/h (1 Bft) N-NW 342 0 min 0,000 mm 0,9 UV-I 125 W/m 14,7 C 15,2 C 3,2 km/h (1 Bft) 100,00 %
01.09.2017 12:24 15,2 C 22,8 C 97 % 1013,6 hPa 0,0 l/m 2,2 km/h (1 Bft) W-NW 302 0 min 0,000 mm 1,0 UV-I 130 W/m 14,7 C 15,2 C 9,7 km/h (2 Bft) 100,00 %
01.09.2017 12:26 15,2 C 22,8 C 97 % 1013,6 hPa 0,0 l/m 0,9 km/h (0 Bft) SW 217 0 min 0,000 mm 1,0 UV-I 142 W/m 14,7 C 15,2 C 3,2 km/h (1 Bft) 95,74 %
01.09.2017 12:28 15,2 C 22,8 C 97 % 1013,6 hPa 0,0 l/m 1,4 km/h (1 Bft) N-NO 24 0 min 0,000 mm 0,9 UV-I 129 W/m 14,7 C 15,2 C 4,8 km/h (1 Bft) 100,00 %
01.09.2017 12:30 15,2 C 22,8 C 97 % 1013,6 hPa 0,0 l/m 3,1 km/h (1 Bft) W-SW 254 0 min 0,000 mm 0,7 UV-I 108 W/m 14,7 C 15,2 C 6,4 km/h (2 Bft) 100,00 %
01.09.2017 12:32 15,1 C 22,8 C 96 % 1013,6 hPa 0,0 l/m 1,4 km/h (1 Bft) NW 319 0 min 0,000 mm 0,8 UV-I 114 W/m 14,5 C 15,1 C 4,8 km/h (1 Bft) 100,00 %
01.09.2017 12:34 15,1 C 22,8 C 97 % 1013,6 hPa 0,0 l/m 2,6 km/h (1 Bft) NO 51 0 min 0,000 mm 1,0 UV-I 138 W/m 14,6 C 15,1 C 8,0 km/h (2 Bft) 100,00 %
01.09.2017 12:36 15,1 C 22,8 C 96 % 1013,6 hPa 0,0 l/m 1,1 km/h (1 Bft) NO 51 0 min 0,000 mm 1,2 UV-I 162 W/m 14,5 C 15,1 C 3,2 km/h (1 Bft) 100,00 %
01.09.2017 12:38 15,1 C 22,8 C 97 % 1013,6 hPa 0,0 l/m 1,6 km/h (1 Bft) SO 133 0 min 0,000 mm 1,4 UV-I 192 W/m 14,6 C 15,1 C 3,2 km/h (1 Bft) 98,00 %
01.09.2017 12:40 15,2 C 22,8 C 97 % 1013,6 hPa 0,0 l/m 2,3 km/h (1 Bft) NW 322 0 min 0,000 mm 1,4 UV-I 183 W/m 14,7 C 15,2 C 6,4 km/h (2 Bft) 100,00 %
01.09.2017 12:42 15,1 C 22,8 C 96 % 1013,6 hPa 0,0 l/m 3,2 km/h (1 Bft) W-NW 295 0 min 0,000 mm 1,5 UV-I 194 W/m 14,5 C 15,1 C 9,7 km/h (2 Bft) 97,87 %
01.09.2017 12:44 15,1 C 22,8 C 96 % 1013,5 hPa 0,0 l/m 3,7 km/h (1 Bft) N-NO 26 0 min 0,000 mm 1,4 UV-I 173 W/m 14,5 C 15,1 C 8,0 km/h (2 Bft) 97,87 %
01.09.2017 12:46 15,2 C 22,8 C 97 % 1013,6 hPa 0,0 l/m 0,8 km/h (0 Bft) N-NO 19 0 min 0,000 mm 1,0 UV-I 133 W/m 14,7 C 15,2 C 3,2 km/h (1 Bft) 97,87 %
01.09.2017 12:48 15,3 C 22,8 C 97 % 1013,6 hPa 0,0 l/m 0,5 km/h (0 Bft) N-NO 22 0 min 0,000 mm 0,9 UV-I 116 W/m 14,8 C 15,3 C 1,6 km/h (1 Bft) 100,00 %
01.09.2017 12:50 15,2 C 22,8 C 97 % 1013,6 hPa 0,0 l/m 3,1 km/h (1 Bft) W-SW 257 0 min 0,000 mm 0,9 UV-I 122 W/m 14,7 C 15,2 C 8,0 km/h (2 Bft) 100,00 %
01.09.2017 12:52 15,1 C 22,8 C 96 % 1013,7 hPa 0,0 l/m 3,9 km/h (1 Bft) W 277 0 min 0,000 mm 0,9 UV-I 116 W/m 14,5 C 15,1 C 8,0 km/h (2 Bft) 100,00 %
01.09.2017 12:54 15,1 C 22,8 C 96 % 1013,7 hPa 0,0 l/m 1,0 km/h (0 Bft) O-SO 109 0 min 0,000 mm 0,8 UV-I 102 W/m 14,5 C 15,1 C 3,2 km/h (1 Bft) 97,87 %
01.09.2017 12:56 15,1 C 22,8 C 96 % 1013,7 hPa 0,0 l/m 0,8 km/h (0 Bft) O 100 0 min 0,000 mm 0,7 UV-I 102 W/m 14,5 C 15,1 C 3,2 km/h (1 Bft) 97,87 %
01.09.2017 12:58 15,1 C 22,8 C 97 % 1013,7 hPa 0,0 l/m 3,1 km/h (1 Bft) NW 315 0 min 0,000 mm 0,7 UV-I 97 W/m 14,6 C 15,1 C 6,4 km/h (2 Bft) 95,74 %
01.09.2017 13:00 15,1 C 22,8 C 96 % 1013,7 hPa 0,0 l/m 0,8 km/h (0 Bft) W-SW 243 0 min 0,051 mm 0,7 UV-I 97 W/m 14,5 C 15,1 C 3,2 km/h (1 Bft) 96,00 %
01.09.2017 13:02 15,1 C 22,8 C 96 % 1013,7 hPa 0,0 l/m 3,9 km/h (1 Bft) W-NW 289 0 min 0,000 mm 0,8 UV-I 102 W/m 14,5 C 15,1 C 6,4 km/h (2 Bft) 97,87 %
01.09.2017 13:04 15,0 C 22,8 C 96 % 1013,7 hPa 0,0 l/m 3,2 km/h (1 Bft) W 267 0 min 0,000 mm 0,8 UV-I 109 W/m 14,4 C 15,0 C 8,0 km/h (2 Bft) 97,87 %
01.09.2017 13:06 14,9 C 22,8 C 96 % 1013,8 hPa 0,0 l/m 2,6 km/h (1 Bft) SW 236 0 min 0,000 mm 0,8 UV-I 105 W/m 14,3 C 14,9 C 6,4 km/h (2 Bft) 97,92 %
01.09.2017 13:08 15,1 C 22,8 C 96 % 1013,8 hPa 0,0 l/m 2,1 km/h (1 Bft) W-NW 294 0 min 0,000 mm 0,7 UV-I 98 W/m 14,5 C 15,1 C 6,4 km/h (2 Bft) 95,74 %
01.09.2017 13:10 15,1 C 22,8 C 97 % 1013,8 hPa 0,0 l/m 4,8 km/h (1 Bft) W 266 0 min 0,000 mm 0,9 UV-I 114 W/m 14,6 C 15,1 C 11,3 km/h (2 Bft) 95,74 %
01.09.2017 13:12 15,0 C 22,8 C 96 % 1013,8 hPa 0,0 l/m 4,0 km/h (1 Bft) W-SW 254 0 min 0,000 mm 0,9 UV-I 110 W/m 14,4 C 15,0 C 12,9 km/h (3 Bft) 97,96 %
01.09.2017 13:14 14,9 C 22,8 C 96 % 1013,8 hPa 0,0 l/m 4,0 km/h (1 Bft) W-SW 240 0 min 0,000 mm 0,8 UV-I 94 W/m 14,3 C 14,9 C 11,3 km/h (2 Bft) 94,74 %
01.09.2017 13:15 14,9 C 22,8 C 96 % 1013,9 hPa 0,0 l/m 3,2 km/h (1 Bft) W-SW 247 0 min 0,000 mm 0,7 UV-I 96 W/m 14,3 C 14,9 C 12,9 km/h (3 Bft) 99,12 %
01.09.2017 13:16 14,9 C 22,8 C 96 % 1013,9 hPa 0,0 l/m 1,9 km/h (1 Bft) W-NW 288 0 min 0,000 mm 0,6 UV-I 83 W/m 14,3 C 14,9 C 3,2 km/h (1 Bft) 95,92 %
01.09.2017 13:18 14,9 C 22,8 C 96 % 1013,9 hPa 0,0 l/m 2,1 km/h (1 Bft) W 277 0 min 0,000 mm 0,5 UV-I 69 W/m 14,3 C 14,9 C 4,8 km/h (1 Bft) 95,92 %
01.09.2017 13:20 14,9 C 22,8 C 96 % 1013,9 hPa 0,0 l/m 2,7 km/h (1 Bft) SW 234 0 min 0,000 mm 0,5 UV-I 71 W/m 14,3 C 14,9 C 6,4 km/h (2 Bft) 97,87 %
01.09.2017 13:22 14,8 C 22,8 C 96 % 1013,9 hPa 0,2 l/m 5,9 km/h (2 Bft) NW 306 0 min 0,000 mm 0,6 UV-I 80 W/m 14,2 C 14,8 C 16,1 km/h (3 Bft) 97,87 %
01.09.2017 13:24 14,8 C 22,8 C 96 % 1013,8 hPa 0,0 l/m 3,2 km/h (1 Bft) W 271 0 min 0,000 mm 0,6 UV-I 83 W/m 14,2 C 14,8 C 11,3 km/h (2 Bft) 97,87 %
01.09.2017 13:26 14,8 C 22,8 C 96 % 1013,9 hPa 0,0 l/m 1,9 km/h (1 Bft) W-SW 246 0 min 0,000 mm 0,8 UV-I 102 W/m 14,2 C 14,8 C 4,8 km/h (1 Bft) 100,00 %
01.09.2017 13:28 14,8 C 22,8 C 96 % 1013,8 hPa 0,0 l/m 5,4 km/h (1 Bft) W-SW 244 0 min 0,000 mm 0,8 UV-I 108 W/m 14,2 C 14,8 C 11,3 km/h (2 Bft) 97,87 %
01.09.2017 13:30 14,9 C 22,8 C 97 % 1013,9 hPa 0,0 l/m 3,3 km/h (1 Bft) SW 231 0 min 0,000 mm 0,8 UV-I 104 W/m 14,4 C 14,9 C 9,7 km/h (2 Bft) 98,00 %
01.09.2017 13:32 14,9 C 22,8 C 97 % 1013,9 hPa 0,0 l/m 3,8 km/h (1 Bft) W 262 0 min 0,000 mm 0,7 UV-I 85 W/m 14,4 C 14,9 C 8,0 km/h (2 Bft) 97,87 %
01.09.2017 13:34 14,9 C 22,8 C 96 % 1013,9 hPa 0,0 l/m 4,6 km/h (1 Bft) SW 230 0 min 0,000 mm 0,5 UV-I 72 W/m 14,3 C 14,9 C 8,0 km/h (2 Bft) 97,87 %
01.09.2017 13:36 14,9 C 22,8 C 97 % 1013,9 hPa 0,0 l/m 6,7 km/h (2 Bft) SW 223 0 min 0,000 mm 0,5 UV-I 67 W/m 14,4 C 14,7 C 12,9 km/h (3 Bft) 95,74 %
01.09.2017 13:38 14,8 C 22,8 C 96 % 1013,9 hPa 0,2 l/m 7,3 km/h (2 Bft) W-SW 254 0 min 0,000 mm 0,3 UV-I 64 W/m 14,2 C 14,3 C 14,5 km/h (3 Bft) 95,74 %
01.09.2017 13:40 14,8 C 22,8 C 96 % 1014,0 hPa 0,0 l/m 7,8 km/h (2 Bft) W-SW 246 0 min 0,000 mm 0,1 UV-I 67 W/m 14,2 C 14,0 C 16,1 km/h (3 Bft) 97,87 %
01.09.2017 13:42 14,8 C 22,8 C 96 % 1013,9 hPa 0,0 l/m 9,0 km/h (2 Bft) W-NW 293 0 min 0,000 mm 0,6 UV-I 79 W/m 14,2 C 13,4 C 16,1 km/h (3 Bft) 97,92 %
01.09.2017 13:44 14,7 C 22,8 C 96 % 1014,0 hPa 0,2 l/m 4,9 km/h (1 Bft) W-SW 256 0 min 0,000 mm 0,6 UV-I 84 W/m 14,1 C 14,7 C 9,7 km/h (2 Bft) 97,14 %
01.09.2017 13:46 14,7 C 22,8 C 96 % 1014,0 hPa 0,0 l/m 7,8 km/h (2 Bft) W 281 0 min 0,000 mm 0,7 UV-I 90 W/m 14,1 C 13,9 C 14,5 km/h (3 Bft) 97,96 %
01.09.2017 13:48 14,7 C 22,8 C 96 % 1014,0 hPa 0,2 l/m 6,8 km/h (2 Bft) SW 220 0 min 0,000 mm 0,6 UV-I 84 W/m 14,1 C 14,5 C 14,5 km/h (3 Bft) 95,74 %
01.09.2017 13:50 14,7 C 22,8 C 96 % 1014,0 hPa 0,0 l/m 6,2 km/h (2 Bft) SW 229 0 min 0,000 mm 0,6 UV-I 75 W/m 14,1 C 14,7 C 12,9 km/h (3 Bft) 98,00 %
01.09.2017 13:52 14,7 C 22,8 C 96 % 1014,1 hPa 0,2 l/m 7,3 km/h (2 Bft) W 267 0 min 0,000 mm 0,6 UV-I 80 W/m 14,1 C 14,2 C 12,9 km/h (3 Bft) 96,00 %
01.09.2017 13:54 14,7 C 22,8 C 96 % 1014,0 hPa 0,0 l/m 9,1 km/h (2 Bft) W-SW 254 0 min 0,000 mm 0,6 UV-I 86 W/m 14,1 C 13,2 C 14,5 km/h (3 Bft) 95,74 %
01.09.2017 13:56 14,7 C 22,8 C 96 % 1014,1 hPa 0,0 l/m 5,7 km/h (1 Bft) W 264 0 min 0,000 mm 0,7 UV-I 96 W/m 14,1 C 14,7 C 11,3 km/h (2 Bft) 95,74 %
01.09.2017 13:58 14,7 C 22,8 C 96 % 1014,0 hPa 0,0 l/m 6,5 km/h (2 Bft) SW 232 0 min 0,000 mm 0,7 UV-I 89 W/m 14,1 C 14,7 C 12,9 km/h (3 Bft) 97,37 %
01.09.2017 14:00 14,7 C 22,8 C 96 % 1014,1 hPa 0,2 l/m 6,4 km/h (2 Bft) W 269 0 min 0,051 mm 0,7 UV-I 88 W/m 14,1 C 14,7 C 11,3 km/h (2 Bft) 97,87 %
01.09.2017 14:02 14,8 C 22,8 C 97 % 1014,0 hPa 0,0 l/m 5,7 km/h (1 Bft) W-SW 250 0 min 0,000 mm 0,7 UV-I 91 W/m 14,3 C 14,8 C 8,0 km/h (2 Bft) 98,00 %
01.09.2017 14:04 14,8 C 22,8 C 96 % 1014,0 hPa 0,0 l/m 7,0 km/h (2 Bft) W 268 0 min 0,000 mm 0,7 UV-I 94 W/m 14,2 C 14,5 C 16,1 km/h (3 Bft) 97,96 %
01.09.2017 14:06 14,7 C 22,8 C 96 % 1014,0 hPa 0,0 l/m 8,4 km/h (2 Bft) S-SW 211 0 min 0,000 mm 0,7 UV-I 93 W/m 14,1 C 13,6 C 16,1 km/h (3 Bft) 97,87 %
01.09.2017 14:08 14,7 C 22,8 C 96 % 1014,0 hPa 0,2 l/m 6,6 km/h (2 Bft) W-NW 296 0 min 0,000 mm 0,7 UV-I 93 W/m 14,1 C 14,6 C 9,7 km/h (2 Bft) 95,74 %
01.09.2017 14:10 14,7 C 22,8 C 96 % 1014,1 hPa 0,0 l/m 9,1 km/h (2 Bft) W 261 0 min 0,000 mm 0,8 UV-I 104 W/m 14,1 C 13,2 C 14,5 km/h (3 Bft) 97,87 %
01.09.2017 14:12 14,7 C 22,8 C 96 % 1014,1 hPa 0,0 l/m 4,4 km/h (1 Bft) W-SW 240 0 min 0,000 mm 0,8 UV-I 108 W/m 14,1 C 14,7 C 11,3 km/h (2 Bft) 96,00 %
01.09.2017 14:14 14,7 C 22,8 C 96 % 1014,1 hPa 0,2 l/m 6,9 km/h (2 Bft) S-SW 212 0 min 0,000 mm 0,9 UV-I 116 W/m 14,1 C 14,4 C 14,5 km/h (3 Bft) 95,92 %
01.09.2017 14:16 14,7 C 22,8 C 96 % 1014,1 hPa 0,0 l/m 5,0 km/h (1 Bft) W-SW 251 0 min 0,000 mm 0,8 UV-I 109 W/m 14,1 C 14,7 C 9,7 km/h (2 Bft) 97,37 %
01.09.2017 14:18 14,7 C 22,8 C 97 % 1014,1 hPa 0,0 l/m 8,2 km/h (2 Bft) W-NW 290 0 min 0,000 mm 0,8 UV-I 114 W/m 14,2 C 13,7 C 16,1 km/h (3 Bft) 93,62 %
01.09.2017 14:20 14,7 C 22,8 C 96 % 1014,1 hPa 0,0 l/m 4,8 km/h (1 Bft) NW 307 0 min 0,000 mm 0,9 UV-I 120 W/m 14,1 C 14,7 C 9,7 km/h (2 Bft) 97,87 %
01.09.2017 14:22 14,7 C 22,8 C 96 % 1014,1 hPa 0,0 l/m 5,9 km/h (2 Bft) W-SW 251 0 min 0,000 mm 0,9 UV-I 119 W/m 14,1 C 14,7 C 14,5 km/h (3 Bft) 93,62 %
01.09.2017 14:24 14,7 C 22,8 C 96 % 1014,1 hPa 0,2 l/m 4,7 km/h (1 Bft) W 262 0 min 0,000 mm 0,8 UV-I 108 W/m 14,1 C 14,7 C 12,9 km/h (3 Bft) 97,87 %
01.09.2017 14:26 14,7 C 22,8 C 96 % 1014,2 hPa 0,0 l/m 6,6 km/h (2 Bft) W 281 0 min 0,000 mm 0,8 UV-I 105 W/m 14,1 C 14,6 C 14,5 km/h (3 Bft) 97,87 %
01.09.2017 14:28 14,7 C 22,8 C 96 % 1014,2 hPa 0,0 l/m 8,2 km/h (2 Bft) W 269 0 min 0,000 mm 0,8 UV-I 110 W/m 14,1 C 13,7 C 16,1 km/h (3 Bft) 96,00 %
01.09.2017 14:30 14,7 C 22,8 C 96 % 1014,2 hPa 0,0 l/m 5,8 km/h (2 Bft) SW 235 0 min 0,000 mm 0,8 UV-I 119 W/m 14,1 C 14,7 C 11,3 km/h (2 Bft) 100,00 %
01.09.2017 14:32 14,8 C 22,8 C 96 % 1014,2 hPa 0,0 l/m 7,3 km/h (2 Bft) W-SW 250 0 min 0,000 mm 0,8 UV-I 120 W/m 14,2 C 14,3 C 11,3 km/h (2 Bft) 97,87 %
01.09.2017 14:34 14,8 C 22,8 C 96 % 1014,2 hPa 0,2 l/m 5,4 km/h (1 Bft) W 259 0 min 0,000 mm 0,8 UV-I 118 W/m 14,2 C 14,8 C 11,3 km/h (2 Bft) 97,96 %
01.09.2017 14:36 14,8 C 22,8 C 97 % 1014,2 hPa 0,0 l/m 9,2 km/h (2 Bft) W-SW 250 0 min 0,000 mm 0,8 UV-I 112 W/m 14,3 C 13,3 C 17,7 km/h (3 Bft) 95,74 %
01.09.2017 14:38 14,8 C 22,8 C 97 % 1014,2 hPa 0,0 l/m 10,5 km/h (2 Bft) W-SW 244 0 min 0,000 mm 0,7 UV-I 112 W/m 14,3 C 12,7 C 20,9 km/h (4 Bft) 100,00 %
01.09.2017 14:40 14,8 C 22,8 C 97 % 1014,2 hPa 0,2 l/m 8,1 km/h (2 Bft) W 259 0 min 0,000 mm 0,8 UV-I 119 W/m 14,3 C 13,8 C 12,9 km/h (3 Bft) 97,87 %
01.09.2017 14:42 14,8 C 22,8 C 97 % 1014,1 hPa 0,0 l/m 5,6 km/h (1 Bft) W-NW 290 0 min 0,000 mm 1,0 UV-I 148 W/m 14,3 C 14,8 C 9,7 km/h (2 Bft) 100,00 %
01.09.2017 14:44 14,8 C 22,8 C 96 % 1014,1 hPa 0,0 l/m 7,9 km/h (2 Bft) W 277 0 min 0,000 mm 1,1 UV-I 169 W/m 14,2 C 13,9 C 14,5 km/h (3 Bft) 100,00 %
01.09.2017 14:46 14,8 C 22,8 C 97 % 1014,1 hPa 0,0 l/m 9,1 km/h (2 Bft) W-SW 244 0 min 0,000 mm 1,2 UV-I 174 W/m 14,3 C 13,3 C 20,9 km/h (4 Bft) 100,00 %
01.09.2017 14:48 14,8 C 22,8 C 97 % 1014,1 hPa 0,2 l/m 8,8 km/h (2 Bft) W-SW 242 0 min 0,000 mm 1,1 UV-I 171 W/m 14,3 C 13,5 C 14,5 km/h (3 Bft) 97,87 %
01.09.2017 14:50 14,9 C 22,8 C 97 % 1014,1 hPa 0,0 l/m 7,6 km/h (2 Bft) W-SW 244 0 min 0,000 mm 1,1 UV-I 164 W/m 14,4 C 14,2 C 16,1 km/h (3 Bft) 97,87 %
01.09.2017 14:52 14,9 C 22,8 C 97 % 1014,1 hPa 0,0 l/m 5,4 km/h (1 Bft) SW 232 0 min 0,000 mm 1,1 UV-I 160 W/m 14,4 C 14,9 C 12,9 km/h (3 Bft) 100,00 %
01.09.2017 14:54 14,9 C 22,8 C 97 % 1014,1 hPa 0,0 l/m 7,9 km/h (2 Bft) W 259 0 min 0,000 mm 1,0 UV-I 151 W/m 14,4 C 14,1 C 14,5 km/h (3 Bft) 97,87 %
01.09.2017 14:56 14,9 C 22,8 C 97 % 1014,1 hPa 0,0 l/m 8,3 km/h (2 Bft) W-NW 283 0 min 0,000 mm 0,9 UV-I 144 W/m 14,4 C 13,8 C 14,5 km/h (3 Bft) 98,00 %
01.09.2017 14:58 14,9 C 22,8 C 97 % 1014,1 hPa 0,0 l/m 5,7 km/h (1 Bft) W-NW 291 0 min 0,000 mm 0,9 UV-I 132 W/m 14,4 C 14,9 C 16,1 km/h (3 Bft) 95,74 %
01.09.2017 15:00 14,9 C 22,8 C 96 % 1014,2 hPa 0,0 l/m 7,9 km/h (2 Bft) W-SW 258 0 min 0,000 mm 0,8 UV-I 114 W/m 14,3 C 14,1 C 14,5 km/h (3 Bft) 95,83 %
01.09.2017 15:02 15,0 C 22,8 C 96 % 1014,1 hPa 0,2 l/m 8,0 km/h (2 Bft) W-SW 251 0 min 0,076 mm 0,6 UV-I 96 W/m 14,4 C 14,1 C 12,9 km/h (3 Bft) 97,37 %
01.09.2017 15:04 15,0 C 22,8 C 96 % 1014,2 hPa 0,0 l/m 8,5 km/h (2 Bft) W-SW 251 0 min 0,000 mm 0,7 UV-I 107 W/m 14,4 C 13,8 C 16,1 km/h (3 Bft) 95,74 %
01.09.2017 15:06 15,0 C 22,8 C 96 % 1014,2 hPa 0,0 l/m 8,5 km/h (2 Bft) NW 304 0 min 0,000 mm 0,8 UV-I 125 W/m 14,4 C 13,8 C 12,9 km/h (3 Bft) 96,00 %
01.09.2017 15:08 15,1 C 22,8 C 96 % 1014,1 hPa 0,0 l/m 6,0 km/h (2 Bft) W-SW 254 0 min 0,000 mm 0,7 UV-I 118 W/m 14,5 C 15,1 C 11,3 km/h (2 Bft) 97,87 %
01.09.2017 15:10 15,1 C 22,8 C 97 % 1014,2 hPa 0,0 l/m 4,9 km/h (1 Bft) W 265 0 min 0,000 mm 0,6 UV-I 99 W/m 14,6 C 15,1 C 9,7 km/h (2 Bft) 98,11 %
01.09.2017 15:12 15,2 C 22,8 C 97 % 1014,2 hPa 0,0 l/m 4,8 km/h (1 Bft) W 273 0 min 0,000 mm 0,3 UV-I 84 W/m 14,7 C 15,2 C 8,0 km/h (2 Bft) 97,87 %
01.09.2017 15:14 15,1 C 22,8 C 96 % 1014,3 hPa 0,0 l/m 10,2 km/h (2 Bft) W 275 0 min 0,000 mm 0,3 UV-I 88 W/m 14,5 C 13,1 C 14,5 km/h (3 Bft) 93,62 %
01.09.2017 15:16 14,9 C 22,8 C 96 % 1014,2 hPa 0,0 l/m 6,9 km/h (2 Bft) W 259 0 min 0,000 mm 0,7 UV-I 113 W/m 14,3 C 14,6 C 14,5 km/h (3 Bft) 93,62 %
01.09.2017 15:18 14,9 C 22,8 C 96 % 1014,3 hPa 0,2 l/m 8,3 km/h (2 Bft) SW 229 0 min 0,000 mm 0,6 UV-I 100 W/m 14,3 C 13,8 C 14,5 km/h (3 Bft) 97,87 %
01.09.2017 15:20 14,9 C 22,8 C 96 % 1014,2 hPa 0,0 l/m 7,2 km/h (2 Bft) W-NW 284 0 min 0,000 mm 0,7 UV-I 111 W/m 14,3 C 14,4 C 11,3 km/h (2 Bft) 94,29 %
01.09.2017 15:22 14,9 C 22,8 C 96 % 1014,2 hPa 0,0 l/m 5,2 km/h (1 Bft) W-SW 250 0 min 0,000 mm 0,8 UV-I 128 W/m 14,3 C 14,9 C 11,3 km/h (2 Bft) 96,23 %
01.09.2017 15:24 14,9 C 22,8 C 96 % 1014,3 hPa 0,0 l/m 6,7 km/h (2 Bft) SW 229 0 min 0,000 mm 0,8 UV-I 127 W/m 14,3 C 14,7 C 11,3 km/h (2 Bft) 98,00 %
01.09.2017 15:26 14,9 C 22,8 C 96 % 1014,2 hPa 0,0 l/m 5,3 km/h (1 Bft) W 265 0 min 0,000 mm 0,7 UV-I 126 W/m 14,3 C 14,9 C 9,7 km/h (2 Bft) 100,00 %
01.09.2017 15:28 14,9 C 22,8 C 96 % 1014,2 hPa 0,0 l/m 7,1 km/h (2 Bft) SW 225 0 min 0,000 mm 0,7 UV-I 125 W/m 14,3 C 14,5 C 12,9 km/h (3 Bft) 100,00 %
01.09.2017 15:30 15,0 C 22,8 C 96 % 1014,2 hPa 0,0 l/m 9,7 km/h (2 Bft) W 263 0 min 0,000 mm 0,8 UV-I 132 W/m 14,4 C 13,3 C 16,1 km/h (3 Bft) 95,74 %
01.09.2017 15:32 14,9 C 22,8 C 96 % 1014,2 hPa 0,0 l/m 6,7 km/h (2 Bft) W 259 0 min 0,000 mm 0,8 UV-I 130 W/m 14,3 C 14,7 C 11,3 km/h (2 Bft) 97,87 %
01.09.2017 15:34 15,0 C 22,8 C 96 % 1014,2 hPa 0,0 l/m 5,9 km/h (2 Bft) W-SW 252 0 min 0,000 mm 0,8 UV-I 141 W/m 14,4 C 15,0 C 11,3 km/h (2 Bft) 98,00 %
01.09.2017 15:36 15,0 C 22,8 C 96 % 1014,3 hPa 0,0 l/m 8,1 km/h (2 Bft) W-SW 246 0 min 0,000 mm 0,7 UV-I 118 W/m 14,4 C 14,0 C 17,7 km/h (3 Bft) 100,00 %
01.09.2017 15:38 15,1 C 22,8 C 96 % 1014,3 hPa 0,0 l/m 7,0 km/h (2 Bft) W-SW 248 0 min 0,000 mm 0,4 UV-I 83 W/m 14,5 C 14,8 C 12,9 km/h (3 Bft) 97,87 %
01.09.2017 15:40 15,1 C 22,8 C 96 % 1014,2 hPa 0,0 l/m 5,8 km/h (2 Bft) W 261 0 min 0,000 mm 0,0 UV-I 72 W/m 14,5 C 15,1 C 9,7 km/h (2 Bft) 100,00 %
01.09.2017 15:42 15,1 C 22,8 C 96 % 1014,3 hPa 0,0 l/m 6,9 km/h (2 Bft) W-SW 250 0 min 0,000 mm 0,0 UV-I 58 W/m 14,5 C 14,8 C 11,3 km/h (2 Bft) 100,00 %
01.09.2017 15:44 15,1 C 22,8 C 96 % 1014,2 hPa 0,2 l/m 5,9 km/h (2 Bft) W-SW 247 0 min 0,000 mm 0,0 UV-I 56 W/m 14,5 C 15,1 C 14,5 km/h (3 Bft) 100,00 %
01.09.2017 15:46 15,0 C 22,8 C 96 % 1014,3 hPa 0,0 l/m 7,3 km/h (2 Bft) W 276 0 min 0,000 mm 0,0 UV-I 54 W/m 14,4 C 14,5 C 16,1 km/h (3 Bft) 100,00 %
01.09.2017 15:48 14,9 C 22,8 C 96 % 1014,2 hPa 0,2 l/m 7,8 km/h (2 Bft) SW 232 0 min 0,000 mm 0,0 UV-I 71 W/m 14,3 C 14,1 C 19,3 km/h (3 Bft) 97,87 %
01.09.2017 15:50 14,9 C 22,8 C 96 % 1014,3 hPa 0,0 l/m 7,0 km/h (2 Bft) W-NW 283 0 min 0,000 mm 0,3 UV-I 84 W/m 14,3 C 14,6 C 16,1 km/h (3 Bft) 100,00 %
01.09.2017 15:52 14,9 C 22,8 C 96 % 1014,3 hPa 0,2 l/m 3,3 km/h (1 Bft) NW 305 0 min 0,000 mm 0,5 UV-I 87 W/m 14,3 C 14,9 C 11,3 km/h (2 Bft) 100,00 %
01.09.2017 15:54 14,8 C 22,8 C 96 % 1014,3 hPa 0,2 l/m 5,5 km/h (1 Bft) W-SW 244 0 min 0,000 mm 0,5 UV-I 90 W/m 14,2 C 14,8 C 11,3 km/h (2 Bft) 97,87 %
01.09.2017 15:56 14,8 C 22,8 C 96 % 1014,2 hPa 0,0 l/m 3,1 km/h (1 Bft) W 268 0 min 0,000 mm 0,5 UV-I 96 W/m 14,2 C 14,8 C 9,7 km/h (2 Bft) 100,00 %
01.09.2017 15:58 14,8 C 22,8 C 96 % 1014,2 hPa 0,2 l/m 1,9 km/h (1 Bft) NW 315 0 min 0,000 mm 0,5 UV-I 101 W/m 14,2 C 14,8 C 6,4 km/h (2 Bft) 100,00 %
01.09.2017 16:00 14,7 C 22,8 C 96 % 1014,3 hPa 0,0 l/m 2,6 km/h (1 Bft) W-SW 249 0 min 0,051 mm 0,6 UV-I 104 W/m 14,1 C 14,7 C 4,8 km/h (1 Bft) 100,00 %
01.09.2017 16:02 14,7 C 22,8 C 96 % 1014,3 hPa 0,2 l/m 2,9 km/h (1 Bft) W-SW 240 0 min 0,000 mm 0,5 UV-I 102 W/m 14,1 C 14,7 C 6,4 km/h (2 Bft) 100,00 %
01.09.2017 16:04 14,7 C 22,8 C 96 % 1014,3 hPa 0,0 l/m 1,6 km/h (1 Bft) NW 318 0 min 0,000 mm 0,5 UV-I 96 W/m 14,1 C 14,7 C 4,8 km/h (1 Bft) 97,14 %
01.09.2017 16:06 14,7 C 22,8 C 96 % 1014,3 hPa 0,0 l/m 4,5 km/h (1 Bft) W-NW 294 0 min 0,000 mm 0,4 UV-I 88 W/m 14,1 C 14,7 C 8,0 km/h (2 Bft) 98,00 %
01.09.2017 16:08 14,6 C 22,8 C 96 % 1014,4 hPa 0,2 l/m 5,3 km/h (1 Bft) SW 230 0 min 0,000 mm 0,0 UV-I 83 W/m 14,0 C 14,6 C 11,3 km/h (2 Bft) 100,00 %
01.09.2017 16:10 14,7 C 22,8 C 96 % 1014,3 hPa 0,0 l/m 4,0 km/h (1 Bft) W-SW 240 0 min 0,000 mm 0,0 UV-I 78 W/m 14,1 C 14,7 C 6,4 km/h (2 Bft) 100,00 %
01.09.2017 16:12 14,7 C 22,8 C 96 % 1014,4 hPa 0,2 l/m 4,1 km/h (1 Bft) W-SW 245 0 min 0,000 mm 0,0 UV-I 76 W/m 14,1 C 14,7 C 6,4 km/h (2 Bft) 97,92 %
01.09.2017 16:14 14,7 C 22,8 C 96 % 1014,4 hPa 0,0 l/m 7,1 km/h (2 Bft) W-SW 241 0 min 0,000 mm 0,0 UV-I 69 W/m 14,1 C 14,3 C 11,3 km/h (2 Bft) 97,87 %
01.09.2017 16:16 14,6 C 22,8 C 96 % 1014,5 hPa 0,2 l/m 6,0 km/h (2 Bft) W 279 0 min 0,000 mm 0,0 UV-I 66 W/m 14,0 C 14,6 C 11,3 km/h (2 Bft) 100,00 %
01.09.2017 16:18 14,6 C 22,8 C 96 % 1014,5 hPa 0,0 l/m 6,1 km/h (2 Bft) W-SW 257 0 min 0,000 mm 0,0 UV-I 57 W/m 14,0 C 14,6 C 11,3 km/h (2 Bft) 100,00 %
01.09.2017 16:20 14,6 C 22,8 C 96 % 1014,5 hPa 0,0 l/m 5,2 km/h (1 Bft) SW 232 0 min 0,000 mm 0,0 UV-I 49 W/m 14,0 C 14,6 C 6,4 km/h (2 Bft) 100,00 %
01.09.2017 16:22 14,6 C 22,8 C 96 % 1014,6 hPa 0,2 l/m 6,8 km/h (2 Bft) W-NW 289 0 min 0,000 mm 0,0 UV-I 44 W/m 14,0 C 14,4 C 11,3 km/h (2 Bft) 98,00 %
01.09.2017 16:24 14,6 C 22,8 C 96 % 1014,6 hPa 0,0 l/m 4,8 km/h (1 Bft) SW 234 0 min 0,000 mm 0,0 UV-I 39 W/m 14,0 C 14,6 C 11,3 km/h (2 Bft) 97,87 %
01.09.2017 16:26 14,6 C 22,8 C 96 % 1014,6 hPa 0,0 l/m 6,0 km/h (2 Bft) SW 227 0 min 0,000 mm 0,0 UV-I 34 W/m 14,0 C 14,6 C 11,3 km/h (2 Bft) 100,00 %
01.09.2017 16:28 14,6 C 22,8 C 96 % 1014,6 hPa 0,0 l/m 7,5 km/h (2 Bft) W-SW 256 0 min 0,000 mm 0,0 UV-I 32 W/m 14,0 C 14,0 C 14,5 km/h (3 Bft) 100,00 %
01.09.2017 16:30 14,6 C 22,8 C 96 % 1014,6 hPa 0,0 l/m 8,4 km/h (2 Bft) W-SW 238 0 min 0,000 mm 0,0 UV-I 30 W/m 14,0 C 13,5 C 11,3 km/h (2 Bft) 100,00 %
01.09.2017 16:32 14,6 C 22,8 C 96 % 1014,6 hPa 0,0 l/m 6,6 km/h (2 Bft) W-SW 254 0 min 0,000 mm 0,0 UV-I 27 W/m 14,0 C 14,5 C 9,7 km/h (2 Bft) 100,00 %
01.09.2017 16:34 14,5 C 22,8 C 96 % 1014,7 hPa 0,2 l/m 5,7 km/h (1 Bft) W-SW 248 0 min 0,000 mm 0,0 UV-I 26 W/m 13,9 C 14,5 C 9,7 km/h (2 Bft) 97,87 %
01.09.2017 16:36 14,5 C 22,8 C 96 % 1014,7 hPa 0,0 l/m 6,7 km/h (2 Bft) W 259 0 min 0,000 mm 0,0 UV-I 26 W/m 13,9 C 14,3 C 11,3 km/h (2 Bft) 97,87 %
01.09.2017 16:38 14,5 C 22,8 C 96 % 1014,6 hPa 0,0 l/m 4,9 km/h (1 Bft) W 279 0 min 0,000 mm 0,0 UV-I 26 W/m 13,9 C 14,5 C 9,7 km/h (2 Bft) 100,00 %
01.09.2017 16:40 14,5 C 22,8 C 96 % 1014,6 hPa 0,2 l/m 4,0 km/h (1 Bft) W-SW 246 0 min 0,000 mm 0,0 UV-I 29 W/m 13,9 C 14,5 C 8,0 km/h (2 Bft) 100,00 %
01.09.2017 16:42 14,5 C 22,8 C 96 % 1014,5 hPa 0,0 l/m 3,5 km/h (1 Bft) W 271 0 min 0,000 mm 0,0 UV-I 35 W/m 13,9 C 14,5 C 6,4 km/h (2 Bft) 100,00 %
01.09.2017 16:44 14,4 C 22,8 C 96 % 1014,5 hPa 0,0 l/m 4,6 km/h (1 Bft) W-SW 248 0 min 0,000 mm 0,0 UV-I 44 W/m 13,8 C 14,4 C 8,0 km/h (2 Bft) 100,00 %
01.09.2017 16:46 14,5 C 22,8 C 96 % 1014,6 hPa 0,0 l/m 4,7 km/h (1 Bft) W 281 0 min 0,000 mm 0,0 UV-I 54 W/m 13,9 C 14,5 C 6,4 km/h (2 Bft) 100,00 %
01.09.2017 16:48 14,5 C 22,8 C 96 % 1014,6 hPa 0,0 l/m 4,2 km/h (1 Bft) W-SW 249 0 min 0,000 mm 0,0 UV-I 65 W/m 13,9 C 14,5 C 6,4 km/h (2 Bft) 100,00 %
01.09.2017 16:50 14,5 C 22,8 C 96 % 1014,6 hPa 0,2 l/m 4,9 km/h (1 Bft) W-SW 257 0 min 0,000 mm 0,0 UV-I 79 W/m 13,9 C 14,5 C 6,4 km/h (2 Bft) 93,62 %
01.09.2017 16:52 14,6 C 22,8 C 97 % 1014,5 hPa 0,0 l/m 3,5 km/h (1 Bft) W-SW 256 0 min 0,000 mm 0,0 UV-I 92 W/m 14,1 C 14,6 C 4,8 km/h (1 Bft) 95,83 %
01.09.2017 16:54 14,7 C 22,8 C 97 % 1014,5 hPa 0,2 l/m 3,1 km/h (1 Bft) W-SW 256 0 min 0,000 mm 0,0 UV-I 109 W/m 14,2 C 14,7 C 4,8 km/h (1 Bft) 97,87 %
01.09.2017 16:56 14,7 C 22,8 C 97 % 1014,5 hPa 0,0 l/m 3,7 km/h (1 Bft) W-SW 256 0 min 0,000 mm 0,2 UV-I 121 W/m 14,2 C 14,7 C 6,4 km/h (2 Bft) 97,87 %
01.09.2017 16:58 14,7 C 22,8 C 96 % 1014,6 hPa 0,2 l/m 3,3 km/h (1 Bft) W-SW 252 0 min 0,000 mm 0,5 UV-I 125 W/m 14,1 C 14,7 C 4,8 km/h (1 Bft) 95,74 %
01.09.2017 17:00 14,8 C 22,2 C 97 % 1014,6 hPa 0,0 l/m 6,3 km/h (2 Bft) SW 232 0 min 0,025 mm 0,5 UV-I 122 W/m 14,3 C 14,8 C 11,3 km/h (2 Bft) 95,74 %
01.09.2017 17:02 14,8 C 22,8 C 97 % 1014,7 hPa 0,0 l/m 5,5 km/h (1 Bft) SW 228 0 min 0,000 mm 0,1 UV-I 113 W/m 14,3 C 14,8 C 8,0 km/h (2 Bft) 95,74 %
01.09.2017 17:04 14,8 C 22,8 C 97 % 1014,7 hPa 0,0 l/m 4,6 km/h (1 Bft) W-SW 240 0 min 0,000 mm 0,0 UV-I 103 W/m 14,3 C 14,8 C 8,0 km/h (2 Bft) 97,87 %
01.09.2017 17:06 14,9 C 22,2 C 97 % 1014,8 hPa 0,0 l/m 4,5 km/h (1 Bft) W 260 0 min 0,000 mm 0,0 UV-I 98 W/m 14,4 C 14,9 C 9,7 km/h (2 Bft) 95,74 %
01.09.2017 17:08 14,9 C 22,2 C 97 % 1014,8 hPa 0,0 l/m 4,8 km/h (1 Bft) W-SW 255 0 min 0,000 mm 0,0 UV-I 96 W/m 14,4 C 14,9 C 8,0 km/h (2 Bft) 95,74 %
01.09.2017 17:10 15,0 C 22,2 C 97 % 1014,9 hPa 0,0 l/m 4,3 km/h (1 Bft) W-SW 258 0 min 0,000 mm 0,0 UV-I 88 W/m 14,5 C 15,0 C 6,4 km/h (2 Bft) 93,62 %
01.09.2017 17:12 15,1 C 22,2 C 97 % 1014,9 hPa 0,0 l/m 5,4 km/h (1 Bft) SW 225 0 min 0,000 mm 0,0 UV-I 72 W/m 14,6 C 15,1 C 8,0 km/h (2 Bft) 96,00 %
01.09.2017 17:14 15,1 C 22,2 C 97 % 1014,9 hPa 0,0 l/m 7,1 km/h (2 Bft) W 263 0 min 0,000 mm 0,0 UV-I 63 W/m 14,6 C 14,7 C 11,3 km/h (2 Bft) 95,74 %
01.09.2017 17:16 15,0 C 22,2 C 96 % 1014,9 hPa 0,0 l/m 10,5 km/h (2 Bft) W-SW 244 0 min 0,000 mm 0,0 UV-I 56 W/m 14,4 C 12,9 C 14,5 km/h (3 Bft) 92,00 %
01.09.2017 17:19 14,9 C 22,2 C 96 % 1014,9 hPa 0,0 l/m 10,0 km/h (2 Bft) W-SW 256 0 min 0,000 mm 0,0 UV-I 53 W/m 14,3 C 13,0 C 16,1 km/h (3 Bft) 95,89 %
01.09.2017 17:20 14,9 C 22,2 C 96 % 1014,9 hPa 0,2 l/m 8,0 km/h (2 Bft) W 263 0 min 0,000 mm 0,0 UV-I 50 W/m 14,3 C 14,0 C 12,9 km/h (3 Bft) 91,67 %
01.09.2017 17:22 14,9 C 22,2 C 96 % 1014,9 hPa 0,0 l/m 6,9 km/h (2 Bft) W 262 0 min 0,000 mm 0,0 UV-I 41 W/m 14,3 C 14,6 C 11,3 km/h (2 Bft) 96,36 %
01.09.2017 17:24 14,9 C 22,2 C 96 % 1014,8 hPa 0,0 l/m 7,2 km/h (2 Bft) W-SW 252 0 min 0,000 mm 0,0 UV-I 36 W/m 14,3 C 14,4 C 14,5 km/h (3 Bft) 95,74 %
01.09.2017 17:26 14,8 C 22,2 C 96 % 1014,8 hPa 0,0 l/m 9,2 km/h (2 Bft) W-SW 250 0 min 0,000 mm 0,0 UV-I 39 W/m 14,2 C 13,3 C 14,5 km/h (3 Bft) 95,74 %
01.09.2017 17:28 14,8 C 22,2 C 96 % 1014,8 hPa 0,0 l/m 4,5 km/h (1 Bft) W-SW 252 0 min 0,000 mm 0,0 UV-I 46 W/m 14,2 C 14,8 C 9,7 km/h (2 Bft) 95,74 %
01.09.2017 17:30 14,8 C 22,2 C 96 % 1014,8 hPa 0,0 l/m 7,2 km/h (2 Bft) SW 233 0 min 0,000 mm 0,0 UV-I 58 W/m 14,2 C 14,3 C 11,3 km/h (2 Bft) 97,87 %
01.09.2017 17:32 14,9 C 22,2 C 96 % 1014,9 hPa 0,0 l/m 6,5 km/h (2 Bft) W-SW 243 0 min 0,000 mm 0,0 UV-I 77 W/m 14,3 C 14,9 C 12,9 km/h (3 Bft) 97,87 %
01.09.2017 17:34 14,9 C 22,2 C 96 % 1014,7 hPa 0,0 l/m 6,1 km/h (2 Bft) W-NW 291 0 min 0,000 mm 0,0 UV-I 97 W/m 14,3 C 14,9 C 9,7 km/h (2 Bft) 97,22 %
01.09.2017 17:36 14,9 C 22,2 C 96 % 1014,8 hPa 0,0 l/m 5,7 km/h (1 Bft) SW 236 0 min 0,000 mm 0,0 UV-I 138 W/m 14,3 C 14,9 C 9,7 km/h (2 Bft) 98,00 %
01.09.2017 17:38 15,0 C 22,2 C 96 % 1014,8 hPa 0,0 l/m 6,1 km/h (2 Bft) W-SW 252 0 min 0,000 mm 0,0 UV-I 174 W/m 14,4 C 15,0 C 9,7 km/h (2 Bft) 93,62 %
01.09.2017 17:40 15,1 C 22,2 C 96 % 1014,9 hPa 0,0 l/m 6,5 km/h (2 Bft) W 269 2 min 0,000 mm 0,0 UV-I 192 W/m 14,5 C 15,1 C 9,7 km/h (2 Bft) 96,00 %
01.09.2017 17:42 15,1 C 22,2 C 96 % 1014,9 hPa 0,0 l/m 7,7 km/h (2 Bft) SW 236 2 min 0,000 mm 0,0 UV-I 185 W/m 14,5 C 14,4 C 12,9 km/h (3 Bft) 95,74 %
01.09.2017 17:44 15,1 C 22,2 C 96 % 1014,9 hPa 0,0 l/m 6,3 km/h (2 Bft) W-SW 242 0 min 0,000 mm 0,0 UV-I 174 W/m 14,5 C 15,1 C 12,9 km/h (3 Bft) 97,87 %
01.09.2017 17:46 15,2 C 22,2 C 96 % 1014,9 hPa 0,0 l/m 5,4 km/h (1 Bft) W-SW 256 0 min 0,000 mm 0,0 UV-I 150 W/m 14,6 C 15,2 C 9,7 km/h (2 Bft) 95,74 %
01.09.2017 17:48 15,2 C 22,2 C 96 % 1015,0 hPa 0,0 l/m 5,9 km/h (2 Bft) W-SW 246 0 min 0,000 mm 0,0 UV-I 113 W/m 14,6 C 15,2 C 11,3 km/h (2 Bft) 95,74 %
01.09.2017 17:50 15,2 C 22,2 C 96 % 1015,0 hPa 0,0 l/m 8,9 km/h (2 Bft) W-SW 249 0 min 0,000 mm 0,0 UV-I 92 W/m 14,6 C 13,9 C 12,9 km/h (3 Bft) 98,00 %
01.09.2017 17:52 15,2 C 22,2 C 96 % 1015,0 hPa 0,0 l/m 6,6 km/h (2 Bft) W-SW 250 0 min 0,000 mm 0,0 UV-I 85 W/m 14,6 C 15,1 C 12,9 km/h (3 Bft) 95,74 %
01.09.2017 17:54 15,1 C 22,2 C 96 % 1015,0 hPa 0,0 l/m 3,4 km/h (1 Bft) W-SW 255 0 min 0,000 mm 0,0 UV-I 78 W/m 14,5 C 15,1 C 4,8 km/h (1 Bft) 97,87 %
01.09.2017 17:56 15,2 C 22,2 C 96 % 1014,9 hPa 0,0 l/m 3,9 km/h (1 Bft) SW 236 0 min 0,000 mm 0,0 UV-I 69 W/m 14,6 C 15,2 C 6,4 km/h (2 Bft) 95,74 %
01.09.2017 17:58 15,1 C 22,2 C 96 % 1014,9 hPa 0,0 l/m 3,0 km/h (1 Bft) W 277 0 min 0,000 mm 0,0 UV-I 66 W/m 14,5 C 15,1 C 6,4 km/h (2 Bft) 95,74 %
01.09.2017 18:00 15,1 C 22,2 C 96 % 1014,9 hPa 0,0 l/m 4,6 km/h (1 Bft) W 277 0 min 0,000 mm 0,0 UV-I 60 W/m 14,5 C 15,1 C 6,4 km/h (2 Bft) 97,14 %
01.09.2017 18:02 15,1 C 22,2 C 96 % 1015,0 hPa 0,0 l/m 3,3 km/h (1 Bft) W-SW 252 0 min 0,051 mm 0,0 UV-I 51 W/m 14,5 C 15,1 C 6,4 km/h (2 Bft) 96,23 %
01.09.2017 18:04 15,1 C 22,2 C 96 % 1015,0 hPa 0,0 l/m 5,2 km/h (1 Bft) W-SW 258 0 min 0,000 mm 0,0 UV-I 43 W/m 14,5 C 15,1 C 8,0 km/h (2 Bft) 97,87 %
01.09.2017 18:06 15,1 C 22,2 C 96 % 1015,0 hPa 0,0 l/m 8,5 km/h (2 Bft) W-SW 254 0 min 0,000 mm 0,0 UV-I 45 W/m 14,5 C 13,9 C 16,1 km/h (3 Bft) 98,00 %
01.09.2017 18:08 15,0 C 22,2 C 96 % 1015,0 hPa 0,0 l/m 7,6 km/h (2 Bft) W 260 0 min 0,000 mm 0,0 UV-I 46 W/m 14,4 C 14,3 C 12,9 km/h (3 Bft) 95,74 %
01.09.2017 18:10 15,0 C 22,2 C 96 % 1015,1 hPa 0,0 l/m 6,7 km/h (2 Bft) SW 231 0 min 0,000 mm 0,0 UV-I 45 W/m 14,4 C 14,8 C 11,3 km/h (2 Bft) 97,87 %
01.09.2017 18:12 15,0 C 22,2 C 95 % 1015,0 hPa 0,0 l/m 7,2 km/h (2 Bft) W 261 0 min 0,000 mm 0,0 UV-I 41 W/m 14,2 C 14,5 C 11,3 km/h (2 Bft) 97,92 %
01.09.2017 18:14 15,0 C 22,2 C 95 % 1015,0 hPa 0,0 l/m 5,6 km/h (1 Bft) SW 228 0 min 0,000 mm 0,0 UV-I 34 W/m 14,2 C 15,0 C 9,7 km/h (2 Bft) 97,22 %
01.09.2017 18:16 15,0 C 22,2 C 95 % 1015,0 hPa 0,0 l/m 6,3 km/h (2 Bft) W-NW 298 0 min 0,000 mm 0,0 UV-I 32 W/m 14,2 C 15,0 C 11,3 km/h (2 Bft) 96,00 %
01.09.2017 18:18 14,9 C 22,2 C 95 % 1015,0 hPa 0,0 l/m 4,8 km/h (1 Bft) W-SW 249 0 min 0,000 mm 0,0 UV-I 27 W/m 14,1 C 14,9 C 8,0 km/h (2 Bft) 98,00 %
01.09.2017 18:20 14,9 C 22,2 C 95 % 1015,0 hPa 0,0 l/m 6,4 km/h (2 Bft) SW 234 0 min 0,000 mm 0,0 UV-I 26 W/m 14,1 C 14,9 C 11,3 km/h (2 Bft) 97,87 %
01.09.2017 18:22 14,9 C 22,2 C 95 % 1015,0 hPa 0,0 l/m 6,2 km/h (2 Bft) W 269 0 min 0,000 mm 0,0 UV-I 26 W/m 14,1 C 14,9 C 11,3 km/h (2 Bft) 97,87 %
01.09.2017 18:24 14,9 C 22,2 C 95 % 1015,1 hPa 0,0 l/m 5,8 km/h (2 Bft) W-SW 240 0 min 0,000 mm 0,0 UV-I 31 W/m 14,1 C 14,9 C 9,7 km/h (2 Bft) 100,00 %
01.09.2017 18:26 14,9 C 22,2 C 95 % 1015,1 hPa 0,0 l/m 5,9 km/h (2 Bft) W-SW 246 0 min 0,000 mm 0,0 UV-I 32 W/m 14,1 C 14,9 C 9,7 km/h (2 Bft) 97,87 %
01.09.2017 18:28 14,9 C 22,2 C 95 % 1015,1 hPa 0,0 l/m 5,2 km/h (1 Bft) W 265 0 min 0,000 mm 0,0 UV-I 30 W/m 14,1 C 14,9 C 11,3 km/h (2 Bft) 100,00 %
01.09.2017 18:30 14,8 C 22,2 C 95 % 1015,1 hPa 0,0 l/m 6,6 km/h (2 Bft) W-SW 251 0 min 0,000 mm 0,0 UV-I 26 W/m 14,0 C 14,7 C 9,7 km/h (2 Bft) 95,74 %
01.09.2017 18:32 14,8 C 22,2 C 95 % 1015,1 hPa 0,0 l/m 4,6 km/h (1 Bft) W-SW 250 0 min 0,000 mm 0,0 UV-I 27 W/m 14,0 C 14,8 C 6,4 km/h (2 Bft) 100,00 %
01.09.2017 18:34 14,8 C 22,2 C 95 % 1015,1 hPa 0,0 l/m 3,4 km/h (1 Bft) W-SW 244 0 min 0,000 mm 0,0 UV-I 30 W/m 14,0 C 14,8 C 4,8 km/h (1 Bft) 100,00 %
01.09.2017 18:36 14,8 C 22,2 C 95 % 1015,1 hPa 0,0 l/m 5,3 km/h (1 Bft) W-SW 258 0 min 0,000 mm 0,0 UV-I 32 W/m 14,0 C 14,8 C 11,3 km/h (2 Bft) 100,00 %
01.09.2017 18:38 14,8 C 22,2 C 95 % 1015,1 hPa 0,0 l/m 3,4 km/h (1 Bft) W 259 0 min 0,000 mm 0,0 UV-I 35 W/m 14,0 C 14,8 C 4,8 km/h (1 Bft) 100,00 %
01.09.2017 18:40 14,8 C 22,2 C 95 % 1015,1 hPa 0,0 l/m 4,1 km/h (1 Bft) W 259 0 min 0,000 mm 0,0 UV-I 39 W/m 14,0 C 14,8 C 6,4 km/h (2 Bft) 100,00 %
01.09.2017 18:42 14,9 C 22,2 C 95 % 1015,2 hPa 0,0 l/m 4,2 km/h (1 Bft) W 259 0 min 0,000 mm 0,0 UV-I 36 W/m 14,1 C 14,9 C 4,8 km/h (1 Bft) 100,00 %
01.09.2017 18:44 14,9 C 22,2 C 95 % 1015,2 hPa 0,0 l/m 4,8 km/h (1 Bft) W 259 0 min 0,000 mm 0,0 UV-I 29 W/m 14,1 C 14,9 C 6,4 km/h (2 Bft) 100,00 %
01.09.2017 18:46 14,9 C 22,2 C 95 % 1015,2 hPa 0,0 l/m 4,2 km/h (1 Bft) W 259 0 min 0,000 mm 0,0 UV-I 25 W/m 14,1 C 14,9 C 9,7 km/h (2 Bft) 100,00 %
01.09.2017 18:48 14,8 C 22,2 C 95 % 1015,3 hPa 0,0 l/m 3,6 km/h (1 Bft) W-NW 285 0 min 0,000 mm 0,0 UV-I 25 W/m 14,0 C 14,8 C 6,4 km/h (2 Bft) 97,87 %
01.09.2017 18:50 14,8 C 22,2 C 95 % 1015,2 hPa 0,0 l/m 4,8 km/h (1 Bft) W-SW 242 0 min 0,000 mm 0,0 UV-I 28 W/m 14,0 C 14,8 C 6,4 km/h (2 Bft) 94,87 %
01.09.2017 18:52 14,8 C 22,2 C 95 % 1015,3 hPa 0,0 l/m 3,7 km/h (1 Bft) W 271 0 min 0,000 mm 0,0 UV-I 30 W/m 14,0 C 14,8 C 9,7 km/h (2 Bft) 97,87 %
01.09.2017 18:54 14,9 C 22,2 C 95 % 1015,3 hPa 0,0 l/m 4,0 km/h (1 Bft) W 267 0 min 0,000 mm 0,0 UV-I 27 W/m 14,1 C 14,9 C 6,4 km/h (2 Bft) 95,74 %
01.09.2017 18:56 14,8 C 22,2 C 95 % 1015,3 hPa 0,0 l/m 3,0 km/h (1 Bft) W 269 0 min 0,000 mm 0,0 UV-I 26 W/m 14,0 C 14,8 C 4,8 km/h (1 Bft) 98,00 %
01.09.2017 18:58 14,8 C 22,2 C 95 % 1015,3 hPa 0,0 l/m 3,0 km/h (1 Bft) W-NW 292 0 min 0,000 mm 0,0 UV-I 28 W/m 14,0 C 14,8 C 6,4 km/h (2 Bft) 97,87 %
01.09.2017 19:00 14,8 C 22,2 C 95 % 1015,1 hPa 0,0 l/m 0,8 km/h (0 Bft) W-NW 292 0 min 0,025 mm 0,0 UV-I 35 W/m 14,0 C 14,8 C 3,2 km/h (1 Bft) 97,87 %
01.09.2017 19:02 14,8 C 22,2 C 95 % 1015,1 hPa 0,0 l/m 1,8 km/h (1 Bft) W-NW 292 0 min 0,000 mm 0,0 UV-I 43 W/m 14,0 C 14,8 C 3,2 km/h (1 Bft) 91,49 %
01.09.2017 19:04 14,8 C 22,2 C 96 % 1015,1 hPa 0,0 l/m 0,7 km/h (0 Bft) W-NW 292 0 min 0,000 mm 0,0 UV-I 46 W/m 14,2 C 14,8 C 3,2 km/h (1 Bft) 95,74 %
01.09.2017 19:06 14,8 C 22,2 C 96 % 1015,2 hPa 0,0 l/m 0,2 km/h (0 Bft) W-NW 292 0 min 0,000 mm 0,0 UV-I 43 W/m 14,2 C 14,8 C 1,6 km/h (1 Bft) 97,87 %
01.09.2017 19:08 14,8 C 22,2 C 96 % 1015,2 hPa 0,0 l/m 1,1 km/h (1 Bft) W-NW 290 0 min 0,000 mm 0,0 UV-I 37 W/m 14,2 C 14,8 C 4,8 km/h (1 Bft) 97,87 %
01.09.2017 19:10 14,8 C 22,2 C 96 % 1015,1 hPa 0,0 l/m 1,1 km/h (1 Bft) W-NW 290 0 min 0,000 mm 0,0 UV-I 33 W/m 14,2 C 14,8 C 3,2 km/h (1 Bft) 95,74 %
01.09.2017 19:12 14,8 C 22,2 C 96 % 1015,1 hPa 0,0 l/m 1,0 km/h (0 Bft) W-NW 291 0 min 0,000 mm 0,0 UV-I 32 W/m 14,2 C 14,8 C 3,2 km/h (1 Bft) 97,87 %
01.09.2017 19:14 14,8 C 22,2 C 96 % 1015,1 hPa 0,0 l/m 0,4 km/h (0 Bft) W-NW 291 0 min 0,000 mm 0,0 UV-I 31 W/m 14,2 C 14,8 C 1,6 km/h (1 Bft) 95,74 %
01.09.2017 19:16 14,8 C 22,2 C 96 % 1015,1 hPa 0,0 l/m 0,1 km/h (0 Bft) W-NW 291 0 min 0,000 mm 0,0 UV-I 29 W/m 14,2 C 14,8 C 1,6 km/h (1 Bft) 97,87 %
01.09.2017 19:18 14,8 C 22,2 C 96 % 1015,1 hPa 0,0 l/m 0,0 km/h (0 Bft) W-NW 291 0 min 0,000 mm 0,0 UV-I 26 W/m 14,2 C 14,8 C 0,0 km/h (0 Bft) 97,14 %
01.09.2017 19:20 14,8 C 22,2 C 96 % 1015,1 hPa 0,0 l/m 0,0 km/h (0 Bft) W-NW 291 0 min 0,000 mm 0,0 UV-I 22 W/m 14,2 C 14,8 C 1,6 km/h (1 Bft) 96,15 %
01.09.2017 19:22 14,8 C 22,2 C 96 % 1015,2 hPa 0,2 l/m 0,0 km/h (0 Bft) W-NW 291 0 min 0,000 mm 0,0 UV-I 20 W/m 14,2 C 14,8 C 0,0 km/h (0 Bft) 95,74 %
01.09.2017 19:24 14,7 C 22,2 C 96 % 1015,3 hPa 0,0 l/m 0,9 km/h (0 Bft) W-NW 291 0 min 0,000 mm 0,0 UV-I 19 W/m 14,1 C 14,7 C 3,2 km/h (1 Bft) 100,00 %
01.09.2017 19:26 14,7 C 22,2 C 95 % 1015,3 hPa 0,0 l/m 0,3 km/h (0 Bft) W-NW 291 0 min 0,000 mm 0,0 UV-I 21 W/m 13,9 C 14,7 C 3,2 km/h (1 Bft) 100,00 %
01.09.2017 19:28 14,7 C 22,2 C 95 % 1015,3 hPa 0,0 l/m 3,2 km/h (1 Bft) N-NO 26 2 min 0,000 mm 0,0 UV-I 19 W/m 13,9 C 14,7 C 8,0 km/h (2 Bft) 97,92 %
01.09.2017 19:30 14,6 C 22,2 C 95 % 1015,3 hPa 0,0 l/m 3,7 km/h (1 Bft) N-NW 344 2 min 0,000 mm 0,0 UV-I 18 W/m 13,8 C 14,6 C 8,0 km/h (2 Bft) 100,00 %
01.09.2017 19:32 14,4 C 22,2 C 94 % 1015,3 hPa 0,0 l/m 5,1 km/h (1 Bft) N 11 2 min 0,000 mm 0,0 UV-I 15 W/m 13,4 C 14,4 C 9,7 km/h (2 Bft) 100,00 %
01.09.2017 19:34 14,3 C 22,2 C 94 % 1015,3 hPa 0,0 l/m 2,6 km/h (1 Bft) NW 322 2 min 0,000 mm 0,0 UV-I 14 W/m 13,3 C 14,3 C 6,4 km/h (2 Bft) 97,87 %
01.09.2017 19:36 14,3 C 22,2 C 94 % 1015,3 hPa 0,0 l/m 2,1 km/h (1 Bft) NW 323 0 min 0,000 mm 0,0 UV-I 12 W/m 13,3 C 14,3 C 6,4 km/h (2 Bft) 100,00 %
01.09.2017 19:38 14,2 C 22,2 C 93 % 1015,4 hPa 0,0 l/m 2,6 km/h (1 Bft) N-NO 30 0 min 0,000 mm 0,0 UV-I 11 W/m 13,1 C 14,2 C 4,8 km/h (1 Bft) 97,87 %
01.09.2017 19:40 14,1 C 22,2 C 93 % 1015,4 hPa 0,0 l/m 2,6 km/h (1 Bft) NW 323 0 min 0,000 mm 0,0 UV-I 10 W/m 13,0 C 14,1 C 6,4 km/h (2 Bft) 97,87 %
01.09.2017 19:42 14,1 C 22,2 C 93 % 1015,3 hPa 0,0 l/m 1,0 km/h (0 Bft) N-NW 342 0 min 0,000 mm 0,0 UV-I 9 W/m 13,0 C 14,1 C 4,8 km/h (1 Bft) 97,87 %
01.09.2017 19:44 14,1 C 22,2 C 92 % 1015,4 hPa 0,0 l/m 3,3 km/h (1 Bft) N 5 0 min 0,000 mm 0,0 UV-I 9 W/m 12,8 C 14,1 C 8,0 km/h (2 Bft) 100,00 %
01.09.2017 19:46 14,1 C 22,2 C 92 % 1015,4 hPa 0,0 l/m 1,8 km/h (1 Bft) N-NW 342 0 min 0,000 mm 0,0 UV-I 7 W/m 12,8 C 14,1 C 6,4 km/h (2 Bft) 97,37 %
01.09.2017 19:48 14,1 C 22,2 C 92 % 1015,3 hPa 0,0 l/m 0,6 km/h (0 Bft) N-NW 338 0 min 0,000 mm 0,0 UV-I 7 W/m 12,8 C 14,1 C 3,2 km/h (1 Bft) 95,92 %
01.09.2017 19:50 14,0 C 22,2 C 92 % 1015,3 hPa 0,0 l/m 1,6 km/h (1 Bft) N 360 0 min 0,000 mm 0,0 UV-I 7 W/m 12,7 C 14,0 C 4,8 km/h (1 Bft) 100,00 %
01.09.2017 19:52 14,0 C 22,2 C 92 % 1015,3 hPa 0,0 l/m 1,9 km/h (1 Bft) N-NO 15 0 min 0,000 mm 0,0 UV-I 7 W/m 12,7 C 14,0 C 6,4 km/h (2 Bft) 98,00 %
01.09.2017 19:54 14,0 C 22,2 C 92 % 1015,3 hPa 0,0 l/m 2,2 km/h (1 Bft) N 355 0 min 0,000 mm 0,0 UV-I 5 W/m 12,7 C 14,0 C 4,8 km/h (1 Bft) 100,00 %
01.09.2017 19:56 13,9 C 22,2 C 91 % 1015,3 hPa 0,0 l/m 1,9 km/h (1 Bft) N-NW 344 0 min 0,000 mm 0,0 UV-I 5 W/m 12,5 C 13,9 C 4,8 km/h (1 Bft) 97,87 %
01.09.2017 19:58 13,9 C 22,2 C 91 % 1015,4 hPa 0,0 l/m 1,6 km/h (1 Bft) N-NW 340 0 min 0,000 mm 0,0 UV-I 5 W/m 12,5 C 13,9 C 3,2 km/h (1 Bft) 100,00 %
01.09.2017 20:00 13,9 C 22,2 C 91 % 1015,4 hPa 0,0 l/m 2,5 km/h (1 Bft) N-NW 340 0 min 0,000 mm 0,0 UV-I 0 W/m 12,5 C 13,9 C 4,8 km/h (1 Bft) 100,00 %
01.09.2017 20:02 13,8 C 22,2 C 91 % 1015,5 hPa 0,0 l/m 0,0 km/h (0 Bft) N-NW 340 0 min 0,000 mm 0,0 UV-I 0 W/m 12,4 C 13,8 C 1,6 km/h (1 Bft) 98,00 %
01.09.2017 20:04 13,8 C 22,2 C 92 % 1015,6 hPa 0,0 l/m 1,7 km/h (1 Bft) N-NW 343 0 min 0,000 mm 0,0 UV-I 0 W/m 12,5 C 13,8 C 4,8 km/h (1 Bft) 100,00 %
01.09.2017 20:06 13,8 C 22,2 C 92 % 1015,6 hPa 0,0 l/m 1,7 km/h (1 Bft) N 355 0 min 0,000 mm 0,0 UV-I 0 W/m 12,5 C 13,8 C 4,8 km/h (1 Bft) 100,00 %
01.09.2017 20:08 13,8 C 22,2 C 91 % 1015,6 hPa 0,0 l/m 0,8 km/h (0 Bft) N 11 0 min 0,000 mm 0,0 UV-I 0 W/m 12,4 C 13,8 C 3,2 km/h (1 Bft) 100,00 %
01.09.2017 20:10 13,8 C 22,2 C 92 % 1015,7 hPa 0,0 l/m 0,3 km/h (0 Bft) N 5 0 min 0,000 mm 0,0 UV-I 0 W/m 12,5 C 13,8 C 1,6 km/h (1 Bft) 100,00 %
01.09.2017 20:12 13,7 C 22,2 C 92 % 1015,6 hPa 0,0 l/m 1,4 km/h (1 Bft) N-NW 345 0 min 0,000 mm 0,0 UV-I 0 W/m 12,4 C 13,7 C 3,2 km/h (1 Bft) 100,00 %
01.09.2017 20:14 13,7 C 22,2 C 92 % 1015,6 hPa 0,0 l/m 1,9 km/h (1 Bft) N-NW 338 0 min 0,000 mm 0,0 UV-I 0 W/m 12,4 C 13,7 C 4,8 km/h (1 Bft) 100,00 %
01.09.2017 20:16 13,7 C 22,2 C 92 % 1015,6 hPa 0,0 l/m 2,4 km/h (1 Bft) W-NW 301 0 min 0,000 mm 0,0 UV-I 0 W/m 12,4 C 13,7 C 6,4 km/h (2 Bft) 97,87 %
01.09.2017 20:18 13,7 C 22,2 C 92 % 1015,5 hPa 0,0 l/m 2,5 km/h (1 Bft) N 9 0 min 0,000 mm 0,0 UV-I 0 W/m 12,4 C 13,7 C 4,8 km/h (1 Bft) 100,00 %
01.09.2017 20:20 13,7 C 22,2 C 92 % 1015,4 hPa 0,0 l/m 2,4 km/h (1 Bft) N-NW 346 0 min 0,000 mm 0,0 UV-I 0 W/m 12,4 C 13,7 C 4,8 km/h (1 Bft) 97,87 %
01.09.2017 20:22 13,7 C 22,2 C 91 % 1015,4 hPa 0,0 l/m 2,5 km/h (1 Bft) W-NW 300 0 min 0,000 mm 0,0 UV-I 0 W/m 12,3 C 13,7 C 6,4 km/h (2 Bft) 98,00 %
01.09.2017 20:24 13,6 C 22,2 C 91 % 1015,4 hPa 0,0 l/m 3,9 km/h (1 Bft) N-NW 334 0 min 0,000 mm 0,0 UV-I 0 W/m 12,2 C 13,6 C 8,0 km/h (2 Bft) 97,87 %
01.09.2017 20:26 13,6 C 22,2 C 91 % 1015,4 hPa 0,0 l/m 2,3 km/h (1 Bft) N-NW 329 0 min 0,000 mm 0,0 UV-I 0 W/m 12,2 C 13,6 C 6,4 km/h (2 Bft) 97,87 %
01.09.2017 20:28 13,6 C 22,2 C 91 % 1015,4 hPa 0,0 l/m 2,6 km/h (1 Bft) N-NW 339 0 min 0,000 mm 0,0 UV-I 0 W/m 12,2 C 13,6 C 4,8 km/h (1 Bft) 100,00 %
01.09.2017 20:30 13,6 C 22,2 C 91 % 1015,4 hPa 0,0 l/m 2,3 km/h (1 Bft) N-NW 335 0 min 0,000 mm 0,0 UV-I 0 W/m 12,2 C 13,6 C 6,4 km/h (2 Bft) 98,00 %
01.09.2017 20:32 13,6 C 22,2 C 91 % 1015,5 hPa 0,0 l/m 5,0 km/h (1 Bft) N-NW 344 0 min 0,000 mm 0,0 UV-I 0 W/m 12,2 C 13,6 C 11,3 km/h (2 Bft) 97,87 %
01.09.2017 20:34 13,6 C 22,2 C 91 % 1015,6 hPa 0,0 l/m 4,0 km/h (1 Bft) N-NW 335 0 min 0,000 mm 0,0 UV-I 0 W/m 12,2 C 13,6 C 9,7 km/h (2 Bft) 100,00 %
01.09.2017 20:36 13,6 C 22,2 C 91 % 1015,6 hPa 0,0 l/m 1,6 km/h (1 Bft) N-NW 328 0 min 0,000 mm 0,0 UV-I 0 W/m 12,2 C 13,6 C 4,8 km/h (1 Bft) 100,00 %
01.09.2017 20:38 13,6 C 22,2 C 91 % 1015,7 hPa 0,0 l/m 4,1 km/h (1 Bft) W 272 0 min 0,000 mm 0,0 UV-I 0 W/m 12,2 C 13,6 C 8,0 km/h (2 Bft) 100,00 %
01.09.2017 20:40 13,5 C 22,2 C 91 % 1015,7 hPa 0,0 l/m 3,0 km/h (1 Bft) N-NW 348 0 min 0,000 mm 0,0 UV-I 0 W/m 12,1 C 13,5 C 4,8 km/h (1 Bft) 100,00 %
01.09.2017 20:42 13,5 C 22,2 C 91 % 1015,7 hPa 0,0 l/m 2,7 km/h (1 Bft) W-NW 295 0 min 0,000 mm 0,0 UV-I 0 W/m 12,1 C 13,5 C 11,3 km/h (2 Bft) 100,00 %
01.09.2017 20:44 13,5 C 22,2 C 91 % 1015,8 hPa 0,0 l/m 2,4 km/h (1 Bft) N-NW 336 0 min 0,000 mm 0,0 UV-I 0 W/m 12,1 C 13,5 C 6,4 km/h (2 Bft) 97,87 %
01.09.2017 20:46 13,5 C 22,2 C 91 % 1015,8 hPa 0,0 l/m 0,8 km/h (0 Bft) N-NW 335 0 min 0,000 mm 0,0 UV-I 0 W/m 12,1 C 13,5 C 3,2 km/h (1 Bft) 100,00 %
01.09.2017 20:48 13,5 C 22,2 C 92 % 1015,8 hPa 0,0 l/m 1,8 km/h (1 Bft) N 355 0 min 0,000 mm 0,0 UV-I 0 W/m 12,2 C 13,5 C 3,2 km/h (1 Bft) 97,87 %
01.09.2017 20:50 13,5 C 22,2 C 92 % 1015,8 hPa 0,0 l/m 1,2 km/h (1 Bft) N 355 0 min 0,000 mm 0,0 UV-I 0 W/m 12,2 C 13,5 C 3,2 km/h (1 Bft) 97,92 %
01.09.2017 20:52 13,5 C 22,2 C 92 % 1015,7 hPa 0,0 l/m 0,4 km/h (0 Bft) N 355 0 min 0,000 mm 0,0 UV-I 0 W/m 12,2 C 13,5 C 1,6 km/h (1 Bft) 95,74 %
01.09.2017 20:54 13,5 C 22,2 C 92 % 1015,7 hPa 0,0 l/m 0,1 km/h (0 Bft) N 355 0 min 0,000 mm 0,0 UV-I 0 W/m 12,2 C 13,5 C 1,6 km/h (1 Bft) 98,00 %
01.09.2017 20:56 13,5 C 22,2 C 92 % 1015,6 hPa 0,0 l/m 0,2 km/h (0 Bft) N 355 0 min 0,000 mm 0,0 UV-I 0 W/m 12,2 C 13,5 C 1,6 km/h (1 Bft) 95,74 %
01.09.2017 20:58 13,5 C 22,2 C 92 % 1015,6 hPa 0,0 l/m 0,2 km/h (0 Bft) N 355 0 min 0,000 mm 0,0 UV-I 0 W/m 12,2 C 13,5 C 1,6 km/h (1 Bft) 95,74 %
01.09.2017 21:00 13,5 C 22,2 C 92 % 1015,6 hPa 0,0 l/m 1,2 km/h (1 Bft) N 355 0 min 0,000 mm 0,0 UV-I 0 W/m 12,2 C 13,5 C 3,2 km/h (1 Bft) 95,74 %
01.09.2017 21:02 13,5 C 22,2 C 92 % 1015,6 hPa 0,0 l/m 0,9 km/h (0 Bft) N 355 0 min 0,000 mm 0,0 UV-I 0 W/m 12,2 C 13,5 C 3,2 km/h (1 Bft) 93,62 %
01.09.2017 21:06 13,4 C 22,2 C 92 % 1015,7 hPa 0,0 l/m 0,0 km/h (0 Bft) N 355 0 min 0,000 mm 0,0 UV-I 0 W/m 12,1 C 13,4 C 0,0 km/h (0 Bft) 94,05 %
01.09.2017 21:08 13,4 C 22,2 C 92 % 1015,7 hPa 0,0 l/m 1,6 km/h (1 Bft) N 355 0 min 0,000 mm 0,0 UV-I 0 W/m 12,1 C 13,4 C 4,8 km/h (1 Bft) 95,74 %
01.09.2017 21:10 13,4 C 22,2 C 92 % 1015,7 hPa 0,0 l/m 2,4 km/h (1 Bft) N 355 0 min 0,000 mm 0,0 UV-I 0 W/m 12,1 C 13,4 C 4,8 km/h (1 Bft) 94,00 %
01.09.2017 21:12 13,4 C 22,2 C 92 % 1015,8 hPa 0,0 l/m 1,7 km/h (1 Bft) N 355 0 min 0,000 mm 0,0 UV-I 0 W/m 12,1 C 13,4 C 3,2 km/h (1 Bft) 93,62 %
01.09.2017 21:14 13,4 C 22,2 C 92 % 1015,9 hPa 0,0 l/m 1,1 km/h (1 Bft) N 355 0 min 0,000 mm 0,0 UV-I 0 W/m 12,1 C 13,4 C 3,2 km/h (1 Bft) 95,74 %
01.09.2017 21:16 13,5 C 22,2 C 92 % 1015,9 hPa 0,0 l/m 0,1 km/h (0 Bft) N 355 0 min 0,000 mm 0,0 UV-I 0 W/m 12,2 C 13,5 C 1,6 km/h (1 Bft) 93,62 %
01.09.2017 21:18 13,5 C 22,2 C 93 % 1015,9 hPa 0,0 l/m 0,7 km/h (0 Bft) N 355 0 min 0,000 mm 0,0 UV-I 0 W/m 12,4 C 13,5 C 3,2 km/h (1 Bft) 93,62 %
01.09.2017 21:20 13,6 C 22,2 C 93 % 1015,8 hPa 0,0 l/m 0,9 km/h (0 Bft) N 355 0 min 0,000 mm 0,0 UV-I 0 W/m 12,5 C 13,6 C 3,2 km/h (1 Bft) 91,67 %
01.09.2017 21:22 13,6 C 22,2 C 93 % 1015,8 hPa 0,0 l/m 0,0 km/h (0 Bft) N 355 0 min 0,000 mm 0,0 UV-I 0 W/m 12,5 C 13,6 C 0,0 km/h (0 Bft) 97,87 %
01.09.2017 21:25 13,5 C 22,2 C 93 % 1015,7 hPa 0,0 l/m 0,0 km/h (0 Bft) N 360 0 min 0,000 mm 0,0 UV-I 0 W/m 12,4 C 13,5 C 3,2 km/h (1 Bft) 95,61 %
01.09.2017 21:30 13,5 C 22,2 C 94 % 1015,7 hPa 0,0 l/m 0,0 km/h (0 Bft) N 360 0 min 0,000 mm 0,0 UV-I 0 W/m 12,6 C 13,5 C 3,2 km/h (1 Bft) 95,61 %
01.09.2017 21:35 13,5 C 22,2 C 94 % 1015,6 hPa 0,0 l/m 0,0 km/h (0 Bft) N 360 0 min 0,000 mm 0,0 UV-I 0 W/m 12,6 C 13,5 C 1,6 km/h (1 Bft) 95,61 %
01.09.2017 21:40 13,4 C 22,2 C 94 % 1015,6 hPa 0,0 l/m 0,0 km/h (0 Bft) N 360 0 min 0,000 mm 0,0 UV-I 0 W/m 12,5 C 13,4 C 1,6 km/h (1 Bft) 97,37 %
01.09.2017 21:45 13,4 C 22,2 C 94 % 1015,7 hPa 0,0 l/m 0,0 km/h (0 Bft) N 0 0 min 0,000 mm 0,0 UV-I 0 W/m 12,5 C 13,4 C 0,0 km/h (0 Bft) 97,37 %
01.09.2017 21:46 13,4 C 22,2 C 94 % 1015,7 hPa 0,0 l/m 0,2 km/h (0 Bft) N 355 0 min 0,000 mm 0,0 UV-I 0 W/m 12,5 C 13,4 C 1,6 km/h (1 Bft) 97,16 %
01.09.2017 21:48 13,4 C 22,2 C 94 % 1015,8 hPa 0,0 l/m 0,9 km/h (0 Bft) N 355 0 min 0,000 mm 0,0 UV-I 0 W/m 12,5 C 13,4 C 1,6 km/h (1 Bft) 95,74 %
01.09.2017 21:50 13,4 C 22,2 C 94 % 1015,7 hPa 0,0 l/m 2,5 km/h (1 Bft) O-NO 58 0 min 0,000 mm 0,0 UV-I 0 W/m 12,5 C 13,4 C 4,8 km/h (1 Bft) 97,87 %
01.09.2017 21:52 13,4 C 22,2 C 94 % 1015,7 hPa 0,0 l/m 3,1 km/h (1 Bft) O-NO 58 0 min 0,000 mm 0,0 UV-I 0 W/m 12,5 C 13,4 C 4,8 km/h (1 Bft) 97,87 %
01.09.2017 21:54 13,4 C 22,2 C 94 % 1015,6 hPa 0,0 l/m 3,4 km/h (1 Bft) O-NO 58 0 min 0,000 mm 0,0 UV-I 0 W/m 12,5 C 13,4 C 4,8 km/h (1 Bft) 95,74 %
01.09.2017 21:56 13,4 C 22,2 C 94 % 1015,6 hPa 0,0 l/m 2,4 km/h (1 Bft) O-NO 58 0 min 0,000 mm 0,0 UV-I 0 W/m 12,5 C 13,4 C 4,8 km/h (1 Bft) 97,87 %
01.09.2017 21:58 13,3 C 22,2 C 94 % 1015,6 hPa 0,0 l/m 1,2 km/h (1 Bft) O-NO 58 0 min 0,000 mm 0,0 UV-I 0 W/m 12,4 C 13,3 C 3,2 km/h (1 Bft) 95,74 %
01.09.2017 22:00 13,3 C 22,2 C 94 % 1015,6 hPa 0,0 l/m 0,6 km/h (0 Bft) O-NO 58 0 min 0,000 mm 0,0 UV-I 0 W/m 12,4 C 13,3 C 1,6 km/h (1 Bft) 100,00 %
01.09.2017 22:02 13,3 C 22,2 C 94 % 1015,6 hPa 0,0 l/m 1,2 km/h (1 Bft) O-NO 58 0 min 0,000 mm 0,0 UV-I 0 W/m 12,4 C 13,3 C 3,2 km/h (1 Bft) 100,00 %
01.09.2017 22:04 13,3 C 22,2 C 94 % 1015,6 hPa 0,0 l/m 0,0 km/h (0 Bft) O-NO 58 0 min 0,000 mm 0,0 UV-I 0 W/m 12,4 C 13,3 C 0,0 km/h (0 Bft) 97,87 %
01.09.2017 22:06 13,3 C 22,2 C 94 % 1015,6 hPa 0,0 l/m 0,0 km/h (0 Bft) O-NO 58 0 min 0,000 mm 0,0 UV-I 0 W/m 12,4 C 13,3 C 0,0 km/h (0 Bft) 100,00 %
01.09.2017 22:08 13,4 C 22,2 C 94 % 1015,6 hPa 0,0 l/m 0,0 km/h (0 Bft) O-NO 58 0 min 0,000 mm 0,0 UV-I 0 W/m 12,5 C 13,4 C 0,0 km/h (0 Bft) 100,00 %
01.09.2017 22:10 13,4 C 22,2 C 94 % 1015,6 hPa 0,0 l/m 0,0 km/h (0 Bft) O-NO 58 0 min 0,000 mm 0,0 UV-I 0 W/m 12,5 C 13,4 C 0,0 km/h (0 Bft) 96,00 %
01.09.2017 22:12 13,4 C 22,2 C 94 % 1015,6 hPa 0,0 l/m 0,0 km/h (0 Bft) O-NO 58 0 min 0,000 mm 0,0 UV-I 0 W/m 12,5 C 13,4 C 0,0 km/h (0 Bft) 100,00 %
01.09.2017 22:14 13,4 C 22,2 C 94 % 1015,5 hPa 0,0 l/m 0,0 km/h (0 Bft) O-NO 58 0 min 0,000 mm 0,0 UV-I 0 W/m 12,5 C 13,4 C 0,0 km/h (0 Bft) 100,00 %
01.09.2017 22:16 13,4 C 22,2 C 94 % 1015,6 hPa 0,0 l/m 0,0 km/h (0 Bft) O-NO 58 0 min 0,000 mm 0,0 UV-I 0 W/m 12,5 C 13,4 C 0,0 km/h (0 Bft) 100,00 %
01.09.2017 22:19 13,4 C 22,2 C 94 % 1015,7 hPa 0,0 l/m 0,0 km/h (0 Bft) O-NO 58 0 min 0,000 mm 0,0 UV-I 0 W/m 12,5 C 13,4 C 0,0 km/h (0 Bft) 100,00 %
01.09.2017 22:20 13,4 C 22,2 C 94 % 1015,7 hPa 0,0 l/m 0,0 km/h (0 Bft) O-NO 58 0 min 0,000 mm 0,0 UV-I 0 W/m 12,5 C 13,4 C 0,0 km/h (0 Bft) 100,00 %
01.09.2017 22:22 13,4 C 22,2 C 94 % 1015,7 hPa 0,0 l/m 0,0 km/h (0 Bft) O-NO 58 0 min 0,000 mm 0,0 UV-I 0 W/m 12,5 C 13,4 C 0,0 km/h (0 Bft) 100,00 %
01.09.2017 22:24 13,4 C 22,2 C 94 % 1015,7 hPa 0,0 l/m 0,0 km/h (0 Bft) O-NO 58 0 min 0,000 mm 0,0 UV-I 0 W/m 12,5 C 13,4 C 0,0 km/h (0 Bft) 100,00 %
01.09.2017 22:26 13,4 C 22,2 C 94 % 1015,7 hPa 0,0 l/m 0,0 km/h (0 Bft) O-NO 58 0 min 0,000 mm 0,0 UV-I 0 W/m 12,5 C 13,4 C 0,0 km/h (0 Bft) 100,00 %
01.09.2017 22:28 13,4 C 22,2 C 94 % 1015,7 hPa 0,0 l/m 0,0 km/h (0 Bft) O-NO 58 0 min 0,000 mm 0,0 UV-I 0 W/m 12,5 C 13,4 C 0,0 km/h (0 Bft) 100,00 %
01.09.2017 22:30 13,4 C 22,2 C 94 % 1015,7 hPa 0,0 l/m 0,0 km/h (0 Bft) O-NO 58 0 min 0,000 mm 0,0 UV-I 0 W/m 12,5 C 13,4 C 0,0 km/h (0 Bft) 100,00 %
01.09.2017 22:32 13,4 C 22,2 C 94 % 1015,7 hPa 0,0 l/m 0,0 km/h (0 Bft) O-NO 58 0 min 0,000 mm 0,0 UV-I 0 W/m 12,5 C 13,4 C 0,0 km/h (0 Bft) 97,87 %
01.09.2017 22:34 13,5 C 22,2 C 94 % 1015,8 hPa 0,0 l/m 0,0 km/h (0 Bft) O-NO 58 0 min 0,000 mm 0,0 UV-I 0 W/m 12,6 C 13,5 C 0,0 km/h (0 Bft) 95,74 %
01.09.2017 22:36 13,5 C 22,2 C 95 % 1015,8 hPa 0,0 l/m 0,0 km/h (0 Bft) O-NO 58 0 min 0,000 mm 0,0 UV-I 0 W/m 12,7 C 13,5 C 0,0 km/h (0 Bft) 97,87 %
01.09.2017 22:38 13,5 C 22,2 C 95 % 1015,8 hPa 0,0 l/m 0,0 km/h (0 Bft) O-NO 58 0 min 0,000 mm 0,0 UV-I 0 W/m 12,7 C 13,5 C 0,0 km/h (0 Bft) 100,00 %
01.09.2017 22:40 13,5 C 22,2 C 95 % 1015,8 hPa 0,0 l/m 0,0 km/h (0 Bft) O-NO 58 0 min 0,000 mm 0,0 UV-I 0 W/m 12,7 C 13,5 C 0,0 km/h (0 Bft) 100,00 %
01.09.2017 22:42 13,5 C 22,2 C 95 % 1015,9 hPa 0,0 l/m 0,2 km/h (0 Bft) O-NO 58 0 min 0,000 mm 0,0 UV-I 0 W/m 12,7 C 13,5 C 1,6 km/h (1 Bft) 100,00 %
01.09.2017 22:44 13,5 C 22,2 C 95 % 1015,9 hPa 0,0 l/m 0,7 km/h (0 Bft) O-NO 58 0 min 0,000 mm 0,0 UV-I 0 W/m 12,7 C 13,5 C 1,6 km/h (1 Bft) 100,00 %
01.09.2017 22:46 13,5 C 22,2 C 95 % 1016,0 hPa 0,0 l/m 0,0 km/h (0 Bft) O-NO 58 0 min 0,000 mm 0,0 UV-I 0 W/m 12,7 C 13,5 C 0,0 km/h (0 Bft) 97,87 %
01.09.2017 22:48 13,5 C 22,2 C 95 % 1015,9 hPa 0,0 l/m 0,0 km/h (0 Bft) O-NO 58 0 min 0,000 mm 0,0 UV-I 0 W/m 12,7 C 13,5 C 0,0 km/h (0 Bft) 95,92 %
01.09.2017 22:50 13,5 C 22,2 C 95 % 1015,9 hPa 0,0 l/m 0,0 km/h (0 Bft) O-NO 58 0 min 0,000 mm 0,0 UV-I 0 W/m 12,7 C 13,5 C 0,0 km/h (0 Bft) 97,87 %
01.09.2017 22:52 13,5 C 22,2 C 95 % 1015,9 hPa 0,0 l/m 0,0 km/h (0 Bft) O-NO 58 0 min 0,000 mm 0,0 UV-I 0 W/m 12,7 C 13,5 C 0,0 km/h (0 Bft) 97,87 %
01.09.2017 22:54 13,5 C 22,2 C 95 % 1015,9 hPa 0,0 l/m 0,0 km/h (0 Bft) O-NO 58 0 min 0,000 mm 0,0 UV-I 0 W/m 12,7 C 13,5 C 0,0 km/h (0 Bft) 97,22 %
01.09.2017 22:56 13,5 C 22,2 C 95 % 1015,9 hPa 0,0 l/m 0,0 km/h (0 Bft) O-NO 58 0 min 0,000 mm 0,0 UV-I 0 W/m 12,7 C 13,5 C 0,0 km/h (0 Bft) 95,74 %
01.09.2017 22:58 13,4 C 22,2 C 95 % 1015,9 hPa 0,0 l/m 0,0 km/h (0 Bft) O-NO 58 0 min 0,000 mm 0,0 UV-I 0 W/m 12,6 C 13,4 C 0,0 km/h (0 Bft) 97,96 %
01.09.2017 23:00 13,4 C 22,2 C 95 % 1015,9 hPa 0,0 l/m 0,0 km/h (0 Bft) O-NO 58 0 min 0,000 mm 0,0 UV-I 0 W/m 12,6 C 13,4 C 0,0 km/h (0 Bft) 96,00 %
01.09.2017 23:02 13,5 C 22,2 C 95 % 1015,9 hPa 0,0 l/m 0,0 km/h (0 Bft) O-NO 58 0 min 0,000 mm 0,0 UV-I 0 W/m 12,7 C 13,5 C 0,0 km/h (0 Bft) 97,87 %
01.09.2017 23:04 13,4 C 22,2 C 95 % 1015,9 hPa 0,0 l/m 0,0 km/h (0 Bft) O-NO 58 0 min 0,000 mm 0,0 UV-I 0 W/m 12,6 C 13,4 C 0,0 km/h (0 Bft) 93,62 %
01.09.2017 23:06 13,4 C 22,2 C 95 % 1015,9 hPa 0,0 l/m 0,0 km/h (0 Bft) O-NO 58 0 min 0,000 mm 0,0 UV-I 0 W/m 12,6 C 13,4 C 0,0 km/h (0 Bft) 93,62 %
01.09.2017 23:08 13,4 C 22,2 C 95 % 1015,9 hPa 0,0 l/m 0,0 km/h (0 Bft) O-NO 58 0 min 0,000 mm 0,0 UV-I 0 W/m 12,6 C 13,4 C 1,6 km/h (1 Bft) 97,96 %
01.09.2017 23:10 13,4 C 22,2 C 95 % 1015,9 hPa 0,0 l/m 0,2 km/h (0 Bft) O-NO 58 0 min 0,000 mm 0,0 UV-I 0 W/m 12,6 C 13,4 C 1,6 km/h (1 Bft) 95,74 %
01.09.2017 23:12 13,4 C 22,2 C 95 % 1015,9 hPa 0,0 l/m 1,5 km/h (1 Bft) O-NO 58 0 min 0,000 mm 0,0 UV-I 0 W/m 12,6 C 13,4 C 3,2 km/h (1 Bft) 97,87 %
01.09.2017 23:14 13,4 C 22,2 C 95 % 1015,9 hPa 0,0 l/m 1,1 km/h (1 Bft) O-NO 58 0 min 0,000 mm 0,0 UV-I 0 W/m 12,6 C 13,4 C 3,2 km/h (1 Bft) 97,87 %
01.09.2017 23:16 13,4 C 22,2 C 95 % 1015,8 hPa 0,0 l/m 0,9 km/h (0 Bft) O-NO 58 0 min 0,000 mm 0,0 UV-I 0 W/m 12,6 C 13,4 C 3,2 km/h (1 Bft) 95,74 %
01.09.2017 23:18 13,4 C 22,2 C 95 % 1015,8 hPa 0,0 l/m 1,6 km/h (1 Bft) O-NO 58 0 min 0,000 mm 0,0 UV-I 0 W/m 12,6 C 13,4 C 3,2 km/h (1 Bft) 95,74 %
01.09.2017 23:20 13,4 C 22,2 C 95 % 1015,8 hPa 0,0 l/m 0,9 km/h (0 Bft) O-NO 58 0 min 0,000 mm 0,0 UV-I 0 W/m 12,6 C 13,4 C 1,6 km/h (1 Bft) 97,37 %
01.09.2017 23:22 13,4 C 22,2 C 95 % 1015,8 hPa 0,0 l/m 0,3 km/h (0 Bft) O-NO 58 0 min 0,000 mm 0,0 UV-I 0 W/m 12,6 C 13,4 C 1,6 km/h (1 Bft) 100,00 %
01.09.2017 23:24 13,4 C 22,2 C 95 % 1015,8 hPa 0,0 l/m 1,0 km/h (0 Bft) O-NO 58 0 min 0,000 mm 0,0 UV-I 0 W/m 12,6 C 13,4 C 3,2 km/h (1 Bft) 97,87 %
01.09.2017 23:26 13,4 C 22,2 C 95 % 1015,7 hPa 0,0 l/m 1,0 km/h (0 Bft) O-NO 58 0 min 0,000 mm 0,0 UV-I 0 W/m 12,6 C 13,4 C 3,2 km/h (1 Bft) 98,00 %
01.09.2017 23:28 13,4 C 22,2 C 95 % 1015,6 hPa 0,0 l/m 0,4 km/h (0 Bft) O-NO 58 0 min 0,000 mm 0,0 UV-I 0 W/m 12,6 C 13,4 C 1,6 km/h (1 Bft) 100,00 %
01.09.2017 23:30 13,4 C 22,2 C 95 % 1015,6 hPa 0,0 l/m 0,7 km/h (0 Bft) O-NO 58 0 min 0,000 mm 0,0 UV-I 0 W/m 12,6 C 13,4 C 3,2 km/h (1 Bft) 100,00 %
01.09.2017 23:32 13,4 C 22,2 C 95 % 1015,6 hPa 0,0 l/m 3,0 km/h (1 Bft) O-NO 58 0 min 0,000 mm 0,0 UV-I 0 W/m 12,6 C 13,4 C 4,8 km/h (1 Bft) 100,00 %
01.09.2017 23:34 13,4 C 22,2 C 95 % 1015,6 hPa 0,0 l/m 2,3 km/h (1 Bft) O-NO 58 0 min 0,000 mm 0,0 UV-I 0 W/m 12,6 C 13,4 C 3,2 km/h (1 Bft) 100,00 %
01.09.2017 23:36 13,4 C 22,2 C 95 % 1015,7 hPa 0,0 l/m 2,4 km/h (1 Bft) O-NO 58 0 min 0,000 mm 0,0 UV-I 0 W/m 12,6 C 13,4 C 3,2 km/h (1 Bft) 100,00 %
01.09.2017 23:38 13,4 C 22,2 C 95 % 1015,7 hPa 0,0 l/m 1,7 km/h (1 Bft) O-NO 58 0 min 0,000 mm 0,0 UV-I 0 W/m 12,6 C 13,4 C 4,8 km/h (1 Bft) 100,00 %
01.09.2017 23:40 13,4 C 22,2 C 95 % 1015,7 hPa 0,0 l/m 0,1 km/h (0 Bft) O-NO 58 0 min 0,000 mm 0,0 UV-I 0 W/m 12,6 C 13,4 C 1,6 km/h (1 Bft) 100,00 %
01.09.2017 23:42 13,3 C 22,2 C 95 % 1015,7 hPa 0,0 l/m 0,0 km/h (0 Bft) O-NO 58 0 min 0,000 mm 0,0 UV-I 0 W/m 12,5 C 13,3 C 0,0 km/h (0 Bft) 100,00 %
01.09.2017 23:44 13,3 C 22,2 C 95 % 1015,7 hPa 0,0 l/m 0,0 km/h (0 Bft) O-NO 58 0 min 0,000 mm 0,0 UV-I 0 W/m 12,5 C 13,3 C 0,0 km/h (0 Bft) 100,00 %
01.09.2017 23:46 13,3 C 22,2 C 95 % 1015,7 hPa 0,0 l/m 0,0 km/h (0 Bft) O-NO 58 0 min 0,000 mm 0,0 UV-I 0 W/m 12,5 C 13,3 C 0,0 km/h (0 Bft) 100,00 %
01.09.2017 23:48 13,3 C 22,2 C 95 % 1015,8 hPa 0,0 l/m 0,0 km/h (0 Bft) O-NO 58 0 min 0,000 mm 0,0 UV-I 0 W/m 12,5 C 13,3 C 0,0 km/h (0 Bft) 97,87 %
01.09.2017 23:50 13,3 C 22,2 C 95 % 1015,7 hPa 0,0 l/m 1,4 km/h (1 Bft) O-NO 58 0 min 0,000 mm 0,0 UV-I 0 W/m 12,5 C 13,3 C 3,2 km/h (1 Bft) 100,00 %
01.09.2017 23:52 13,3 C 22,2 C 95 % 1015,7 hPa 0,0 l/m 3,0 km/h (1 Bft) O-NO 58 0 min 0,000 mm 0,0 UV-I 0 W/m 12,5 C 13,3 C 4,8 km/h (1 Bft) 100,00 %
01.09.2017 23:54 13,3 C 22,2 C 95 % 1015,7 hPa 0,0 l/m 1,6 km/h (1 Bft) O-NO 58 0 min 0,000 mm 0,0 UV-I 0 W/m 12,5 C 13,3 C 3,2 km/h (1 Bft) 100,00 %
01.09.2017 23:56 13,3 C 21,7 C 95 % 1015,8 hPa 0,0 l/m 1,7 km/h (1 Bft) O-NO 58 0 min 0,000 mm 0,0 UV-I 0 W/m 12,5 C 13,3 C 4,8 km/h (1 Bft) 97,87 %
01.09.2017 23:58 13,3 C 21,7 C 95 % 1015,7 hPa 0,0 l/m 2,4 km/h (1 Bft) O-NO 58 0 min 0,000 mm 0,0 UV-I 0 W/m 12,5 C 13,3 C 4,8 km/h (1 Bft) 97,87 %
_ Min-Zeit 21:56 23:56 00:00 12:44 - 07:54 - - - - - - 20:40 01:34 09:46 01:10
Minimum _ 13,3 C 21,7 C 89 % 1013,5 hPa - 0,0 km/h (0 Bft) - - - - - - 12,1 C 12,5 C 0,0 km/h (0 Bft) 89,36 %
_ Max-Zeit 00:00 00:00 07:02 00:00 01:24 01:34 - - 17:40 15:02 12:42 12:42 00:54 00:26 01:28 00:00
Maximum _ 16,6 C 23,9 C 97 % 1016,5 hPa 0,2 l/m 14,2 km/h
W-SW (3 Bft)
- - 2 min 0,076 mm 1,5 UV-I 194 W/m 15,2 C 16,4 C 22,5 km/h
W-SW (4 Bft)
100,00 %
Durchschnitt _ 14,9 C 22,8 C 95 % 1014,9 hPa #18,4 l/m 4,5 km/h (1 Bft) W-SW - #12 min. #0,533 mm 0,7 UV-I 71 W/m 14,1 C 14,6 C 8,3 km/h (2 Bft) 97,86 %